[[{"header":{"parameterUnit":"m.s-1","parameterCategory":1,"la1":31.0,"la2":29.5877,"lo1":-88.7671,"lo2":-86.6584,"dy":0.0162,"dx":0.0185,"nx":115,"ny":88,"refTime":"2024-03-05T12:00:00:Z","depth":0,"parameterNumber":2,"parameterNumberName":"U-component_of_WINDS"},"data":[0.0,0.0,0.0,0.0,0.0,0.0,0.0,0.0,0.0,0.0,0.0,0.0,0.0,0.0,0.0,0.0,0.0,0.0,0.0,0.0,0.0,0.0,0.0,0.0,0.0,0.0,0.0,0.0,0.0,0.0,0.0,0.0,0.0,0.0,0.0,0.0,0.0,0.0,0.0,0.0,0.0,0.0,0.0,0.0,0.0,0.0,0.0,0.0,0.0,0.0,0.0,0.0,0.0,0.0,0.0,0.0,0.0,0.0,0.0,0.0,0.0,0.0,0.0,0.0,0.0,0.0,0.0,0.0,0.0,0.0,0.0,0.0,0.0,0.0,0.0,0.0,0.0,0.0,0.0,0.0,0.0,0.0,0.0,0.0,0.0,0.0,0.0,0.0,0.0,0.0,0.0,0.0,0.0,0.0,0.0,0.0,0.0,0.0,0.0,0.0,0.0,0.0,0.0,0.0,0.0,0.0,0.0,0.0,0.0,0.0,0.0,0.0,0.0,0.0,0.0,0.0,0.0,0.0,0.0,0.0,0.0,0.0,0.0,0.0,0.0,0.0,0.0,0.0,0.0,0.0,0.0,0.0,0.0,0.0,0.0,0.0,0.0,0.0,0.0,0.0,0.0,0.0,0.0,0.0,0.0,0.0,0.0,0.0,0.0,0.0,0.0,0.0,0.0,0.0,0.0,0.0,0.0,0.0,0.0,0.0,0.0,0.0,0.0,0.0,0.0,0.0,0.0,0.0,0.0,0.0,0.0,0.0,0.0,0.0,0.0,0.0,0.0,0.0,0.0,0.0,0.0,0.0,0.0,0.0,0.0,0.0,0.0,0.0,0.0,0.0,0.0,0.0,0.0,0.0,0.0,0.0,0.0,0.0,0.0,0.0,0.0,0.0,0.0,0.0,0.0,0.0,0.0,0.0,0.0,0.0,0.0,0.0,0.0,0.0,0.0,0.0,0.0,0.0,0.0,0.0,0.0,0.0,0.0,0.0,0.0,0.0,0.0,0.0,0.0,0.0,0.0,0.0,0.0,0.0,0.0,0.0,0.0,0.0,0.0,0.0,0.0,0.0,0.0,0.0,0.0,0.0,0.0,0.0,0.0,0.0,0.0,0.0,0.0,0.0,0.0,0.0,0.0,0.0,0.0,0.0,0.0,0.0,0.0,0.0,0.0,0.0,0.0,0.0,0.0,0.0,0.0,0.0,0.0,0.0,0.0,0.0,0.0,0.0,0.0,0.0,0.0,0.0,0.0,0.0,0.0,0.0,0.0,0.0,0.0,0.0,0.0,0.0,0.0,0.0,0.0,0.0,0.0,0.0,0.0,0.0,0.0,0.0,0.0,0.0,0.0,0.0,0.0,0.0,0.0,0.0,0.0,0.0,0.0,0.0,0.0,0.0,0.0,0.0,0.0,0.0,0.0,0.0,0.0,0.0,0.0,0.0,0.0,0.0,0.0,0.0,0.0,0.0,0.0,0.0,0.0,0.0,0.0,0.0,0.0,0.0,0.0,0.0,0.0,0.0,0.0,0.0,0.0,0.0,0.0,0.0,0.0,0.0,0.0,0.0,0.0,0.0,0.0,0.0,0.0,0.0,0.0,0.0,0.0,0.0,0.0,0.0,0.0,0.0,0.0,0.0,0.0,0.0,0.0,0.0,0.0,0.0,0.0,0.0,0.0,0.0,0.0,0.0,0.0,0.0,0.0,0.0,0.0,0.0,0.0,0.0,0.0,0.0,0.0,0.0,0.0,0.0,0.0,0.0,0.0,0.0,0.0,0.0,0.0,0.0,0.0,0.0,0.0,0.0,0.0,0.0,0.0,0.0,0.0,0.0,0.0,0.0,0.0,0.0,0.0,0.0,0.0,0.0,0.0,0.0,0.0,0.0,0.0,0.0,0.0,0.0,0.0,0.0,0.0,0.0,0.0,0.0,0.0,0.0,0.0,0.0,0.0,0.0,0.0,0.0,0.0,0.0,0.0,0.0,0.0,0.0,0.0,0.0,0.0,0.0,0.0,0.0,0.0,0.0,0.0,0.0,0.0,0.0,0.0,0.0,0.0,0.0,0.0,0.0,0.0,0.0,0.0,0.0,0.0,0.0,0.0,0.0,0.0,0.0,0.0,0.0,0.0,0.0,0.0,0.0,0.0,0.0,0.0,0.0,0.0,0.0,0.0,0.0,0.0,0.0,0.0,0.0,0.0,0.0,0.0,0.0,0.0,0.0,0.0,0.0,0.0,0.0,0.0,0.0,0.0,0.0,0.0,0.0,0.0,0.0,0.0,0.0,0.0,0.0,0.0,0.0,0.0,0.0,0.0,0.0,0.0,0.0,0.0,0.0,0.0,0.0,0.0,0.0,0.0,0.0,0.0,0.0,0.0,0.0,0.0,0.0,0.0,0.0,0.0,0.0,0.0,0.0,0.0,0.0,0.0,0.0,0.0,0.0,0.0,0.0,0.0,0.0,0.0,0.0,0.0,0.0,0.0,0.0,0.0,0.0,0.0,0.0,0.0,0.0,0.0,0.0,0.0,0.0,0.0,0.0,0.0,0.0,0.0,0.0,0.0,0.0,0.0,0.0,0.0,0.0,0.0,0.0,0.0,0.0,0.0,0.0,0.0,0.0,0.0,0.0,0.0,0.0,0.0,0.0,0.0,0.0,0.0,0.0,0.0,0.0,0.0,0.0,0.0,0.0,0.0,0.0,0.0,0.0,0.0,0.0,0.0,0.0,0.0,0.0,0.0,0.0,0.0,0.0,0.0,0.0,0.0,0.0,0.0,0.0,0.0,0.0,0.0,0.0,0.0,0.0,0.0,0.0,0.0,0.0,0.0,0.0,0.0,0.0,0.0,0.0,0.0,0.0,0.0,0.0,0.0,0.0,0.0,0.0,0.0,0.0,0.0,0.0,0.0,0.0,0.0,0.0,0.0,0.0,0.0,0.0,0.0,0.0,0.0,0.0,0.0,0.0,0.0,0.0,0.0,0.0,0.0,0.0,0.0,0.0,0.0,0.0,0.0,0.0,0.0,0.0,0.0,0.0,0.0,0.0,0.0,0.0,0.0,0.0,0.0,0.0,0.0,0.0,0.0,0.0,0.0,0.0,0.0,0.0,0.0,0.0,0.0,0.0,0.0,0.0,0.0,0.0,0.0,0.0,0.0,0.0,0.0,0.0,0.0,0.0,0.0,0.0,0.0,0.0,0.0,0.0,0.0,0.0,0.0,0.0,0.0,0.0,0.0,0.0,0.0,0.0,0.0,0.0,0.0,0.0,0.0,0.0,0.0,0.0,0.0,0.0,0.0,0.0,0.0,0.0,0.0,0.0,0.0,0.0,0.0,0.0,0.0,0.0,0.0,0.0,0.0,0.0,0.0,0.0,0.0,0.0,0.0,0.0,0.0,0.0,0.0,0.0,0.0,0.0,0.0,0.0,0.0,0.0,0.0,0.0,0.0,0.0,0.0,0.0,0.0,0.0,0.0,0.0,0.0,0.0,0.0,0.0,0.0,0.0,0.0,0.0,0.0,0.0,0.0,0.0,0.0,0.0,0.0,0.0,0.0,0.0,0.0,0.0,0.0,0.0,0.0,0.0,0.0,0.0,0.0,0.0,0.0,0.0,0.0,0.0,0.0,0.0,0.0,0.0,0.0,0.0,0.0,0.0,0.0,0.0,0.0,0.0,0.0,0.0,0.0,0.0,0.0,0.0,0.0,0.0,0.0,0.0,0.0,0.0,0.0,0.0,0.0,0.0,0.0,0.0,0.0,0.0,0.0,0.0,0.0,0.0,0.0,0.0,0.0,0.0,0.0,0.0,0.0,0.0,0.0,0.0,0.0,0.0,0.0,0.0,0.0,0.0,0.0,0.0,0.0,0.0,0.0,0.0,0.0,0.0,0.0,0.0,0.0,0.0,0.0,0.0,0.0,0.0,0.0,0.0,0.0,0.0,0.0,0.0,0.0,0.0,0.0,0.0,0.0,0.0,0.0,0.0,0.0,0.0,0.0,0.0,0.0,0.0,0.0,0.0,0.0,0.0,0.0,0.0,0.0,0.0,0.0,0.0,0.0,0.0,0.0,0.0,0.0,0.0,0.0,0.0,0.0,0.0,0.0,0.0,0.0,0.0,0.0,0.0,0.0,0.0,0.0,0.0,0.0,0.0,0.0,0.0,0.0,0.0,0.0,0.0,0.0,0.0,0.0,0.0,0.0,0.0,0.0,0.0,0.0,0.0,0.0,0.0,0.0,0.0,0.0,0.0,0.0,0.0,0.0,0.0,0.0,0.0,4.0076,0.0,0.0,0.0,0.0,0.0,0.0,0.0,0.0,0.0,0.0,0.0,0.0,0.0,0.0,0.0,0.0,0.0,0.0,0.0,0.0,0.0,0.0,0.0,0.0,0.0,0.0,0.0,0.0,0.0,0.0,0.0,0.0,0.0,0.0,0.0,0.0,0.0,0.0,0.0,0.0,0.0,0.0,0.0,0.0,0.0,0.0,0.0,0.0,0.0,0.0,0.0,0.0,0.0,0.0,0.0,0.0,0.0,0.0,0.0,0.0,0.0,0.0,0.0,0.0,0.0,0.0,0.0,0.0,0.0,0.0,0.0,0.0,0.0,0.0,0.0,0.0,0.0,0.0,0.0,0.0,0.0,0.0,0.0,0.0,0.0,0.0,0.0,0.0,0.0,0.0,0.0,0.0,0.0,0.0,0.0,0.0,0.0,0.0,0.0,0.0,0.0,0.0,0.0,0.0,0.0,0.0,0.0,0.0,0.0,0.0,4.0307,4.0307,4.0272,4.0234,4.0234,0.0,0.0,0.0,0.0,0.0,0.0,0.0,0.0,0.0,0.0,0.0,0.0,0.0,0.0,0.0,0.0,0.0,0.0,0.0,0.0,0.0,0.0,0.0,0.0,0.0,0.0,0.0,0.0,0.0,0.0,0.0,0.0,0.0,0.0,0.0,0.0,0.0,0.0,0.0,0.0,0.0,0.0,0.0,0.0,0.0,0.0,0.0,0.0,0.0,0.0,0.0,0.0,0.0,0.0,0.0,0.0,0.0,0.0,0.0,0.0,0.0,0.0,0.0,0.0,0.0,0.0,0.0,0.0,0.0,0.0,0.0,0.0,0.0,0.0,0.0,0.0,0.0,0.0,0.0,0.0,0.0,0.0,0.0,0.0,0.0,0.0,0.0,0.0,0.0,0.0,0.0,0.0,0.0,0.0,0.0,0.0,0.0,0.0,0.0,0.0,0.0,0.0,0.0,0.0,0.0,0.0,0.0,0.0,0.0,0.0,0.0,0.0,4.0398,4.0381,4.0325,0.0,0.0,0.0,0.0,0.0,0.0,0.0,0.0,0.0,0.0,0.0,0.0,0.0,0.0,0.0,0.0,0.0,0.0,0.0,0.0,0.0,0.0,0.0,0.0,0.0,0.0,0.0,0.0,0.0,0.0,0.0,0.0,0.0,0.0,0.0,0.0,0.0,0.0,0.0,0.0,0.0,0.0,0.0,0.0,0.0,0.0,0.0,0.0,0.0,0.0,0.0,0.0,0.0,0.0,0.0,0.0,0.0,0.0,0.0,0.0,0.0,0.0,0.0,0.0,0.0,0.0,0.0,0.0,0.0,0.0,0.0,0.0,0.0,0.0,0.0,0.0,0.0,0.0,0.0,0.0,0.0,0.0,0.0,0.0,0.0,0.0,0.0,0.0,0.0,0.0,0.0,0.0,0.0,0.0,0.0,0.0,0.0,0.0,0.0,0.0,0.0,0.0,0.0,0.0,0.0,0.0,0.0,0.0,0.0,0.0,4.0482,4.0482,4.0427,0.0,4.0411,0.0,0.0,0.0,0.0,0.0,0.0,0.0,0.0,0.0,0.0,0.0,0.0,0.0,0.0,0.0,0.0,0.0,0.0,0.0,0.0,0.0,0.0,0.0,0.0,0.0,0.0,0.0,0.0,0.0,0.0,0.0,0.0,0.0,0.0,0.0,0.0,0.0,0.0,0.0,0.0,0.0,0.0,0.0,0.0,0.0,0.0,0.0,0.0,0.0,0.0,0.0,0.0,0.0,0.0,0.0,0.0,0.0,0.0,0.0,0.0,0.0,0.0,0.0,0.0,0.0,0.0,0.0,0.0,0.0,0.0,0.0,0.0,0.0,0.0,0.0,0.0,0.0,0.0,0.0,0.0,0.0,0.0,0.0,0.0,0.0,0.0,0.0,0.0,0.0,0.0,0.0,0.0,0.0,0.0,0.0,0.0,0.0,0.0,0.0,0.0,0.0,0.0,0.0,0.0,0.0,0.0,0.0,0.0,0.0,0.0,3.9554,3.9016,3.8946,3.9161,0.0,0.0,0.0,0.0,0.0,0.0,0.0,0.0,0.0,0.0,0.0,0.0,0.0,0.0,0.0,0.0,0.0,0.0,0.0,0.0,0.0,0.0,0.0,0.0,0.0,0.0,0.0,0.0,0.0,0.0,0.0,0.0,0.0,0.0,0.0,0.0,0.0,0.0,0.0,0.0,0.0,0.0,0.0,0.0,0.0,0.0,0.0,0.0,0.0,0.0,0.0,0.0,0.0,0.0,0.0,0.0,0.0,0.0,0.0,0.0,0.0,0.0,0.0,0.0,0.0,0.0,0.0,0.0,0.0,0.0,0.0,0.0,0.0,0.0,0.0,0.0,0.0,0.0,0.0,0.0,0.0,0.0,0.0,0.0,0.0,0.0,0.0,0.0,0.0,0.0,0.0,0.0,0.0,0.0,0.0,0.0,0.0,0.0,0.0,0.0,0.0,0.0,0.0,0.0,0.0,0.0,0.0,0.0,0.0,0.0,3.9046,3.8623,3.8046,3.7978,3.8232,3.8846,0.0,0.0,0.0,0.0,0.0,0.0,0.0,0.0,0.0,0.0,0.0,0.0,0.0,0.0,0.0,0.0,0.0,0.0,0.0,0.0,0.0,0.0,0.0,0.0,0.0,0.0,0.0,0.0,0.0,0.0,0.0,0.0,0.0,0.0,0.0,0.0,0.0,0.0,0.0,0.0,0.0,0.0,0.0,0.0,0.0,0.0,0.0,0.0,0.0,0.0,0.0,0.0,0.0,0.0,0.0,0.0,0.0,0.0,0.0,0.0,0.0,0.0,0.0,0.0,0.0,0.0,0.0,0.0,0.0,0.0,0.0,0.0,0.0,0.0,0.0,0.0,0.0,0.0,0.0,0.0,0.0,0.0,0.0,0.0,0.0,0.0,0.0,0.0,0.0,0.0,0.0,0.0,0.0,0.0,0.0,0.0,0.0,0.0,0.0,0.0,0.0,0.0,0.0,0.0,0.0,0.0,0.0,0.0,3.9277,3.8469,3.8046,3.7969,3.8007,3.8007,0.0,0.0,0.0,0.0,0.0,0.0,0.0,0.0,0.0,0.0,0.0,0.0,0.0,0.0,0.0,0.0,0.0,0.0,0.0,0.0,0.0,0.0,0.0,0.0,0.0,0.0,0.0,0.0,0.0,0.0,0.0,0.0,0.0,0.0,0.0,0.0,0.0,0.0,0.0,0.0,0.0,0.0,0.0,0.0,0.0,0.0,0.0,0.0,0.0,0.0,0.0,0.0,0.0,0.0,0.0,0.0,0.0,0.0,0.0,0.0,0.0,0.0,0.0,0.0,0.0,0.0,0.0,0.0,0.0,0.0,0.0,0.0,0.0,0.0,0.0,0.0,0.0,0.0,0.0,0.0,0.0,0.0,0.0,0.0,0.0,0.0,0.0,0.0,0.0,0.0,0.0,0.0,0.0,0.0,0.0,0.0,0.0,0.0,0.0,0.0,0.0,0.0,0.0,0.0,0.0,0.0,0.0,0.0,0.0,3.77,3.7315,3.7161,3.7161,3.7161,3.7161,0.0,0.0,0.0,0.0,0.0,0.0,0.0,0.0,0.0,0.0,0.0,0.0,0.0,0.0,0.0,0.0,0.0,0.0,0.0,0.0,0.0,0.0,0.0,0.0,0.0,0.0,0.0,0.0,0.0,0.0,0.0,0.0,0.0,0.0,0.0,0.0,0.0,0.0,0.0,0.0,0.0,0.0,0.0,0.0,0.0,0.0,0.0,0.0,0.0,0.0,0.0,0.0,0.0,0.0,0.0,0.0,0.0,0.0,0.0,0.0,0.0,0.0,0.0,0.0,0.0,0.0,0.0,0.0,0.0,0.0,0.0,0.0,0.0,0.0,0.0,0.0,0.0,0.0,0.0,0.0,0.0,0.0,0.0,0.0,0.0,0.0,0.0,0.0,0.0,0.0,0.0,0.0,0.0,0.0,0.0,0.0,0.0,0.0,0.0,0.0,0.0,0.0,0.0,0.0,0.0,0.0,0.0,0.0,0.0,3.6419,0.0,3.6342,3.6342,3.6342,3.6342,0.0,0.0,0.0,0.0,0.0,0.0,0.0,0.0,0.0,0.0,0.0,0.0,0.0,0.0,0.0,0.0,0.0,0.0,0.0,0.0,0.0,0.0,0.0,0.0,0.0,0.0,0.0,0.0,0.0,0.0,0.0,0.0,0.0,0.0,0.0,0.0,0.0,0.0,0.0,0.0,0.0,0.0,0.0,0.0,0.0,0.0,0.0,0.0,0.0,0.0,0.0,0.0,0.0,0.0,0.0,0.0,0.0,0.0,0.0,0.0,0.0,0.0,0.0,0.0,0.0,0.0,0.0,0.0,0.0,0.0,0.0,0.0,0.0,0.0,0.0,0.0,0.0,0.0,0.0,0.0,0.0,0.0,0.0,0.0,0.0,0.0,0.0,0.0,0.0,0.0,0.0,0.0,0.0,0.0,0.0,0.0,0.0,0.0,0.0,0.0,0.0,0.0,0.0,0.0,0.0,0.0,0.0,0.0,3.6537,3.5726,3.5765,3.5958,3.5688,3.5881,3.5753,0.0,0.0,0.0,0.0,0.0,0.0,0.0,0.0,0.0,0.0,0.0,0.0,0.0,0.0,0.0,0.0,0.0,0.0,0.0,0.0,0.0,0.0,0.0,0.0,0.0,0.0,0.0,0.0,0.0,0.0,0.0,0.0,0.0,0.0,0.0,0.0,0.0,0.0,0.0,0.0,0.0,0.0,0.0,0.0,0.0,0.0,0.0,0.0,0.0,0.0,0.0,0.0,0.0,0.0,0.0,0.0,0.0,0.0,0.0,0.0,0.0,0.0,0.0,0.0,0.0,0.0,0.0,0.0,0.0,0.0,0.0,0.0,0.0,0.0,0.0,0.0,0.0,0.0,0.0,0.0,0.0,0.0,0.0,0.0,0.0,0.0,0.0,0.0,0.0,0.0,0.0,0.0,0.0,0.0,0.0,0.0,0.0,0.0,0.0,0.0,0.0,0.0,0.0,0.0,0.0,0.0,0.0,0.0,0.0,3.8286,3.9329,3.9947,3.9946,3.9932,3.9392,0.0,0.0,0.0,0.0,0.0,0.0,0.0,0.0,0.0,0.0,0.0,0.0,0.0,0.0,0.0,0.0,0.0,0.0,0.0,0.0,0.0,0.0,0.0,0.0,0.0,0.0,0.0,0.0,0.0,0.0,0.0,0.0,0.0,0.0,0.0,0.0,0.0,0.0,0.0,0.0,0.0,0.0,0.0,0.0,0.0,0.0,0.0,0.0,0.0,0.0,0.0,0.0,0.0,0.0,0.0,0.0,0.0,0.0,0.0,0.0,0.0,0.0,0.0,0.0,0.0,0.0,0.0,0.0,0.0,0.0,0.0,0.0,0.0,0.0,0.0,0.0,0.0,0.0,0.0,0.0,0.0,0.0,0.0,0.0,0.0,0.0,0.0,0.0,0.0,0.0,0.0,0.0,0.0,0.0,0.0,0.0,0.0,0.0,0.0,0.0,0.0,0.0,0.0,0.0,0.0,0.0,0.0,0.0,0.0,4.2767,4.2524,4.2408,4.2405,4.2097,4.144,4.0422,0.0,0.0,0.0,0.0,0.0,0.0,0.0,0.0,0.0,0.0,0.0,0.0,0.0,0.0,0.0,0.0,0.0,0.0,0.0,0.0,0.0,0.0,0.0,0.0,0.0,0.0,0.0,0.0,0.0,0.0,0.0,0.0,0.0,0.0,0.0,0.0,0.0,0.0,0.0,0.0,0.0,0.0,0.0,0.0,0.0,0.0,0.0,0.0,0.0,0.0,0.0,0.0,0.0,0.0,0.0,0.0,0.0,0.0,0.0,0.0,0.0,0.0,0.0,0.0,0.0,0.0,0.0,0.0,0.0,0.0,0.0,0.0,0.0,0.0,0.0,0.0,0.0,0.0,0.0,0.0,0.0,0.0,0.0,0.0,0.0,0.0,0.0,0.0,0.0,0.0,0.0,0.0,0.0,0.0,0.0,0.0,0.0,0.0,0.0,0.0,0.0,0.0,0.0,0.0,0.0,0.0,0.0,0.0,4.8585,4.5554,4.4007,4.3866,4.3053,4.2421,0.0,0.0,0.0,0.0,0.0,0.0,0.0,0.0,0.0,0.0,0.0,0.0,0.0,0.0,0.0,0.0,0.0,0.0,0.0,0.0,0.0,0.0,0.0,0.0,0.0,0.0,0.0,0.0,0.0,0.0,0.0,0.0,0.0,0.0,0.0,0.0,0.0,0.0,0.0,0.0,0.0,0.0,0.0,0.0,0.0,0.0,0.0,0.0,0.0,0.0,0.0,0.0,0.0,0.0,0.0,0.0,0.0,0.0,0.0,0.0,0.0,0.0,0.0,0.0,0.0,0.0,0.0,0.0,0.0,0.0,0.0,0.0,0.0,0.0,0.0,0.0,0.0,0.0,0.0,0.0,0.0,0.0,0.0,0.0,0.0,0.0,0.0,0.0,0.0,0.0,0.0,0.0,0.0,0.0,0.0,0.0,0.0,0.0,0.0,0.0,0.0,0.0,0.0,0.0,0.0,0.0,0.0,0.0,0.0,5.1099,5.1576,5.1189,4.9939,4.901,4.768,0.0,0.0,0.0,0.0,0.0,0.0,0.0,0.0,0.0,0.0,0.0,0.0,0.0,0.0,0.0,0.0,0.0,0.0,0.0,0.0,0.0,0.0,0.0,0.0,0.0,0.0,0.0,0.0,0.0,0.0,0.0,0.0,0.0,0.0,0.0,0.0,0.0,0.0,0.0,0.0,0.0,0.0,0.0,0.0,0.0,0.0,0.0,0.0,0.0,0.0,0.0,0.0,0.0,0.0,0.0,0.0,0.0,0.0,0.0,0.0,0.0,0.0,0.0,0.0,0.0,0.0,0.0,0.0,0.0,0.0,0.0,0.0,0.0,0.0,0.0,0.0,0.0,0.0,0.0,0.0,0.0,0.0,0.0,0.0,0.0,0.0,0.0,0.0,0.0,0.0,0.0,0.0,0.0,0.0,0.0,0.0,0.0,0.0,0.0,0.0,0.0,0.0,0.0,0.0,0.0,0.0,0.0,0.0,5.1788,5.431,5.6075,5.6462,5.547,5.284,5.0442,0.0,0.0,0.0,0.0,0.0,0.0,0.0,0.0,0.0,0.0,0.0,0.0,0.0,0.0,0.0,0.0,0.0,0.0,0.0,0.0,0.0,0.0,0.0,0.0,0.0,0.0,0.0,0.0,0.0,0.0,0.0,0.0,0.0,0.0,0.0,0.0,0.0,0.0,0.0,0.0,0.0,0.0,0.0,0.0,0.0,0.0,0.0,0.0,0.0,0.0,0.0,0.0,0.0,0.0,0.0,0.0,0.0,0.0,0.0,0.0,0.0,0.0,0.0,0.0,0.0,0.0,0.0,0.0,0.0,0.0,0.0,0.0,0.0,0.0,0.0,0.0,0.0,0.0,0.0,0.0,0.0,0.0,0.0,0.0,0.0,0.0,0.0,0.0,0.0,0.0,0.0,0.0,0.0,0.0,0.0,0.0,0.0,0.0,0.0,0.0,0.0,0.0,0.0,0.0,0.0,0.0,0.0,0.0,5.4697,5.725,5.9011,5.99,5.9764,5.5238,5.1912,0.0,0.0,0.0,0.0,0.0,0.0,0.0,0.0,0.0,0.0,0.0,0.0,0.0,0.0,0.0,0.0,0.0,0.0,0.0,0.0,0.0,0.0,0.0,0.0,0.0,0.0,0.0,0.0,0.0,0.0,0.0,0.0,0.0,0.0,0.0,0.0,0.0,0.0,0.0,0.0,0.0,0.0,0.0,0.0,0.0,0.0,0.0,0.0,0.0,0.0,0.0,0.0,0.0,0.0,0.0,0.0,0.0,0.0,0.0,0.0,0.0,0.0,0.0,0.0,0.0,0.0,0.0,0.0,0.0,0.0,0.0,0.0,0.0,0.0,0.0,0.0,0.0,0.0,0.0,0.0,0.0,0.0,0.0,0.0,0.0,0.0,0.0,0.0,0.0,0.0,0.0,0.0,0.0,0.0,0.0,0.0,0.0,0.0,0.0,0.0,0.0,0.0,0.0,0.0,0.0,0.0,0.0,0.0,5.4735,5.725,5.9011,5.99,5.988,5.7521,5.5122,0.0,0.0,0.0,0.0,0.0,0.0,0.0,0.0,0.0,0.0,0.0,0.0,0.0,0.0,0.0,0.0,0.0,0.0,0.0,0.0,0.0,0.0,0.0,0.0,0.0,0.0,0.0,0.0,0.0,0.0,0.0,0.0,0.0,0.0,0.0,0.0,0.0,0.0,0.0,0.0,0.0,0.0,0.0,0.0,0.0,0.0,0.0,0.0,4.8123,0.0,0.0,0.0,0.0,0.0,0.0,0.0,0.0,0.0,0.0,0.0,0.0,0.0,0.0,0.0,0.0,0.0,0.0,0.0,0.0,0.0,0.0,0.0,0.0,0.0,0.0,0.0,0.0,0.0,0.0,0.0,0.0,0.0,0.0,0.0,0.0,0.0,0.0,0.0,0.0,0.0,0.0,0.0,0.0,0.0,0.0,0.0,0.0,0.0,0.0,0.0,0.0,0.0,0.0,0.0,0.0,0.0,0.0,0.0,5.6167,5.7869,5.9591,6.046,6.0422,5.8797,5.6515,0.0,0.0,0.0,0.0,0.0,0.0,0.0,0.0,0.0,0.0,0.0,0.0,0.0,0.0,0.0,0.0,0.0,0.0,0.0,0.0,0.0,0.0,0.0,0.0,0.0,0.0,0.0,0.0,0.0,0.0,0.0,0.0,0.0,0.0,0.0,0.0,0.0,0.0,0.0,0.0,0.0,0.0,0.0,0.0,0.0,0.0,0.0,0.0,0.0,0.0,0.0,0.0,0.0,0.0,0.0,0.0,0.0,0.0,0.0,0.0,0.0,0.0,0.0,0.0,0.0,0.0,0.0,0.0,0.0,0.0,0.0,0.0,0.0,0.0,0.0,0.0,0.0,0.0,0.0,0.0,0.0,0.0,0.0,0.0,0.0,0.0,0.0,0.0,0.0,0.0,0.0,0.0,0.0,0.0,0.0,0.0,0.0,0.0,0.0,0.0,0.0,0.0,0.0,0.0,0.0,0.0,0.0,5.5277,5.7791,5.8797,6.0306,6.1118,6.1079,5.9455,5.7095,5.4,0.0,0.0,0.0,0.0,0.0,0.0,0.0,0.0,0.0,0.0,0.0,0.0,0.0,0.0,0.0,0.0,0.0,0.0,0.0,0.0,0.0,0.0,0.0,0.0,0.0,0.0,0.0,0.0,0.0,0.0,0.0,0.0,0.0,0.0,0.0,0.0,0.0,0.0,4.6853,4.8524,0.0,0.0,0.0,0.0,0.0,0.0,0.0,0.0,5.2104,0.0,0.0,0.0,0.0,0.0,0.0,0.0,0.0,0.0,0.0,0.0,0.0,0.0,0.0,0.0,0.0,0.0,0.0,0.0,0.0,0.0,0.0,0.0,0.0,0.0,0.0,0.0,0.0,0.0,0.0,0.0,0.0,0.0,0.0,0.0,0.0,0.0,0.0,0.0,0.0,0.0,0.0,0.0,0.0,0.0,0.0,0.0,0.0,0.0,0.0,0.0,0.0,0.0,0.0,0.0,0.0,5.3072,5.5857,5.8101,5.9648,6.0615,6.1118,6.1041,5.9455,5.7637,5.5586,0.0,0.0,0.0,0.0,0.0,0.0,0.0,0.0,0.0,0.0,0.0,0.0,0.0,0.0,0.0,0.0,0.0,0.0,0.0,0.0,0.0,0.0,0.0,0.0,0.0,0.0,0.0,0.0,0.0,0.0,0.0,0.0,0.0,0.0,0.0,0.0,0.0,0.0,0.0,5.027,5.1327,0.0,0.0,0.0,0.0,0.0,0.0,0.0,0.0,5.2794,0.0,0.0,0.0,0.0,0.0,0.0,0.0,0.0,0.0,0.0,0.0,0.0,0.0,0.0,0.0,0.0,0.0,0.0,0.0,0.0,0.0,0.0,0.0,0.0,0.0,0.0,0.0,0.0,0.0,0.0,0.0,0.0,0.0,0.0,0.0,0.0,0.0,0.0,0.0,0.0,0.0,0.0,0.0,0.0,0.0,0.0,0.0,0.0,0.0,0.0,0.0,0.0,0.0,0.0,0.0,5.3536,5.6437,5.8604,5.988,6.0692,6.1118,6.1079,5.9455,5.7598,0.0,0.0,0.0,0.0,0.0,0.0,0.0,0.0,0.0,0.0,0.0,0.0,0.0,0.0,0.0,0.0,0.0,0.0,0.0,0.0,0.0,0.0,0.0,0.0,0.0,0.0,0.0,0.0,0.0,0.0,0.0,0.0,0.0,0.0,0.0,0.0,0.0,0.0,0.0,0.0,5.116,5.2504,5.2504,0.0,0.0,0.0,0.0,0.0,0.0,5.4633,5.4188,0.0,0.0,0.0,0.0,0.0,0.0,0.0,0.0,0.0,0.0,0.0,0.0,0.0,0.0,0.0,0.0,0.0,0.0,0.0,0.0,0.0,0.0,0.0,0.0,0.0,0.0,0.0,0.0,0.0,0.0,0.0,0.0,0.0,0.0,0.0,0.0,0.0,0.0,0.0,0.0,0.0,0.0,0.0,0.0,0.0,0.0,0.0,0.0,0.0,0.0,0.0,0.0,0.0,0.0,0.0,5.4271,5.7134,5.9106,6.0112,6.077,6.1118,6.1079,5.9455,5.7482,0.0,0.0,0.0,0.0,0.0,0.0,0.0,0.0,0.0,0.0,0.0,0.0,0.0,0.0,0.0,0.0,0.0,0.0,0.0,0.0,0.0,0.0,0.0,0.0,0.0,0.0,0.0,0.0,0.0,0.0,0.0,0.0,0.0,0.0,0.0,0.0,0.0,0.0,0.0,0.0,0.0,5.3587,5.3954,5.4395,0.0,0.0,0.0,0.0,5.5818,5.589,0.0,0.0,0.0,0.0,0.0,0.0,0.0,0.0,0.0,0.0,0.0,0.0,0.0,0.0,0.0,0.0,0.0,0.0,0.0,0.0,0.0,0.0,0.0,0.0,0.0,0.0,0.0,0.0,0.0,0.0,0.0,0.0,0.0,0.0,0.0,0.0,0.0,0.0,0.0,0.0,0.0,0.0,0.0,0.0,0.0,0.0,0.0,0.0,0.0,0.0,0.0,0.0,0.0,0.0,0.0,0.0,5.6708,5.7985,5.9377,6.0886,6.1041,6.1118,6.1079,5.9455,5.7714,0.0,0.0,0.0,0.0,0.0,0.0,0.0,0.0,0.0,0.0,0.0,0.0,0.0,0.0,0.0,0.0,0.0,0.0,0.0,0.0,0.0,0.0,0.0,0.0,0.0,0.0,0.0,0.0,0.0,0.0,0.0,0.0,0.0,0.0,0.0,0.0,0.0,0.0,0.0,0.0,0.0,5.4916,5.6442,5.6053,5.584,0.0,0.0,5.5857,5.6703,5.6819,0.0,0.0,0.0,0.0,0.0,0.0,0.0,0.0,0.0,0.0,0.0,0.0,0.0,0.0,0.0,0.0,0.0,0.0,0.0,0.0,0.0,0.0,0.0,0.0,0.0,0.0,0.0,0.0,0.0,0.0,0.0,0.0,0.0,0.0,0.0,0.0,0.0,0.0,0.0,0.0,0.0,0.0,0.0,0.0,0.0,0.0,0.0,0.0,0.0,0.0,0.0,0.0,0.0,0.0,0.0,5.4,5.7211,5.9068,6.0615,6.1814,6.2317,6.2356,6.1853,6.0228,5.8062,0.0,0.0,0.0,0.0,0.0,0.0,0.0,0.0,0.0,0.0,0.0,0.0,0.0,0.0,0.0,0.0,0.0,0.0,0.0,0.0,0.0,0.0,0.0,0.0,0.0,0.0,0.0,0.0,0.0,0.0,0.0,0.0,0.0,0.0,0.0,0.0,0.0,0.0,0.0,0.0,0.0,0.0,5.6906,5.7215,0.0,0.0,0.0,5.7695,5.9044,0.0,0.0,0.0,0.0,0.0,0.0,0.0,0.0,0.0,0.0,0.0,0.0,0.0,0.0,0.0,0.0,0.0,0.0,0.0,0.0,0.0,0.0,0.0,0.0,0.0,0.0,0.0,0.0,0.0,0.0,0.0,0.0,0.0,0.0,0.0,0.0,0.0,0.0,0.0,0.0,0.0,0.0,0.0,0.0,0.0,0.0,0.0,0.0,0.0,0.0,0.0,0.0,0.0,0.0,0.0,0.0,0.0,5.7907,6.0035,6.1621,6.2704,6.3362,6.3362,6.2743,6.1079,0.0,0.0,0.0,0.0,0.0,0.0,0.0,0.0,0.0,0.0,0.0,0.0,0.0,0.0,0.0,0.0,0.0,0.0,0.0,0.0,0.0,0.0,0.0,0.0,0.0,0.0,0.0,4.7906,0.0,0.0,0.0,0.0,0.0,0.0,0.0,0.0,0.0,0.0,0.0,0.0,0.0,0.0,5.548,5.7275,5.8394,5.905,0.0,0.0,5.9801,6.1074,6.0012,5.8852,0.0,0.0,0.0,0.0,0.0,0.0,0.0,0.0,0.0,0.0,0.0,0.0,0.0,0.0,0.0,0.0,0.0,0.0,0.0,0.0,0.0,0.0,0.0,0.0,0.0,0.0,0.0,0.0,0.0,0.0,0.0,0.0,0.0,0.0,0.0,0.0,0.0,0.0,0.0,0.0,0.0,0.0,0.0,0.0,0.0,0.0,0.0,0.0,0.0,0.0,0.0,0.0,0.0,0.0,0.0,5.9571,6.0654,6.193,6.3516,6.3671,6.3671,6.3594,6.193,6.019,0.0,0.0,0.0,0.0,0.0,0.0,0.0,0.0,0.0,0.0,0.0,0.0,0.0,0.0,0.0,0.0,0.0,0.0,0.0,0.0,0.0,0.0,0.0,0.0,0.0,0.0,0.0,0.0,0.0,0.0,0.0,0.0,0.0,0.0,0.0,0.0,0.0,0.0,0.0,0.0,0.0,5.6406,5.8182,5.9803,6.0825,0.0,0.0,6.2,6.2078,6.1383,6.0264,5.8682,0.0,0.0,0.0,0.0,0.0,0.0,0.0,0.0,0.0,0.0,0.0,0.0,0.0,0.0,0.0,0.0,0.0,0.0,0.0,0.0,0.0,0.0,0.0,0.0,0.0,0.0,0.0,0.0,0.0,0.0,0.0,0.0,0.0,0.0,0.0,0.0,0.0,0.0,0.0,0.0,0.0,0.0,0.0,0.0,0.0,0.0,0.0,0.0,0.0,0.0,0.0,0.0,0.0,5.6714,5.994,6.1862,6.343,6.4588,6.5131,6.5153,6.4593,6.343,6.1729,0.0,0.0,0.0,0.0,0.0,0.0,0.0,0.0,0.0,0.0,0.0,0.0,0.0,0.0,0.0,0.0,0.0,0.0,0.0,0.0,0.0,0.0,0.0,0.0,0.0,0.0,0.0,0.0,5.3088,5.388,5.334,0.0,0.0,0.0,0.0,0.0,0.0,0.0,0.0,0.0,0.0,5.8143,5.9843,6.1582,0.0,0.0,6.251,6.249,6.3031,6.1929,6.0789,6.0171,5.7892,0.0,0.0,0.0,0.0,0.0,0.0,0.0,0.0,0.0,0.0,0.0,0.0,0.0,0.0,0.0,0.0,0.0,0.0,0.0,0.0,0.0,0.0,0.0,0.0,0.0,0.0,0.0,0.0,0.0,0.0,0.0,0.0,0.0,0.0,0.0,0.0,0.0,0.0,0.0,0.0,0.0,0.0,0.0,0.0,0.0,0.0,0.0,0.0,0.0,0.0,0.0,0.0,5.7528,6.0395,6.2726,6.4464,6.5581,6.6189,6.6189,6.5537,6.4745,6.3278,0.0,0.0,0.0,0.0,0.0,0.0,0.0,0.0,0.0,0.0,0.0,0.0,0.0,0.0,0.0,0.0,0.0,0.0,0.0,0.0,0.0,0.0,0.0,0.0,0.0,0.0,0.0,0.0,5.3953,5.4071,5.2702,0.0,0.0,0.0,0.0,0.0,0.0,0.0,0.0,0.0,0.0,5.9456,6.0886,6.2588,6.3594,6.3362,6.3013,6.3013,6.3594,6.2453,6.137,6.1138,0.0,0.0,0.0,0.0,0.0,0.0,0.0,0.0,0.0,0.0,0.0,0.0,0.0,0.0,0.0,0.0,0.0,0.0,0.0,0.0,0.0,0.0,0.0,0.0,0.0,0.0,0.0,0.0,0.0,0.0,4.3463,0.0,0.0,0.0,0.0,0.0,0.0,0.0,0.0,0.0,0.0,0.0,0.0,0.0,0.0,0.0,0.0,0.0,0.0,0.0,0.0,0.0,0.0,5.791,6.1318,6.3093,6.483,6.6387,6.6504,6.6504,6.6465,6.5661,6.4765,6.3804,0.0,0.0,0.0,0.0,0.0,0.0,0.0,0.0,0.0,0.0,0.0,0.0,0.0,0.0,0.0,0.0,0.0,0.0,0.0,0.0,0.0,0.0,0.0,0.0,0.0,0.0,5.4503,5.4684,5.3683,0.0,0.0,0.0,0.0,0.0,0.0,0.0,0.0,0.0,0.0,5.9243,6.019,6.1041,6.2588,6.34,6.2588,6.3129,6.3632,6.3671,6.2897,6.2085,0.0,0.0,0.0,0.0,0.0,0.0,0.0,0.0,0.0,0.0,0.0,0.0,0.0,0.0,0.0,0.0,0.0,0.0,0.0,0.0,0.0,0.0,0.0,0.0,0.0,0.0,0.0,4.9136,4.8963,0.0,0.0,0.0,0.0,0.0,0.0,0.0,0.0,0.0,0.0,0.0,5.475,5.475,0.0,0.0,0.0,0.0,0.0,0.0,0.0,0.0,0.0,0.0,0.0,0.0,5.8576,6.1489,6.3798,6.5533,6.6663,6.7248,6.7521,6.7491,6.7764,6.6946,6.4896,0.0,0.0,0.0,0.0,0.0,0.0,0.0,0.0,0.0,0.0,0.0,0.0,0.0,0.0,0.0,0.0,0.0,0.0,0.0,0.0,0.0,0.0,0.0,0.0,0.0,5.4155,0.0,0.0,0.0,0.0,0.0,0.0,0.0,0.0,0.0,0.0,0.0,5.6809,5.9127,6.019,6.1195,6.2627,6.3323,6.3594,0.0,0.0,0.0,0.0,0.0,0.0,0.0,0.0,0.0,0.0,0.0,0.0,0.0,0.0,5.6943,5.4684,5.4241,5.4205,5.4223,0.0,0.0,0.0,0.0,0.0,0.0,0.0,0.0,0.0,0.0,0.0,0.0,0.0,0.0,5.2506,0.0,5.0984,0.0,0.0,0.0,0.0,0.0,0.0,0.0,0.0,5.574,5.6601,5.7418,5.7692,5.7851,0.0,5.8153,5.7118,0.0,0.0,0.0,0.0,0.0,0.0,0.0,0.0,5.9581,6.25,6.4786,6.6532,6.7643,6.8267,6.8541,6.8507,6.9003,6.8344,6.6283,6.4531,6.2536,0.0,0.0,0.0,0.0,0.0,0.0,0.0,0.0,0.0,0.0,0.0,0.0,0.0,0.0,0.0,0.0,0.0,0.0,0.0,0.0,0.0,0.0,0.0,5.5316,0.0,0.0,0.0,0.0,0.0,0.0,0.0,0.0,0.0,5.5243,5.7175,5.9186,6.1002,6.166,6.2433,6.3555,0.0,0.0,0.0,0.0,0.0,0.0,0.0,6.2201,6.2781,6.2665,6.2743,6.3555,6.3245,6.2859,6.2897,0.0,0.0,5.841,5.7773,5.7755,5.7794,5.7794,5.7755,5.7794,5.8237,5.8874,0.0,0.0,0.0,0.0,0.0,0.0,0.0,0.0,5.4948,5.4864,0.0,5.4025,0.0,0.0,0.0,0.0,0.0,5.3621,0.0,0.0,5.7577,5.8384,5.9295,6.0159,6.0529,6.0585,6.1367,6.1718,6.1475,5.827,0.0,0.0,0.0,0.0,0.0,0.0,6.09,6.4229,6.611,6.7765,6.9289,6.9406,6.9445,6.9481,6.9425,6.9009,6.8085,6.6498,6.4761,6.3025,6.0475,0.0,0.0,0.0,0.0,0.0,0.0,0.0,0.0,0.0,0.0,0.0,0.0,0.0,0.0,0.0,0.0,0.0,0.0,0.0,0.0,5.6824,0.0,0.0,0.0,0.0,0.0,0.0,0.0,0.0,0.0,0.0,5.8565,6.0074,6.1776,6.3478,0.0,0.0,0.0,0.0,6.3671,6.3671,6.3671,6.371,6.371,6.371,6.3748,6.3826,0.0,0.0,6.6147,6.6263,6.6224,6.6263,6.6185,6.5218,6.2008,6.135,6.1273,6.1273,6.1273,6.1273,6.1273,6.1389,6.166,5.6354,0.0,0.0,0.0,0.0,5.5465,5.6443,5.6756,5.7617,5.785,5.7576,5.6948,0.0,0.0,0.0,0.0,0.0,0.0,5.7967,6.0192,6.049,6.1373,6.2813,6.3047,6.3174,6.3181,6.3428,6.3554,6.3508,6.2538,6.0657,5.8036,0.0,0.0,0.0,0.0,6.2998,6.5191,6.7498,6.8906,6.9372,6.9997,7.0624,7.1249,7.1239,7.0831,6.9946,6.9387,6.8297,6.6585,6.4545,0.0,0.0,0.0,0.0,0.0,0.0,0.0,0.0,0.0,0.0,0.0,0.0,0.0,0.0,0.0,0.0,0.0,0.0,0.0,5.7753,5.7521,5.6747,0.0,0.0,0.0,0.0,0.0,0.0,0.0,0.0,0.0,6.1118,6.1737,6.2665,0.0,0.0,6.3903,6.4522,6.4097,6.3671,6.3671,6.3671,0.0,0.0,6.4599,6.5025,6.6224,6.7152,6.781,6.8042,6.8081,6.8042,6.8042,6.8042,6.7694,6.6843,6.5566,6.4793,6.4754,6.4754,6.4754,6.4754,6.5218,6.5682,5.9699,5.7093,5.7447,5.6981,5.6241,5.8038,5.8821,5.8899,5.9759,5.9954,5.9602,5.9448,5.9179,5.8788,5.8079,0.0,0.0,0.0,6.0699,6.2244,6.2584,6.3321,6.4297,6.4648,6.4804,6.4843,6.5137,6.5307,6.5351,6.5658,6.4605,6.2226,0.0,0.0,6.0691,6.2888,6.4882,6.6591,6.8781,7.0106,7.0444,7.0952,7.147,7.1951,7.1991,7.1751,7.1233,7.0826,7.0135,6.9077,6.7314,6.5272,0.0,0.0,0.0,0.0,0.0,0.0,0.0,0.0,0.0,0.0,0.0,5.1409,0.0,0.0,0.0,0.0,5.7327,5.8681,5.9493,5.8836,0.0,0.0,0.0,0.0,0.0,0.0,0.0,5.9106,6.0538,6.2046,6.3671,6.4213,6.4561,6.4948,6.4831,6.487,6.5412,0.0,6.5334,6.5682,6.5721,6.5915,6.6417,6.6495,6.6959,6.8274,6.8932,6.9435,6.9744,6.9783,6.9783,6.9783,6.9783,6.9783,6.9821,6.8893,6.7965,6.7384,6.723,6.723,6.723,6.7655,6.8003,6.2657,6.1759,6.0159,5.9495,5.949,6.0349,6.0739,6.0778,6.1564,6.1447,6.0778,6.1525,6.146,6.0774,6.156,0.0,6.1952,6.2727,6.3142,6.3238,6.4062,6.4453,6.4531,6.5312,6.5702,6.5702,6.6536,6.6934,6.7018,6.7799,6.7828,6.7029,6.4719,6.3437,6.3398,6.496,6.6594,6.8156,6.984,7.1128,7.1948,7.1987,7.1997,7.1978,7.195,7.1875,7.1875,7.1041,7.0587,7.0465,6.8904,6.7214,6.5427,0.0,0.0,0.0,0.0,0.0,0.0,0.0,0.0,0.0,0.0,0.0,0.0,0.0,0.0,0.0,5.9184,0.0,6.1234,6.0576,0.0,0.0,0.0,5.7946,5.8797,5.8952,5.9919,6.2356,0.0,0.0,6.6108,6.7075,6.7036,6.5489,6.5953,6.6417,6.6417,6.7075,6.7887,6.8468,6.8738,6.8777,6.87,6.8854,6.9164,6.9899,7.0092,7.0363,7.1021,7.1214,7.1253,7.1175,7.1291,7.1253,7.1253,7.1098,7.0827,6.9241,6.9009,6.9009,6.9009,6.9048,6.9087,6.3867,6.3672,6.3243,6.2696,6.2149,6.3008,6.336,6.3399,6.3594,6.3555,6.3399,6.3594,6.356,6.3369,6.3607,6.3685,6.3685,6.3915,6.434,6.496,6.5194,6.5624,6.6209,6.6444,6.6522,6.6561,6.7386,6.7815,6.7859,6.8674,6.8986,6.8786,6.8171,6.7242,6.6071,6.7004,6.8015,6.9093,7.0152,7.1128,7.1948,7.1987,7.1993,7.1997,7.1338,7.1002,7.1013,7.0195,6.9718,6.9659,6.9204,6.8132,6.6385,6.4221,0.0,0.0,0.0,0.0,0.0,0.0,0.0,0.0,0.0,5.5548,5.6631,0.0,6.019,0.0,6.1776,6.2859,6.3052,6.2317,0.0,0.0,6.0615,6.0538,6.1389,6.2085,6.2975,6.4213,6.5682,6.6766,6.7152,6.7965,6.8352,6.7965,6.8042,6.8197,6.8197,6.8352,6.8545,6.8777,6.8854,6.9009,6.9628,7.0286,7.0711,7.0943,7.0982,7.1059,7.1253,7.1291,7.1291,7.1291,7.1291,7.1291,7.1291,7.1291,7.1175,7.0789,7.0711,7.0711,7.0711,7.0672,7.0672,6.4882,6.4921,6.5273,6.5116,6.4687,6.4414,6.4297,6.4297,6.4297,6.4297,6.4336,6.4726,6.5077,6.5429,6.5429,6.5429,6.539,6.5429,6.5663,6.6131,6.6131,6.66,6.7381,6.7381,6.7576,6.7966,6.8435,6.8669,6.8747,6.9567,6.9996,6.9996,7.0348,6.9684,6.8083,6.8474,6.8747,6.8825,7.0074,7.1128,7.1948,7.1597,7.1402,7.1402,7.0582,7.0123,7.0139,6.9644,6.9414,6.9406,6.9351,6.8736,6.7344,6.56,6.3223,0.0,0.0,0.0,0.0,0.0,0.0,0.0,0.0,0.0,0.0,0.0,6.2008,6.2781,6.3362,6.3864,6.4251,6.3516,6.3129,6.3516,6.3129,6.3323,6.4522,6.5102,6.5721,6.6572,6.781,6.8622,6.8622,6.9396,6.9938,6.9899,6.9938,6.9783,6.9473,6.9667,6.9899,6.9899,6.9899,7.0054,7.0518,7.0982,7.1291,7.1291,7.1291,7.1291,7.1291,7.1291,7.1291,7.1291,7.1291,7.1291,7.1291,7.1291,7.1291,7.1291,7.1291,7.1291,7.1291,7.1291,7.1291,6.5936,6.5975,6.6561,6.6795,6.6678,6.5234,6.4609,6.4609,6.4609,6.4609,6.4687,6.5429,6.6131,6.6795,6.6795,6.6873,6.6951,6.699,6.7029,6.7107,6.7146,6.7537,6.8239,6.8239,6.8669,6.9372,6.9489,6.9567,6.9606,7.0465,7.0855,7.0894,7.1636,7.1167,6.9645,6.9567,6.9137,6.8318,6.9996,7.1245,7.1948,7.1167,7.0699,7.066,6.9762,6.9176,6.9059,6.9046,6.9021,6.8906,6.9135,6.8843,6.7966,6.6455,6.4481,0.0,6.0268,0.0,0.0,0.0,0.0,0.0,0.0,0.0,0.0,6.2259,6.3613,6.5354,6.4812,6.4696,6.5432,6.4793,6.4638,6.5373,6.5489,6.6069,6.7462,6.7771,6.8119,6.8893,6.9667,7.017,7.017,7.0827,7.1291,7.1175,7.1137,7.0905,7.0402,7.075,7.1175,7.1291,7.1291,7.1098,7.1214,7.1253,7.1291,7.1291,7.1291,7.1291,7.1291,7.1291,7.1291,7.1291,7.1291,7.1291,7.1291,7.1291,7.1291,7.1291,7.1291,7.1291,7.1291,7.1291,7.1291,6.7615,6.7576,6.7029,6.6795,6.6756,6.6483,6.6327,6.6327,6.6327,6.6327,6.6327,6.6483,6.6639,6.6795,6.6795,6.7185,6.7849,6.7849,6.8239,6.8903,6.8903,6.8981,6.9137,6.9137,6.9255,6.945,7.0113,7.0465,7.0465,7.1324,7.1753,7.1753,7.1909,7.148,7.0504,0.0,0.0,0.0,7.0855,7.1831,7.1948,7.1167,7.0699,7.066,6.9137,0.0,6.7342,6.7312,6.6973,6.6404,6.7617,0.0,0.0,0.0,0.0,0.0,0.0,0.0,0.0,0.0,0.0,0.0,6.4279,6.4233,6.2482,6.4343,6.6358,6.7986,6.8026,6.8007,6.8162,6.7947,6.7887,6.8042,6.8081,6.8236,6.8584,6.9125,6.9589,6.9744,7.0518,7.1021,7.1021,7.1214,7.1291,7.1291,7.1291,7.1253,7.1059,7.1175,7.1291,7.1291,7.1291,7.1291,7.1291,7.1291,7.1291,7.1291,7.1291,7.1291,7.1291,7.1291,7.1291,7.1291,7.1291,7.1291,7.1291,7.1291,7.1291,7.1291,7.1291,7.1291,7.1291,7.1291,7.1291,6.8747,0.0,6.8279,6.8083,0.0,6.8083,6.8083,6.8044,6.7615,6.7693,6.8083,6.8083,6.8083,6.8083,6.8083,6.8318,6.8747,6.8747,6.8981,6.9372,6.9411,6.9645,7.0035,7.0035,7.027,7.0699,7.1128,7.1324,7.1363,7.1792,7.1987,7.1987,7.1987,7.1558,7.0738,7.0699,7.0504,7.0074,7.0933,7.1558,7.1948,7.1167,7.0504,7.0035,0.0,0.0,0.0,0.0,0.0,0.0,0.0,0.0,0.0,0.0,0.0,6.6199,6.5597,6.5134,6.4764,6.5461,6.6088,6.6477,6.7334,6.7047,6.5219,6.6694,6.8036,6.8851,6.8972,6.8935,6.8898,6.8859,6.8991,6.9319,6.9396,6.9551,6.9976,7.0402,7.0634,7.0672,7.1021,7.1291,7.1291,7.1291,7.1291,7.1291,7.1291,7.1291,7.1291,7.1291,7.1291,7.1291,7.1291,7.1291,7.1291,7.1291,7.1291,7.1291,7.1291,7.1291,7.1291,7.1291,7.1291,7.1291,7.1291,7.1291,7.1291,7.1291,7.1291,7.1291,7.1291,7.1291,7.1291,7.1291,7.1291,6.9645,6.9606,6.945,6.9411,6.9411,6.9411,6.9489,6.9567,0.0,0.0,0.0,6.9411,6.9411,6.9411,6.9411,6.9489,6.9645,6.9645,6.9684,6.984,6.9879,7.023,7.0933,7.0933,7.1285,7.1987,7.1987,7.1987,7.1987,7.1987,7.1987,7.1987,7.1987,7.1636,7.0972,7.0933,7.0933,7.0933,7.0933,7.1285,7.1948,7.1167,7.0348,6.9645,6.8786,6.7927,6.7068,6.7185,6.7185,6.7029,6.7199,6.7601,6.8273,6.832,6.8314,6.8312,6.8284,6.8255,6.8234,6.8397,6.8807,6.9616,6.9684,6.9251,6.8317,6.8885,6.9313,6.9507,6.9461,6.9433,6.938,6.9363,6.9574,7.0191,7.0247,7.0518,7.1175,7.1291,7.1253,7.1291,7.1291,7.1291,7.1291,7.1291,7.1291,7.1291,7.1291,7.1291,7.1291,7.1291,7.1291,7.1291,7.1291,7.1291,7.1291,7.1291,7.1291,7.1291,7.1291,7.1291,7.1291,7.1291,7.1291,7.1291,7.1291,7.1291,7.1291,7.1291,7.1291,7.1291,7.1291,7.1291,7.1291,7.1291,7.1291,7.0504,7.0465,6.9723,6.9411,6.9411,6.9411,6.9801,7.0426,6.9567,6.9294,6.9411,6.9411,6.9411,6.9411,6.9411,6.9801,7.0504,7.0504,7.0933,7.1636,7.1636,7.1714,7.1831,7.1831,7.187,7.1987,7.1987,7.1987,7.1987,7.1987,7.1987,7.1987,7.1987,7.1909,7.1831,7.1831,7.1831,7.1831,7.1831,7.187,7.1987,7.1128,7.066,7.0504,6.9684,6.8825,6.7966,6.863,6.8708,6.7966,6.8635,6.9103,6.9186,6.9208,6.9216,6.9217,6.9213,6.9195,6.9195,6.9829,7.0614,7.1417,7.1516,7.1107,7.0247,7.0197,7.0614,7.129,7.1223,7.1225,7.1141,7.101,7.0968,7.1081,7.1098,7.1175,7.1291,7.1291,7.1291,7.1291,7.1291,7.1291,7.1291,7.1291,7.1291,7.1291,7.1291,7.1291,7.1291,7.1291,7.1291,7.1291,7.1291,7.1291,7.1291,7.1291,7.133,7.1291,7.133,7.1446,7.1523,7.1523,7.1523,7.1369,7.1485,7.1446,7.1407,7.1291,7.1446,7.1485,7.1523,7.1446,7.1485,7.1485,7.1407,7.1402,7.1363,7.0972,7.0816,7.0816,7.0816,7.105,7.1363,7.0972,7.0816,7.0816,7.0816,7.0816,7.0816,7.0816,7.1011,7.1402,7.1402,7.1597,7.1987,7.1987,7.1987,7.1987,7.1987,7.1987,7.1987,7.1987,7.1987,7.1987,7.1987,7.1987,7.1987,7.1987,7.1987,7.1987,7.1987,7.1987,7.1987,7.1987,7.1987,7.1987,7.1597,7.1167,7.0699,7.0309,6.9723,6.8825,6.9176,6.9215,6.8825,6.9176,6.9606,7.0074,7.0089,7.0331,7.0761,7.0819,7.0819,7.0819,7.1161,7.1529,7.193,7.1963,7.1767,7.1345,7.1277,7.1438,7.1819,7.1755,7.1679,7.1606,7.1529,7.1436,7.1355,7.1313,7.1291,7.1291,7.1291,7.1291,7.1291,7.1291,7.1291,7.1291,7.1291,7.1291,7.1291,7.1291,7.1291,7.133,7.1717,7.1794,7.1407,7.1291,7.1291,7.1291,7.1291,7.1485,7.191,7.1988,7.222,7.2568,7.2684,7.2684,7.2684,7.2684,7.2723,7.2684,7.2723,7.2723,7.2723,7.2723,7.2723,7.2684,7.2684,7.2375,7.1987,7.1987,7.1987,7.1987,7.1987,7.1987,7.1987,7.1987,7.1987,7.1987,7.1987,7.1987,7.1987,7.1987,7.1987,7.1987,7.1987,7.1987,7.1987,7.1987,7.1987,7.1987,7.1987,7.1987,7.1987,7.1987,7.1987,7.1987,7.1987,7.1987,7.1987,7.1987,7.1987,7.1987,7.1987,7.1987,7.1987,7.1987,7.1987,7.1987,7.1987,7.1987,7.1675,7.105,7.1011,7.066,7.0035,6.9996,6.9996,6.9957,6.9996,7.0309,7.0933,7.1011,7.1285,7.1914,7.201,7.1984,7.1988,7.1992,7.1984,7.2002,7.1993,7.1997,7.201,7.1953,7.193,7.1916,7.1876,7.1778,7.1679,7.1575,7.1493,7.1396,7.1334,7.1291,7.1291,7.1291,7.1291,7.1313,7.1313,7.1313,7.1313,7.1313,7.1313,7.1291,7.1446,7.1601,7.1678,7.2336,7.2529,7.2142,7.1872,7.1988,7.1872,7.1949,7.222,7.28,7.2877,7.3148,7.3612,7.3844,7.3844,7.3767,7.3806,7.3728,7.3844,7.3844,7.3767,7.3728,7.369,7.3767,7.3728,7.3728,7.3496,7.1987,7.1987,7.1987,7.1987,7.1987,7.1987,7.1987,7.1987,7.1987,7.1987,7.1987,7.1987,7.1987,7.1987,7.1987,7.1987,7.1987,7.1987,7.1987,7.1987,7.1987,7.1987,7.1987,7.1987,7.1987,7.1987,7.1987,7.1987,7.1987,7.1987,7.1987,7.1987,7.1987,7.1987,7.1987,7.1987,7.1987,7.1987,7.1987,7.1987,7.1987,7.1987,7.1948,7.187,7.187,7.187,7.1675,7.1792,7.1753,7.1753,7.1714,7.1753,7.187,7.187,7.1909,7.1987,7.1993,7.2006,7.1986,7.1991,7.1991,7.1986,7.2006,7.1993,7.1993,7.1967,7.2006,7.1987,7.1963,7.1819,7.1693,7.1575,7.1511,7.1416,7.1334,7.1291,7.1291,7.1291,7.1352,7.1355,7.1376,7.1376,7.1415,7.1376,7.1394,7.1468,7.1971,7.2375,7.2568,7.3226,7.3767,7.3651,7.3651,7.3612,7.3535,7.3612,7.3535,7.3728,7.3767,7.3922,7.4077,7.4115,7.3922,7.4386,7.4115,7.4154,7.4077,7.3883,7.4038,7.427,7.4193,7.3999,7.3922,7.4038,7.3922,7.1987,7.1987,7.1987,7.1987,7.1987,7.1987,7.1987,7.1987,7.1987,7.1987,7.1987,7.1987,7.1987,7.1987,7.1987,7.1987,7.1987,7.1987,7.1987,7.1987,7.1987,7.1987,7.1987,7.1987,7.1987,7.1987,7.1987,7.1987,7.1987,7.1987,7.1987,7.1987,7.1987,7.1987,7.1987,7.1987,7.1987,7.1987,7.1987,7.1987,7.1987,7.1987,7.1987,7.1987,7.1987,7.1987,7.1987,7.1987,7.1987,7.1987,7.1987,7.1987,7.1987,7.1987,7.1987,7.1987,7.1987,7.1993,7.2006,7.1975,7.1981,7.199,7.199,7.1978,7.1993,7.1981,7.1986,7.201,7.1948,7.1909,7.1817,7.1718,7.1575,7.1529,7.1475,7.1435,7.1435,7.1416,7.1455,7.1474,7.1493,7.1511,7.1511,7.1493,7.1669,7.1996,7.2496,7.2883,7.3303,7.4077,7.4541,7.4657,7.5005,7.485,7.4231,7.3883,7.4115,7.4463,7.4618,7.4695,7.5198,7.5353,7.5392,7.5353,7.5276,7.5276,7.5469,7.5353,7.5392,7.5276,7.5353,7.5353,7.5392,7.5392,7.5392,7.1987,7.1987,7.1987,7.1987,7.1987,7.1987,7.1987,7.1987,7.1987,7.1987,7.1987,7.1987,7.1987,7.1987,7.1987,7.1987,7.1987,7.1987,7.1987,7.1987,7.1987,7.1987,7.1987,7.1987,7.1987,7.1987,7.1987,7.1987,7.1987,7.1987,7.1987,7.1987,7.1987,7.1987,7.1987,7.1987,7.1987,7.1987,7.1987,7.2104,7.2339,7.2339,7.2221,7.2026,7.1987,7.1987,7.1987,7.1987,7.1987,7.1987,7.1987,7.1987,7.1987,7.1987,7.1987,7.1987,7.1987,7.1987,7.1987,7.1987,7.1997,7.201,7.1986,7.1992,7.1981,7.1989,7.199,7.1981,7.2002,7.1969,7.1915,7.1794,7.1665,7.1645,7.1547,7.1532,7.1511,7.1547,7.1542,7.1559,7.1591,7.1762,7.1917,7.2002,7.2207,7.2909,7.3335,7.3566,7.4221,7.4973,7.5492,7.5492,7.6034,7.5856,7.4811,7.4734,7.4928,7.516,7.5469,7.5662,7.6281,7.632,7.6359,7.5895,7.6281,7.632,7.6049,7.6204,7.632,7.6359,7.632,7.6281,7.6165,7.632,7.6359,7.1987,7.1987,7.1987,7.1987,7.1987,7.1987,7.1987,7.1987,7.1987,7.1987,7.1987,7.1987,7.1987,7.1987,7.1987,7.1987,7.1987,7.1987,7.1987,7.1987,7.1987,7.1987,7.1987,7.1987,7.1987,7.1987,7.1987,7.1987,7.1987,7.1987,7.1987,7.1987,7.1987,7.1987,7.1987,7.1987,7.2026,7.2065,7.2104,7.2417,7.3158,7.3236,7.2846,7.2221,7.2065,7.2143,7.2065,7.2026,7.2065,7.2026,7.2104,7.2065,7.2065,7.2026,7.2065,7.2026,7.1987,7.1987,7.1987,7.1987,7.1987,7.1993,7.1997,7.2014,7.1992,7.1992,7.1991,7.1981,7.2002,7.1976,7.1932,7.1788,7.1731,7.1718,7.1645,7.163,7.1568,7.1622,7.1612,7.1706,7.1797,7.2198,7.2809,7.2871,7.3216,7.3929,7.4709,7.5197,7.5314,7.5911,7.6256,7.6311,7.6366,7.632,7.6243,7.5895,7.6011,7.6127,7.6049,7.6281,7.632,7.6397,7.6397,7.6397,7.6397,7.6397,7.6397,7.6397,7.6359,7.6397,7.6397,7.6397,7.6397,7.6397,7.6397,7.1987,7.1987,7.1987,7.1987,7.1987,7.1987,7.1987,7.1987,7.1987,7.1987,7.1987,7.1987,7.1987,7.1987,7.1987,7.1987,7.1987,7.1987,7.1987,7.1987,7.1987,7.1987,7.1987,7.1987,7.1987,7.1987,7.1987,7.1987,7.1987,7.1987,7.1987,7.1987,7.1987,7.1987,7.1987,7.1987,7.226,7.2768,7.2846,7.3236,7.3978,7.4056,7.39,7.3627,7.3588,7.3588,7.3588,7.3588,7.3627,7.3588,7.3588,7.3588,7.3549,7.3119,7.2573,7.2065,7.1987,7.1987,7.1987,7.1987,7.1987,7.1987,7.1987,7.1993,7.1975,7.1989,7.1992,7.1989,7.201,7.1982,7.1969,7.1885,7.1809,7.1817,7.1782,7.1706,7.1731,7.1782,7.1806,7.1905,7.2277,7.2979,7.3631,7.3882,7.4197,7.4923,7.5308,7.5649,7.6104,7.6458,7.6555,7.6534,7.651,7.6466,7.6466,7.6382,7.6359,7.6359,7.6359,7.6359,7.6397,7.6397,7.6397,7.6397,7.6397,7.6397,7.6397,7.6397,7.6397,7.6397,7.6397,7.6397,7.6397,7.6552,7.6514,7.2651,7.2417,7.2417,7.226,7.1987,7.1987,7.1987,7.1987,7.1987,7.1987,7.1987,7.1987,7.1987,7.1987,7.1987,7.1987,7.1987,7.1987,7.1987,7.1987,7.1987,7.1987,7.1987,7.1987,7.1987,7.1987,7.1987,7.1987,7.1987,7.1987,7.1987,7.1987,7.1987,7.2143,7.2378,7.2417,7.2846,7.3549,7.3705,7.4095,7.4798,7.4915,7.5071,7.5305,7.5345,7.5032,7.4564,7.4486,7.4486,7.4486,7.4486,7.4486,7.4447,7.3978,7.3432,7.2885,7.2846,7.2807,7.2807,7.2807,7.269,7.2456,7.2417,7.2339,7.2071,7.1978,7.2146,7.2305,7.2416,7.2479,7.2773,7.2834,7.2548,7.2088,7.1867,7.1965,7.2238,7.2326,7.25,7.2869,7.3314,7.3977,7.4671,7.4819,7.5239,7.5941,7.6025,7.6261,7.6621,7.6699,7.6669,7.6651,7.6575,7.6531,7.6488,7.6466,7.6421,7.6421,7.6397,7.6397,7.6436,7.6397,7.6436,7.6436,7.6436,7.6397,7.6397,7.6397,7.6436,7.6475,7.6436,7.6475,7.663,7.6862,7.7055,7.3978,7.3354,7.3315,7.2885,7.226,7.2143,7.2065,7.2104,7.2026,7.1987,7.1987,7.1987,7.1987,7.1987,7.1987,7.1987,7.1987,7.1987,7.1987,7.1987,7.1987,7.1987,7.1987,7.1987,7.1987,7.1987,7.1987,7.1987,7.1987,7.2104,7.2143,7.2065,7.2221,7.2651,7.3315,7.3315,7.3705,7.433,7.4525,7.4954,7.5696,7.5813,7.6164,7.6828,7.6906,7.6203,7.472,7.4642,7.4759,7.4681,7.4681,7.4564,7.4642,7.4525,7.4486,7.433,7.4369,7.4408,7.4369,7.433,7.39,7.3432,7.3315,7.3002,7.2456,7.2305,7.2557,7.3122,7.332,7.3591,7.4232,7.4349,7.3807,7.2383,7.2275,7.2565,7.3111,7.3306,7.3633,7.4324,7.4603,7.4954,7.5618,7.5852,7.608,7.662,7.6833,7.6839,7.6855,7.6833,7.6816,7.6754,7.6687,7.6614,7.6573,7.6488,7.6482,7.6459,7.6397,7.6397,7.6475,7.6514,7.6746,7.6823,7.7132,7.7171,7.721,7.721,7.7055,7.7055,7.6862,7.6978,7.7365,7.7751,7.8061,7.4369,7.4134,7.4134,7.3978,7.3666,7.3158,7.2885,7.2807,7.23,7.1987,7.1987,7.1987,7.1987,7.1987,7.1987,7.2026,7.1987,7.1987,7.1987,7.2026,7.2026,7.1987,7.1987,7.1987,7.1987,7.1987,7.1987,7.1987,7.2143,7.2612,7.2885,7.2963,7.3432,7.3822,7.4095,7.4173,7.4564,7.5305,7.5384,7.5813,7.6594,7.6672,7.6828,7.7062,7.7101,7.6789,7.632,7.6281,7.6281,7.6242,7.6281,7.6047,7.554,7.5423,7.511,7.4564,7.4486,7.4486,7.4525,7.4525,7.4486,7.4173,7.4134,7.4017,7.3783,7.3705,7.3867,7.4162,7.4207,7.4335,7.4529,7.4601,7.4363,7.3849,7.3764,7.3759,7.4111,7.4228,7.4623,7.5291,7.549,7.588,7.6466,7.6661,7.6739,7.697,7.7073,7.7082,7.7028,7.6995,7.6955,7.6909,7.683,7.6816,7.6863,7.706,7.7194,7.7091,7.6931,7.6924,7.69,7.7016,7.721,7.7403,7.7713,7.7906,7.7983,7.7983,7.7829,7.7983,7.8138,7.8293,7.8525,7.8718,7.8912,7.5266,7.4993,7.4993,7.4798,7.4486,7.3939,7.3744,7.3666,7.3197,7.2924,7.2924,7.2924,7.2924,7.2924,7.2924,7.2924,7.2924,7.2924,7.2924,7.2768,7.2182,7.2026,7.2065,7.2378,7.2495,7.2573,7.2807,7.2924,7.2963,7.3432,7.3744,7.3861,7.4251,7.4681,7.4954,7.4993,7.5384,7.6164,7.6281,7.6555,7.6984,7.7101,7.7101,7.7101,7.7101,7.7101,7.7101,7.7101,7.7101,7.7101,7.7101,7.6828,7.632,7.6281,7.6047,7.5618,7.5501,7.5501,7.5462,7.554,7.5305,7.5071,7.4993,7.4798,7.4603,7.4564,7.4642,7.4999,7.5048,7.5177,7.5462,7.5547,7.5546,7.5542,7.4878,7.48,7.4995,7.5386,7.5738,7.6284,7.6402,7.6636,7.6948,7.7144,7.7144,7.7144,7.7137,7.7126,7.7078,7.7056,7.7075,7.7151,7.7373,7.7378,7.7361,7.7554,7.7873,7.7777,7.7595,7.7643,7.7698,7.7945,7.8177,7.8216,7.8448,7.8486,7.8564,7.868,7.8641,7.8989,7.9183,7.9144,7.9144,7.9376,7.9647,7.6594,7.5891,7.5891,7.5462,7.4798,7.4642,7.4603,7.4564,7.4408,7.433,7.4369,7.4251,7.433,7.4408,7.4212,7.4212,7.4447,7.429,7.4212,7.39,7.3041,7.2417,7.2495,7.308,7.3354,7.3432,7.4017,7.433,7.4212,7.4447,7.4564,7.4603,7.4798,7.5071,7.5735,7.5852,7.6242,7.6867,7.7023,7.7062,7.7101,7.7101,7.7101,7.7101,7.7101,7.7101,7.7101,7.7101,7.7101,7.7101,7.7101,7.7062,7.7062,7.7101,7.6984,7.6867,7.7023,7.6945,7.6984,7.6789,7.6594,7.5969,7.5852,7.554,7.5032,7.5032,7.5227,7.5813,7.5897,7.617,7.6761,7.6892,7.6907,7.6914,7.582,7.539,7.5898,7.6601,7.6914,7.707,7.7187,7.7187,7.7187,7.7187,7.7187,7.7187,7.7187,7.7145,7.7178,7.7204,7.719,7.7472,7.7901,7.8184,7.8297,7.8429,7.8746,7.8961,7.8708,7.8607,7.8572,7.8781,7.926,7.9299,7.9221,7.9221,7.9337,7.9608,7.9647,7.9724,7.9801,7.9685,7.984,8.015,8.0343,7.6984,7.675,7.675,7.6633,7.632,7.5735,7.5462,7.5384,7.4798,7.4642,7.4525,7.4486,7.4603,7.4525,7.4564,7.4486,7.4603,7.4564,7.4486,7.4447,7.4134,7.3861,7.3861,7.4056,7.4173,7.4251,7.4525,7.4486,7.4564,7.5188,7.5462,7.5501,7.6008,7.6438,7.675,7.6711,7.6867,7.7062,7.7101,7.7101,7.7101,7.7101,7.7101,7.7101,7.7101,7.7101,7.7101,7.7101,7.7101,7.7101,7.7101,7.7101,7.7101,7.7101,7.7101,7.7101,7.7101,7.7101,7.7101,7.7101,7.6945,7.6789,7.6672,7.6672,7.6438,7.6399,7.6516,7.675,7.675,7.6828,7.7062,7.7068,7.7126,7.7103,7.66,7.6445,7.6758,7.7031,7.7226,7.7226,7.7226,7.7226,7.7226,7.7226,7.7226,7.7265,7.7305,7.7344,7.7539,7.7848,7.8038,7.8284,7.8689,7.9033,7.9283,7.9393,7.9624,8.0037,7.995,7.9641,7.9554,7.9516,8.015,8.0691,8.0459,8.0382,8.0691,8.0962,8.0846,8.0498,8.0653,8.0691,8.0885,8.1155,8.1078,7.7101,7.7101,7.7101,7.7101,7.7023,7.6555,7.632,7.6242,7.5852,7.5579,7.5579,7.5579,7.5579,7.5579,7.5618,7.5618,7.5579,7.5579,7.5618,7.5618,7.5618,7.5188,7.4759,7.4798,7.5071,7.511,7.5423,7.5618,7.5696,7.6125,7.632,7.6399,7.6867,7.7062,7.7023,7.7101,7.7101,7.7101,7.7101,7.7101,7.7101,7.7101,7.7101,7.7101,7.7101,7.7101,7.7101,7.7101,7.7101,7.7101,7.7101,7.7101,7.7101,7.7101,7.7101,7.7101,7.7101,7.7101,7.7101,7.7101,7.7101,7.7062,7.7101,7.7101,7.7023,7.7101,7.7101,7.7062,7.7101,7.7101,7.7101,7.7101,7.7068,7.7083,7.7137,7.7183,7.7226,7.7187,7.7226,7.7226,7.7226,7.7226,7.7226,7.7226,7.7422,7.7656,7.7851,7.8047,7.832,7.8672,7.8984,7.918,7.957,8.0041,8.0374,8.0493,8.0602,8.096,8.0859,8.0631,8.0472,8.0314,8.0754,8.1271,8.1426,8.1504,8.1504,8.1504,8.1349,8.1194,8.1504,8.1504,8.1504,8.1504,8.1504,7.7101,7.7101,7.7101,7.7101,7.7101,7.7062,7.6984,7.7062,7.6945,7.6945,7.6945,7.7023,7.6828,7.7101,7.675,7.6984,7.6984,7.6828,7.6906,7.6867,7.675,7.6203,7.5227,7.5657,7.593,7.6008,7.675,7.6906,7.6828,7.6984,7.7062,7.6984,7.7062,7.7101,7.7101,7.7101,7.7101,7.7101,7.7101,7.7101,7.7101,7.7101,7.7101,7.7101,7.7101,7.7101,7.7101,7.7101,7.7101,7.7101,7.7101,7.7101,7.7101,7.7101,7.7101,7.7101,7.7101,7.7101,7.7101,7.7101,7.7101,7.7101,7.7101,7.7101,7.7101,7.7101,7.7101,7.7101,7.7101,7.7101,7.7101,7.7101,7.7101,7.7146,7.7185,7.7282,7.7302,7.7226,7.7187,7.7226,7.7226,7.7344,7.7344,7.7461,7.7773,7.8515,7.8633,7.875,7.914,7.9531,7.9726,7.9883,8.0429,8.1078,8.1373,8.1623,8.1702,8.1867,8.1625,8.1387,8.1269,8.1213,8.1296,8.1504,8.1504,8.1504,8.1504,8.1504,8.1504,8.1504,8.1504,8.1504,8.1504,8.1504,8.1504,7.7101,7.7101,7.7101,7.7101,7.7101,7.7101,7.7101,7.7101,7.7101,7.7101,7.7101,7.7101,7.7101,7.7101,7.7101,7.7101,7.7101,7.7101,7.7101,7.7101,7.7101,7.6945,7.6516,7.6672,7.675,7.6828,7.6984,7.7101,7.7101,7.7101,7.7101,7.7101,7.7101,7.7101,7.7101,7.7101,7.7101,7.7101,7.7101,7.7101,7.7101,7.7101,7.7101,7.7101,7.7101,7.7101,7.7101,7.7101,7.7101,7.7101,7.7101,7.7101,7.7101,7.7101,7.7101,7.7101,7.7101,7.7101,7.7101,7.7101,7.7101,7.7101,7.7101,7.7101,7.7101,7.7101,7.7101,7.7101,7.7101,7.7179,7.7296,7.714,7.7257,7.7414,7.7804,7.8122,7.8015,7.7563,7.7337,7.7378,7.7812,7.8125,7.8203,7.8711,7.9062,7.9375,7.9492,7.9531,7.9922,8.0429,8.0586,8.0703,8.1133,8.1679,8.1777,8.1993,8.2039,8.2143,8.1987,8.1852,8.1737,8.1608,8.1562,8.1553,8.1504,8.1504,8.1504,8.1504,8.1504,8.1504,8.1504,8.1504,8.1504,8.1504,8.1504,7.7101,7.7101,7.7101,7.7101,7.7101,7.7101,7.7101,7.7101,7.7101,7.7101,7.7101,7.7101,7.7101,7.7101,7.7101,7.7101,7.7101,7.7101,7.7101,7.7101,7.7101,7.7101,7.7101,7.7101,7.7101,7.7101,7.7101,7.7101,7.7101,7.7101,7.7101,7.7101,7.7101,7.7101,7.7101,7.7101,7.7101,7.7101,7.7101,7.7101,7.7101,7.7101,7.7101,7.7101,7.7101,7.7101,7.7101,7.7101,7.7101,7.7101,7.7101,7.7101,7.7101,7.7101,7.7101,7.7101,7.7101,7.7101,7.7101,7.7101,7.7101,7.714,7.7101,7.7101,7.7101,7.7101,7.7101,7.7179,7.7453,7.7843,7.8233,7.835,7.8311,7.839,7.8702,7.8975,7.8936,7.8601,7.8332,7.8376,7.8789,7.8945,7.9258,7.9684,8.0,8.0195,8.0351,8.0429,8.1094,8.1523,8.1523,8.1679,8.1953,8.2187,8.2187,8.2198,8.217,8.2162,8.2089,8.1968,8.1833,8.1737,8.1608,8.1538,8.1504,8.1504,8.1504,8.1504,8.1504,8.1504,8.1504,8.1504,8.1504,8.1504,8.1504,7.7101,7.7101,7.7101,7.7101,7.7101,7.7101,7.7101,7.7101,7.7101,7.7101,7.7101,7.7101,7.7101,7.7101,7.7101,7.7101,7.7101,7.7101,7.7101,7.7101,7.7101,7.7101,7.7101,7.7101,7.7101,7.7101,7.7101,7.7101,7.7101,7.7101,7.7101,7.7101,7.7101,7.7101,7.7101,7.7101,7.7101,7.7101,7.7101,7.7101,7.7101,7.7101,7.7101,7.7101,7.7101,7.7101,7.7101,7.7101,7.7101,7.7101,7.7218,7.7296,7.7257,7.714,7.7101,7.7101,7.7101,7.7218,7.7414,7.7414,7.7453,7.7414,7.7531,7.757,7.7609,7.7726,7.7765,7.7882,7.8233,7.8819,7.9561,7.9483,7.9522,7.9639,7.9717,7.9873,7.9912,7.999,7.999,7.9567,7.965,7.9894,8.002,8.0297,8.0648,8.1,8.1117,8.1351,8.1976,8.2289,8.2139,8.2104,8.2226,8.2304,8.2304,8.2258,8.2242,8.2195,8.2143,8.2052,8.1937,8.1796,8.1635,8.1538,8.1528,8.1504,8.1504,8.1504,8.1504,8.1504,8.1504,8.1504,8.1504,8.1504,8.1504,7.7101,7.7101,7.7101,7.7101,7.7101,7.7101,7.7101,7.7101,7.7101,7.7101,7.7101,7.7101,7.7101,7.7101,7.7101,7.7101,7.7101,7.7101,7.7101,7.7101,7.7101,7.7101,7.7101,7.7101,7.7101,7.7101,7.7101,7.7101,7.7101,7.7101,7.7101,7.7101,7.7101,7.7101,7.7101,7.7101,7.7101,7.7101,7.7101,7.7101,7.7101,7.7101,7.7101,7.7101,7.7179,7.7218,7.7179,7.714,7.7101,7.714,7.7804,7.8116,7.8077,7.7609,7.7335,7.7335,7.7375,7.7648,7.8077,7.8194,7.8585,7.9053,7.9092,7.9131,7.917,7.917,7.8975,7.917,7.9287,7.96,7.9678,7.999,7.9795,7.9912,8.0381,8.0771,8.0888,8.1161,8.1122,8.0302,8.0498,8.081,8.09,8.1061,8.1412,8.1647,8.1725,8.1803,8.2115,8.231,8.2271,8.2242,8.2304,8.2304,8.2304,8.2304,8.2261,8.2193,8.2148,8.2084,8.1934,8.1813,8.1677,8.1608,8.1553,8.1504,8.1504,8.1504,8.1504,8.1504,8.1504,8.1504,8.1504,8.1504,8.1504,7.7101,7.7101,7.7101,7.7101,7.7101,7.7101,7.7101,7.7101,7.7101,7.7101,7.7101,7.7101,7.7101,7.7101,7.7101,7.7101,7.7101,7.7101,7.7101,7.7101,7.7101,7.7101,7.7101,7.7101,7.7101,7.7101,7.7101,7.7101,7.7101,7.7101,7.7101,7.7101,7.7101,7.7101,7.7101,7.7101,7.7101,7.7101,7.7101,7.714,7.714,7.714,7.714,7.7179,7.757,7.7765,7.7843,7.8311,7.8429,7.8546,7.8858,7.9053,7.8975,7.878,7.8468,7.8429,7.839,7.8546,7.8975,7.9092,7.9287,7.9561,7.9756,7.9717,7.9717,7.9678,7.9951,8.0263,8.0381,8.0576,8.1044,8.0966,8.1044,8.1083,8.1396,8.1591,8.1747,8.2059,8.163,8.1044,8.1356,8.163,8.1708,8.1909,8.2176,8.2293,8.2293,8.2293,8.2293,8.2293,8.2293,8.2299,8.231,8.232,8.2297,8.2301,8.2303,8.2221,8.2182,8.2093,8.2011,8.1875,8.1776,8.1695,8.1608,8.1553,8.1504,8.1504,8.1504,8.1504,8.1504,8.1504,8.1504,8.1504,8.1504,7.7101,7.7101,7.7101,7.7101,7.7101,7.7101,7.7101,7.7101,7.7101,7.7101,7.7101,7.7101,7.7101,7.7101,7.7101,7.7101,7.7101,7.7101,7.7101,7.7101,7.7101,7.7101,7.7101,7.7101,7.7101,7.7101,7.7101,7.7101,7.7101,7.7101,7.7101,7.7101,7.7101,7.7101,7.7101,7.7101,7.7101,7.714,7.7335,7.7375,7.757,7.7609,7.7609,7.7609,7.8311,7.8663,7.8741,7.917,7.9483,7.9561,7.9795,7.9951,7.999,8.0146,8.0224,8.0185,7.9912,7.9795,7.9951,7.9951,8.0107,8.0498,8.0302,8.0263,8.0341,8.0576,8.0615,8.1122,8.1278,8.1474,8.1942,8.2215,8.2215,8.2176,8.2176,8.2293,8.2215,8.2254,8.2254,8.2059,8.2293,8.2254,8.2137,8.2137,8.2293,8.2293,8.2293,8.2293,8.2293,8.2293,8.2293,8.2293,8.2299,8.2299,8.231,8.2324,8.2292,8.23,8.2219,8.2137,8.2075,8.2026,8.1913,8.1757,8.1674,8.1585,8.1553,8.1504,8.1504,8.1504,8.1504,8.1504,8.1504,8.1504,8.1504,7.7101,7.7101,7.7101,7.7101,7.7101,7.7101,7.7101,7.7101,7.7101,7.7101,7.7101,7.7101,7.7101,7.7101,7.7101,7.7101,7.7101,7.7101,7.7101,7.7101,7.7179,7.7257,7.7179,7.7101,7.7375,7.7453,7.7335,7.7101,7.7296,7.7296,7.7218,7.7296,7.7375,7.7179,7.7492,7.7492,7.7101,7.7296,7.7882,7.8585,7.9131,7.9248,7.9209,7.9287,7.9444,7.9561,7.96,7.9873,7.9951,7.999,8.0537,8.081,8.0966,8.1591,8.1903,8.1552,8.081,8.0029,8.0693,8.0849,8.1083,8.1513,8.1747,8.1942,8.1747,8.1708,8.1786,8.2059,8.2098,8.2098,8.2254,8.2293,8.2293,8.2293,8.2293,8.2293,8.2293,8.2293,8.2293,8.2293,8.2293,8.2293,8.2254,8.2293,8.2293,8.2293,8.2293,8.2293,8.2293,8.2293,8.2293,8.2293,8.2293,8.2293,8.2293,8.2305,8.231,8.2315,8.2265,8.2211,8.2131,8.2065,8.2,8.1881,8.1757,8.1652,8.1562,8.1553,8.1528,8.1581,8.1697,8.162,8.1504,8.1542,8.1852,7.7101,7.7101,7.7101,7.7101,7.7101,7.7101,7.7101,7.7101,7.7101,7.7101,7.7101,7.7101,7.7101,7.7101,7.7101,7.7101,7.7101,7.714,7.7101,7.7335,7.757,7.7843,7.7999,7.8311,7.8546,7.8468,7.8585,7.8702,7.8468,7.8116,7.7999,7.8468,7.8546,7.8663,7.839,7.8546,7.8585,7.8741,7.8975,7.9326,7.96,7.9717,7.9756,7.9756,8.0185,8.0381,8.0537,8.1005,8.1122,8.1239,8.163,8.1708,8.1786,8.2059,8.2293,8.2215,8.1669,8.1435,8.1669,8.1708,8.1942,8.2137,8.2293,8.2215,8.2293,8.2293,8.2293,8.2293,8.2293,8.2293,8.2293,8.2293,8.2293,8.2293,8.2293,8.2293,8.2293,8.2293,8.2293,8.2293,8.2293,8.2293,8.2293,8.2293,8.2293,8.2293,8.2293,8.2293,8.2293,8.2293,8.2293,8.2293,8.2293,8.2293,8.2293,8.2299,8.2299,8.231,8.2289,8.2265,8.2207,8.2117,8.2045,8.1987,8.1904,8.1796,8.1652,8.1639,8.1708,8.1799,8.189,8.2084,8.2316,8.2857,8.3089,7.7101,7.7101,7.7101,7.7101,7.7101,7.7101,7.7101,7.7101,7.7101,7.7101,7.7101,7.7101,7.7101,7.7179,7.7335,7.7531,7.7492,7.7648,7.7726,7.7999,7.8311,7.8663,7.8858,7.9366,7.96,7.9717,7.9444,7.9639,7.9717,7.9483,7.9366,7.9717,7.9444,7.9561,7.9639,7.9561,7.9561,7.9912,7.999,8.0185,8.042,8.0498,8.0459,8.0615,8.0927,8.1317,8.1435,8.1825,8.2176,8.2215,8.2176,8.2176,8.2215,8.2254,8.2293,8.2293,8.2059,8.2098,8.2176,8.2176,8.2293,8.2293,8.2293,8.2293,8.2293,8.2293,8.2293,8.2293,8.2293,8.2293,8.2293,8.2293,8.2293,8.2293,8.2293,8.2293,8.2293,8.2293,8.2293,8.2293,8.2293,8.2293,8.2293,8.2293,8.2293,8.2293,8.2293,8.2293,8.2293,8.2293,8.2293,8.2293,8.2293,8.2293,8.2293,8.2293,8.2293,8.2299,8.232,8.2337,8.2304,8.2246,8.2163,8.2084,8.2182,8.2293,8.2417,8.2139,8.1949,8.2249,8.2573,8.2935,8.3322,8.3863,8.4211,7.7101,7.7101,7.7101,7.7101,7.7101,7.7101,7.7101,7.7218,7.714,7.7218,7.7375,7.7179,7.7335,7.7414,7.7999,7.8311,7.835,7.917,7.9209,7.9326,7.96,7.96,7.9756,7.9834,7.9951,7.9951,8.0107,8.0459,8.0732,8.0771,8.0302,7.9834,8.0146,7.9873,7.9912,8.0185,8.042,8.0771,8.0888,8.1278,8.1669,8.1864,8.1903,8.1942,8.2098,8.2215,8.2215,8.2254,8.2293,8.2293,8.2293,8.2293,8.2293,8.2293,8.2293,8.2293,8.2293,8.2293,8.2293,8.2293,8.2293,8.2293,8.2293,8.2293,8.2293,8.2293,8.2293,8.2293,8.2293,8.2293,8.2293,8.2293,8.2293,8.2293,8.2293,8.2293,8.2293,8.2293,8.2293,8.2293,8.2293,8.2293,8.2293,8.2293,8.2293,8.2293,8.2293,8.2293,8.2293,8.2293,8.2293,8.2293,8.2293,8.2293,8.2293,8.2293,8.2293,8.2293,8.2305,8.2398,8.2451,8.2382,8.2519,8.2787,8.303,8.3077,8.3187,8.3213,8.3203,8.3134,8.3319,8.385,8.4211,8.4637,8.4946,7.7101,7.714,7.7687,7.7609,7.7101,7.7101,7.7414,7.7843,7.7882,7.8233,7.8663,7.8702,7.8702,7.878,7.8936,7.9209,7.9209,7.9483,7.9756,7.9912,8.0146,8.0459,8.0615,8.0966,8.1317,8.1239,8.1278,8.1396,8.1747,8.1708,8.1669,8.1356,8.1122,8.1317,8.1317,8.1122,8.1435,8.1591,8.1786,8.202,8.2137,8.2293,8.2293,8.2293,8.2293,8.2293,8.2293,8.2293,8.2293,8.2293,8.2293,8.2293,8.2293,8.2293,8.2293,8.2293,8.2293,8.2293,8.2293,8.2293,8.2293,8.2293,8.2293,8.2293,8.2293,8.2293,8.2293,8.2293,8.2293,8.2293,8.2293,8.2293,8.2293,8.2293,8.2293,8.2293,8.2293,8.2293,8.2293,8.2293,8.2293,8.2293,8.2293,8.2293,8.2293,8.2293,8.2293,8.2293,8.2293,8.2293,8.2293,8.2293,8.2293,8.2293,8.2293,8.2293,8.2332,8.2371,8.245,8.2735,8.3023,8.3115,8.328,8.3574,8.388,8.4044,8.4232,8.4456,8.4415,8.4056,8.4374,8.5036,8.5282,8.541,8.5604,7.7257,7.7531,7.8155,7.8038,7.7531,7.7765,7.8194,7.8702,7.878,7.9092,7.9717,7.9717,7.9717,7.9756,8.0029,8.0107,8.0185,8.042,8.0498,8.0771,8.1122,8.1356,8.1591,8.1825,8.2059,8.2293,8.2293,8.2254,8.2215,8.2293,8.2176,8.2137,8.2293,8.2215,8.2215,8.2293,8.2293,8.2293,8.2293,8.2293,8.2293,8.2293,8.2293,8.2293,8.2293,8.2293,8.2293,8.2293,8.2293,8.2293,8.2293,8.2293,8.2293,8.2293,8.2293,8.2293,8.2293,8.2293,8.2293,8.2293,8.2293,8.2293,8.2293,8.2293,8.2293,8.2293,8.2293,8.2293,8.2293,8.2293,8.2293,8.2293,8.2293,8.2293,8.2293,8.2293,8.2293,8.2293,8.2293,8.2293,8.2293,8.2332,8.2371,8.2371,8.245,8.2411,8.2293,8.2293,8.2293,8.2293,8.2293,8.2293,8.2293,8.2293,8.2293,8.2645,8.2957,8.3074,8.3191,8.3582,8.3789,8.3886,8.4016,8.4257,8.4554,8.4934,8.527,8.5525,8.5251,8.4842,8.5336,8.5924,8.6029,8.612,8.6249,7.757,7.835,7.8429,7.8429,7.8546,7.9287,7.96,7.9717,7.9756,7.9834,7.999,7.9951,7.9951,8.0107,8.0732,8.0966,8.1122,8.1669,8.1942,8.1942,8.1903,8.2137,8.2176,8.2293,8.2293,8.2293,8.2293,8.2293,8.2293,8.2293,8.2293,8.2293,8.2293,8.2293,8.2293,8.2293,8.2293,8.2293,8.2293,8.2293,8.2293,8.2293,8.2293,8.2293,8.2293,8.2293,8.2293,8.2293,8.2293,8.2293,8.2293,8.2293,8.2293,8.2293,8.2293,8.2293,8.2293,8.2293,8.2293,8.2293,8.2293,8.2293,8.2293,8.2293,8.2293,8.2293,8.2293,8.2293,8.2293,8.2293,8.2293,8.2293,8.2293,8.2293,8.2293,8.2293,8.2293,8.2293,8.2293,8.2411,8.2371,8.2332,8.2411,8.245,8.2567,8.2528,8.2371,8.2371,8.245,8.2567,8.2684,8.2996,8.3035,8.3035,8.3191,8.3347,8.3543,8.3699,8.3933,8.4284,8.4597,8.4765,8.4862,8.499,8.5429,8.5947,8.6276,8.6572,8.6132,8.5777,8.6178,8.6592,8.6698,8.6713,8.6687,7.7609,7.8468,7.9014,7.96,8.0029,7.9795,8.0029,8.0615,8.1122,8.1435,8.1435,8.1435,8.1435,8.1552,8.1591,8.1825,8.1903,8.1981,8.2293,8.2293,8.2293,8.2293,8.2293,8.2293,8.2293,8.2293,8.2293,8.2293,8.2293,8.2293,8.2293,8.2293,8.2293,8.2293,8.2293,8.2293,8.2293,8.2293,8.2293,8.2293,8.2293,8.2293,8.2293,8.2293,8.2293,8.2293,8.2293,8.2293,8.2293,8.2293,8.2293,8.2293,8.2293,8.2293,8.2293,8.2293,8.2293,8.2293,8.2293,8.2293,8.2293,8.2293,8.2293,8.2293,8.2293,8.2293,8.2293,8.2293,8.2293,8.2293,8.2293,8.2293,8.2293,8.2293,8.2293,8.2293,8.2293,8.2293,8.2332,8.2528,8.2567,8.3308,8.3621,8.3426,8.3426,8.323,8.3113,8.3035,8.3113,8.3269,8.3386,8.3933,8.4167,8.4089,8.4089,8.4206,8.4323,8.448,8.4636,8.487,8.5182,8.5612,8.593,8.6181,8.656,8.6987,8.6939,8.693,8.688,8.6825,8.6884,8.6854,8.6809,8.6761,8.6737,7.7804,7.8858,7.9444,8.0381,8.1239,8.0849,8.0927,8.1513,8.2059,8.2293,8.2293,8.2293,8.2254,8.2254,8.2293,8.2293,8.2293,8.2293,8.2293,8.2293,8.2293,8.2293,8.2293,8.2293,8.2293,8.2293,8.2293,8.2293,8.2293,8.2293,8.2293,8.2293,8.2293,8.2293,8.2293,8.2293,8.2293,8.2293,8.2293,8.2293,8.2293,8.2293,8.2293,8.2293,8.2293,8.2293,8.2293,8.2293,8.2293,8.2293,8.2293,8.2293,8.2293,8.2293,8.2293,8.2293,8.2293,8.2293,8.2293,8.2293,8.2293,8.2293,8.2293,8.2293,8.2293,8.2293,8.2293,8.2293,8.2332,8.2371,8.2411,8.2411,8.2528,8.2528,8.2762,8.2762,8.3152,8.3191,8.3191,8.3308,8.3504,8.4245,8.4753,8.4597,8.4441,8.4167,8.3894,8.3894,8.3894,8.3972,8.4167,8.4636,8.4909,8.4714,8.4753,8.5026,8.5143,8.526,8.5495,8.5768,8.6119,8.6588,8.6978,8.7212,8.7206,8.7187,8.7236,8.7234,8.7078,8.6972,8.698,8.6923,8.6854,8.6832,8.6832,7.8116,7.96,7.9717,8.0693,8.2098,8.2137,8.2215,8.2254,8.2293,8.2293,8.2293,8.2293,8.2293,8.2293,8.2293,8.2293,8.2293,8.2293,8.2293,8.2293,8.2293,8.2293,8.2293,8.2293,8.2293,8.2293,8.2293,8.2293,8.2293,8.2293,8.2293,8.2293,8.2293,8.2293,8.2293,8.2293,8.2293,8.2293,8.2293,8.2293,8.2293,8.2293,8.2293,8.2293,8.2293,8.2293,8.2293,8.2293,8.2293,8.2293,8.2293,8.2293,8.2293,8.2293,8.2293,8.2293,8.2293,8.2293,8.2293,8.2293,8.2293,8.2332,8.2411,8.2371,8.2293,8.2332,8.2411,8.2528,8.2606,8.2606,8.2606,8.2801,8.2996,8.323,8.3504,8.3855,8.4362,8.4519,8.4519,8.4558,8.4675,8.5065,8.5338,8.5338,8.5495,8.5416,8.526,8.5221,8.5143,8.4831,8.5026,8.526,8.5377,8.5182,8.5377,8.5846,8.6002,8.6158,8.6549,8.6861,8.7212,8.7251,8.729,8.7329,8.7368,8.7372,8.7369,8.7299,8.7196,8.7128,8.7105,8.7019,8.6923,8.6881,8.6899,7.8116,7.9678,7.9717,8.0693,8.2176,8.2293,8.2293,8.2293,8.2293,8.2293,8.2293,8.2293,8.2293,8.2293,8.2293,8.2293,8.2293,8.2293,8.2293,8.2293,8.2293,8.2293,8.2293,8.2293,8.2293,8.2293,8.2293,8.2293,8.2293,8.2293,8.2293,8.2293,8.2293,8.2293,8.2293,8.2293,8.2293,8.2293,8.2293,8.2293,8.2293,8.2293,8.2293,8.2293,8.2293,8.2293,8.2293,8.2293,8.2293,8.2293,8.2293,8.2293,8.2293,8.2293,8.2293,8.2293,8.2293,8.2293,8.2293,8.2332,8.2371,8.2567,8.284,8.2723,8.2528,8.2528,8.2723,8.2996,8.3191,8.3269,8.3504,8.3738,8.3933,8.4206,8.4441,8.4714,8.5143,8.5299,8.5299,8.5377,8.5495,8.5885,8.6158,8.6392,8.651,8.6588,8.6588,8.6471,8.6275,8.5924,8.5846,8.608,8.6197,8.608,8.6392,8.6861,8.6939,8.7095,8.7329,8.7407,8.7368,8.7329,8.7407,8.7407,8.7414,8.7414,8.7372,8.7329,8.7263,8.7183,8.7113,8.705,8.7019,8.6982,8.6943,7.7921,7.917,7.9561,8.0693,8.2137,8.2293,8.2293,8.2293,8.2293,8.2293,8.2293,8.2293,8.2293,8.2293,8.2293,8.2293,8.2293,8.2293,8.2293,8.2293,8.2293,8.2293,8.2293,8.2293,8.2293,8.2293,8.2293,8.2293,8.2293,8.2293,8.2293,8.2293,8.2293,8.2293,8.2293,8.2293,8.2293,8.2293,8.2293,8.2293,8.2293,8.2293,8.2293,8.2293,8.2293,8.2293,8.2293,8.2293,8.2293,8.2293,8.2293,8.2293,8.2293,8.2293,8.2293,8.2293,8.2293,8.2293,8.2371,8.2684,8.2723,8.2996,8.3543,8.3699,8.3621,8.3582,8.3738,8.3933,8.405,8.4167,8.4519,8.4831,8.5065,8.526,8.5377,8.5495,8.569,8.5885,8.5963,8.6002,8.6314,8.6783,8.7095,8.7329,8.7368,8.7173,8.7095,8.7056,8.6978,8.6783,8.6744,8.6861,8.7056,8.7134,8.7407,8.7407,8.7329,8.729,8.7329,8.7407,8.7407,8.7407,8.7407,8.7414,8.742,8.7414,8.7382,8.7369,8.7329,8.7273,8.7196,8.7167,8.7105,8.7037,8.7001,7.7609,7.8546,7.9405,8.081,8.2176,8.2293,8.2293,8.2293,8.2293,8.2293,8.2293,8.2293,8.2293,8.2293,8.2293,8.2293,8.2293,8.2293,8.2293,8.2293,8.2293,8.2293,8.2293,8.2293,8.2293,8.2293,8.2293,8.2293,8.2293,8.2293,8.2293,8.2293,8.2293,8.2293,8.2293,8.2293,8.2293,8.2293,8.2293,8.2293,8.2293,8.2293,8.2293,8.2293,8.2293,8.2293,8.2293,8.2293,8.2293,8.2293,8.2293,8.2293,8.2293,8.2293,8.2293,8.2489,8.2567,8.2762,8.2957,8.3347,8.3543,8.3894,8.4362,8.4714,8.4714,8.4362,8.4401,8.4792,8.4948,8.5221,8.5534,8.5729,8.5924,8.6119,8.6236,8.6392,8.6549,8.6666,8.6705,8.6744,8.6861,8.7251,8.7251,8.7407,8.7407,8.7407,8.7407,8.7407,8.7368,8.729,8.7329,8.7368,8.7407,8.7407,8.7407,8.7407,8.7407,8.7407,8.7407,8.7407,8.7407,8.7407,8.7407,8.7407,8.7414,8.7387,8.7408,8.7383,8.7372,8.7381,8.733,8.7286,8.722,8.7121,8.7055,7.7609,7.8546,8.0068,8.1317,8.2254,8.2293,8.2293,8.2293,8.2293,8.2293,8.2293,8.2293,8.2293,8.2293,8.2293,8.2293,8.2293,8.2293,8.2293,8.2293,8.2293,8.2293,8.2293,8.2293,8.2293,8.2293,8.2293,8.2293,8.2293,8.2293,8.2293,8.2293,8.2293,8.2293,8.2293,8.2293,8.2293,8.2293,8.2293,8.2293,8.2293,8.2293,8.2293,8.2293,8.2293,8.2293,8.2293,8.2293,8.2293,8.2293,8.2293,8.2293,8.2293,8.2332,8.2684,8.3074,8.323,8.3504,8.3894,8.4245,8.4441,8.4753,8.5182,8.5573,8.5612,8.5104,8.5065,8.5534,8.5924,8.6197,8.6431,8.6588,8.6705,8.6861,8.7017,8.7212,8.7368,8.7407,8.7407,8.7407,8.7407,8.7407,8.7407,8.7407,8.7407,8.7407,8.7407,8.7407,8.7407,8.7368,8.7368,8.7407,8.7407,8.7407,8.7407,8.7407,8.7407,8.7407,8.7407,8.7407,8.7407,8.7407,8.7407,8.7407,8.7407,8.742,8.7387,8.7405,8.7421,8.7414,8.7392,8.7347,8.7309,8.7209,8.7121,7.7375,7.8038,7.9678,8.1161,8.2176,8.2293,8.2293,8.2293,8.2293,8.2293,8.2293,8.2293,8.2293,8.2293,8.2293,8.2293,8.2293,8.2293,8.2293,8.2293,8.2293,8.2293,8.2293,8.2293,8.2293,8.2293,8.2293,8.2293,8.2293,8.2293,8.2293,8.2293,8.2293,8.2293,8.2293,8.2293,8.2293,8.2293,8.2293,8.2293,8.2293,8.2293,8.2293,8.2293,8.2293,8.2332,8.2293,8.2293,8.2293,8.2489,8.2645,8.323,8.3386,8.3582,8.3699,8.3933,8.4128,8.4284,8.4792,8.5143,8.5338,8.5651,8.6158,8.6588,8.6666,8.6275,8.6275,8.6666,8.6666,8.6939,8.6978,8.7095,8.7095,8.7212,8.7251,8.7329,8.7407,8.7407,8.7407,8.7407,8.7407,8.7407,8.7407,8.7407,8.7407,8.7407,8.7407,8.7407,8.7407,8.7407,8.7407,8.7407,8.7407,8.7407,8.7407,8.7407,8.7407,8.7407,8.7407,8.7407,8.7407,8.7407,8.7407,8.7407,8.7407,8.7407,8.742,8.7392,8.7405,8.7421,8.7418,8.7401,8.7354,8.7292,8.7196,7.7179,7.7492,7.9053,8.0654,8.202,8.2254,8.2293,8.2293,8.2293,8.2293,8.2293,8.2293,8.2293,8.2293,8.2293,8.2293,8.2293,8.2293,8.2293,8.2293,8.2293,8.2293,8.2293,8.2293,8.2293,8.2293,8.2293,8.2293,8.2293,8.2293,8.2293,8.2293,8.2293,8.2293,8.2293,8.2293,8.2293,8.2293,8.2293,8.2293,8.2293,8.2293,8.2293,8.2293,8.2411,8.245,8.245,8.2606,8.2606,8.2918,8.3386,8.3855,8.4245,8.4441,8.4714,8.487,8.4987,8.5143,8.5456,8.5963,8.6158,8.6471,8.7095,8.7329,8.7329,8.7329,8.729,8.729,8.7329,8.7329,8.7368,8.7407,8.7407,8.7407,8.7407,8.7407,8.7407,8.7407,8.7407,8.7407,8.7407,8.7407,8.7407,8.7407,8.7407,8.7407,8.7407,8.7407,8.7407,8.7407,8.7407,8.7407,8.7407,8.7407,8.7407,8.7407,8.7407,8.7407,8.7407,8.7407,8.7407,8.7407,8.7407,8.7407,8.7407,8.7407,8.7407,8.7414,8.7392,8.7408,8.742,8.742,8.7408,8.7329,8.7291,7.7492,7.8233,7.9287,8.0302,8.1317,8.1981,8.2293,8.2293,8.2293,8.2293,8.2293,8.2293,8.2293,8.2293,8.2293,8.2293,8.2293,8.2293,8.2293,8.2293,8.2293,8.2293,8.2293,8.2293,8.2293,8.2293,8.2293,8.2293,8.2293,8.2293,8.2293,8.2293,8.2293,8.2293,8.2293,8.2293,8.2293,8.2332,8.2411,8.245,8.2411,8.2371,8.2332,8.2528,8.2918,8.3113,8.3426,8.3972,8.4245,8.4401,8.448,8.4714,8.4987,8.5182,8.5377,8.5729,8.5846,8.6119,8.6471,8.6744,8.6939,8.6978,8.7368,8.7368,8.7368,8.7368,8.7368,8.7368,8.7368,8.7368,8.7407,8.7407,8.7407,8.7407,8.7407,8.7407,8.7407,8.7407,8.7407,8.7407,8.7407,8.7407,8.7407,8.7407,8.7407,8.7407,8.7407,8.7407,8.7407,8.7407,8.7407,8.7407,8.7407,8.7407,8.7407,8.7407,8.7407,8.7407,8.7407,8.7407,8.7407,8.7407,8.7407,8.7407,8.7407,8.7407,8.7407,8.7407,8.7407,8.7392,8.7405,8.7418,8.7421,8.7414,8.7353]},{"header":{"parameterUnit":"m.s-1","parameterCategory":1,"la1":31.0,"la2":29.5877,"lo1":-88.7671,"lo2":-86.6584,"dy":0.0162,"dx":0.0185,"nx":115,"ny":88,"refTime":"2024-03-05T12:00:00:Z","depth":0,"parameterNumber":3,"parameterNumberName":"V-component_of_WINDS"},"data":[0.0,0.0,0.0,0.0,0.0,0.0,0.0,0.0,0.0,0.0,0.0,0.0,0.0,0.0,0.0,0.0,0.0,0.0,0.0,0.0,0.0,0.0,0.0,0.0,0.0,0.0,0.0,0.0,0.0,0.0,0.0,0.0,0.0,0.0,0.0,0.0,0.0,0.0,0.0,0.0,0.0,0.0,0.0,0.0,0.0,0.0,0.0,0.0,0.0,0.0,0.0,0.0,0.0,0.0,0.0,0.0,0.0,0.0,0.0,0.0,0.0,0.0,0.0,0.0,0.0,0.0,0.0,0.0,0.0,0.0,0.0,0.0,0.0,0.0,0.0,0.0,0.0,0.0,0.0,0.0,0.0,0.0,0.0,0.0,0.0,0.0,0.0,0.0,0.0,0.0,0.0,0.0,0.0,0.0,0.0,0.0,0.0,0.0,0.0,0.0,0.0,0.0,0.0,0.0,0.0,0.0,0.0,0.0,0.0,0.0,0.0,0.0,0.0,0.0,0.0,0.0,0.0,0.0,0.0,0.0,0.0,0.0,0.0,0.0,0.0,0.0,0.0,0.0,0.0,0.0,0.0,0.0,0.0,0.0,0.0,0.0,0.0,0.0,0.0,0.0,0.0,0.0,0.0,0.0,0.0,0.0,0.0,0.0,0.0,0.0,0.0,0.0,0.0,0.0,0.0,0.0,0.0,0.0,0.0,0.0,0.0,0.0,0.0,0.0,0.0,0.0,0.0,0.0,0.0,0.0,0.0,0.0,0.0,0.0,0.0,0.0,0.0,0.0,0.0,0.0,0.0,0.0,0.0,0.0,0.0,0.0,0.0,0.0,0.0,0.0,0.0,0.0,0.0,0.0,0.0,0.0,0.0,0.0,0.0,0.0,0.0,0.0,0.0,0.0,0.0,0.0,0.0,0.0,0.0,0.0,0.0,0.0,0.0,0.0,0.0,0.0,0.0,0.0,0.0,0.0,0.0,0.0,0.0,0.0,0.0,0.0,0.0,0.0,0.0,0.0,0.0,0.0,0.0,0.0,0.0,0.0,0.0,0.0,0.0,0.0,0.0,0.0,0.0,0.0,0.0,0.0,0.0,0.0,0.0,0.0,0.0,0.0,0.0,0.0,0.0,0.0,0.0,0.0,0.0,0.0,0.0,0.0,0.0,0.0,0.0,0.0,0.0,0.0,0.0,0.0,0.0,0.0,0.0,0.0,0.0,0.0,0.0,0.0,0.0,0.0,0.0,0.0,0.0,0.0,0.0,0.0,0.0,0.0,0.0,0.0,0.0,0.0,0.0,0.0,0.0,0.0,0.0,0.0,0.0,0.0,0.0,0.0,0.0,0.0,0.0,0.0,0.0,0.0,0.0,0.0,0.0,0.0,0.0,0.0,0.0,0.0,0.0,0.0,0.0,0.0,0.0,0.0,0.0,0.0,0.0,0.0,0.0,0.0,0.0,0.0,0.0,0.0,0.0,0.0,0.0,0.0,0.0,0.0,0.0,0.0,0.0,0.0,0.0,0.0,0.0,0.0,0.0,0.0,0.0,0.0,0.0,0.0,0.0,0.0,0.0,0.0,0.0,0.0,0.0,0.0,0.0,0.0,0.0,0.0,0.0,0.0,0.0,0.0,0.0,0.0,0.0,0.0,0.0,0.0,0.0,0.0,0.0,0.0,0.0,0.0,0.0,0.0,0.0,0.0,0.0,0.0,0.0,0.0,0.0,0.0,0.0,0.0,0.0,0.0,0.0,0.0,0.0,0.0,0.0,0.0,0.0,0.0,0.0,0.0,0.0,0.0,0.0,0.0,0.0,0.0,0.0,0.0,0.0,0.0,0.0,0.0,0.0,0.0,0.0,0.0,0.0,0.0,0.0,0.0,0.0,0.0,0.0,0.0,0.0,0.0,0.0,0.0,0.0,0.0,0.0,0.0,0.0,0.0,0.0,0.0,0.0,0.0,0.0,0.0,0.0,0.0,0.0,0.0,0.0,0.0,0.0,0.0,0.0,0.0,0.0,0.0,0.0,0.0,0.0,0.0,0.0,0.0,0.0,0.0,0.0,0.0,0.0,0.0,0.0,0.0,0.0,0.0,0.0,0.0,0.0,0.0,0.0,0.0,0.0,0.0,0.0,0.0,0.0,0.0,0.0,0.0,0.0,0.0,0.0,0.0,0.0,0.0,0.0,0.0,0.0,0.0,0.0,0.0,0.0,0.0,0.0,0.0,0.0,0.0,0.0,0.0,0.0,0.0,0.0,0.0,0.0,0.0,0.0,0.0,0.0,0.0,0.0,0.0,0.0,0.0,0.0,0.0,0.0,0.0,0.0,0.0,0.0,0.0,0.0,0.0,0.0,0.0,0.0,0.0,0.0,0.0,0.0,0.0,0.0,0.0,0.0,0.0,0.0,0.0,0.0,0.0,0.0,0.0,0.0,0.0,0.0,0.0,0.0,0.0,0.0,0.0,0.0,0.0,0.0,0.0,0.0,0.0,0.0,0.0,0.0,0.0,0.0,0.0,0.0,0.0,0.0,0.0,0.0,0.0,0.0,0.0,0.0,0.0,0.0,0.0,0.0,0.0,0.0,0.0,0.0,0.0,0.0,0.0,0.0,0.0,0.0,0.0,0.0,0.0,0.0,0.0,0.0,0.0,0.0,0.0,0.0,0.0,0.0,0.0,0.0,0.0,0.0,0.0,0.0,0.0,0.0,0.0,0.0,0.0,0.0,0.0,0.0,0.0,0.0,0.0,0.0,0.0,0.0,0.0,0.0,0.0,0.0,0.0,0.0,0.0,0.0,0.0,0.0,0.0,0.0,0.0,0.0,0.0,0.0,0.0,0.0,0.0,0.0,0.0,0.0,0.0,0.0,0.0,0.0,0.0,0.0,0.0,0.0,0.0,0.0,0.0,0.0,0.0,0.0,0.0,0.0,0.0,0.0,0.0,0.0,0.0,0.0,0.0,0.0,0.0,0.0,0.0,0.0,0.0,0.0,0.0,0.0,0.0,0.0,0.0,0.0,0.0,0.0,0.0,0.0,0.0,0.0,0.0,0.0,0.0,0.0,0.0,0.0,0.0,0.0,0.0,0.0,0.0,0.0,0.0,0.0,0.0,0.0,0.0,0.0,0.0,0.0,0.0,0.0,0.0,0.0,0.0,0.0,0.0,0.0,0.0,0.0,0.0,0.0,0.0,0.0,0.0,0.0,0.0,0.0,0.0,0.0,0.0,0.0,0.0,0.0,0.0,0.0,0.0,0.0,0.0,0.0,0.0,0.0,0.0,0.0,0.0,0.0,0.0,0.0,0.0,0.0,0.0,0.0,0.0,0.0,0.0,0.0,0.0,0.0,0.0,0.0,0.0,0.0,0.0,0.0,0.0,0.0,0.0,0.0,0.0,0.0,0.0,0.0,0.0,0.0,0.0,0.0,0.0,0.0,0.0,0.0,0.0,0.0,0.0,0.0,0.0,0.0,0.0,0.0,0.0,0.0,0.0,0.0,0.0,0.0,0.0,0.0,0.0,0.0,0.0,0.0,0.0,0.0,0.0,0.0,0.0,0.0,0.0,0.0,0.0,0.0,0.0,0.0,0.0,0.0,0.0,0.0,0.0,0.0,0.0,0.0,0.0,0.0,0.0,0.0,0.0,0.0,0.0,0.0,0.0,0.0,0.0,0.0,0.0,0.0,0.0,0.0,0.0,0.0,0.0,0.0,0.0,0.0,0.0,0.0,0.0,0.0,0.0,0.0,0.0,0.0,0.0,0.0,0.0,0.0,0.0,0.0,0.0,0.0,0.0,0.0,0.0,0.0,0.0,0.0,0.0,0.0,0.0,0.0,0.0,0.0,0.0,0.0,0.0,0.0,0.0,0.0,0.0,0.0,0.0,0.0,0.0,0.0,0.0,0.0,0.0,0.0,0.0,0.0,0.0,0.0,0.0,0.0,0.0,0.0,0.0,0.0,0.0,0.0,0.0,0.0,0.0,0.0,0.0,0.0,0.0,0.0,0.0,0.0,0.0,0.0,0.0,0.0,0.0,0.0,0.0,0.0,0.0,0.0,0.0,0.0,0.0,0.0,0.0,0.0,0.0,0.0,0.0,0.0,0.0,0.0,0.0,0.0,0.0,0.0,0.0,0.0,0.0,0.0,0.0,0.0,0.0,0.0,0.0,0.0,0.0,0.0,0.0,0.0,0.0,0.0,0.0,0.0,0.0,0.0,0.0,0.0,0.0,0.0,0.0,0.0,0.0,0.0,0.0,0.0,0.0,0.0,0.0,0.0,0.0,-0.9437,0.0,0.0,0.0,0.0,0.0,0.0,0.0,0.0,0.0,0.0,0.0,0.0,0.0,0.0,0.0,0.0,0.0,0.0,0.0,0.0,0.0,0.0,0.0,0.0,0.0,0.0,0.0,0.0,0.0,0.0,0.0,0.0,0.0,0.0,0.0,0.0,0.0,0.0,0.0,0.0,0.0,0.0,0.0,0.0,0.0,0.0,0.0,0.0,0.0,0.0,0.0,0.0,0.0,0.0,0.0,0.0,0.0,0.0,0.0,0.0,0.0,0.0,0.0,0.0,0.0,0.0,0.0,0.0,0.0,0.0,0.0,0.0,0.0,0.0,0.0,0.0,0.0,0.0,0.0,0.0,0.0,0.0,0.0,0.0,0.0,0.0,0.0,0.0,0.0,0.0,0.0,0.0,0.0,0.0,0.0,0.0,0.0,0.0,0.0,0.0,0.0,0.0,0.0,0.0,0.0,0.0,0.0,0.0,0.0,0.0,-0.8201,-0.8201,-0.856,-0.8736,-0.8736,0.0,0.0,0.0,0.0,0.0,0.0,0.0,0.0,0.0,0.0,0.0,0.0,0.0,0.0,0.0,0.0,0.0,0.0,0.0,0.0,0.0,0.0,0.0,0.0,0.0,0.0,0.0,0.0,0.0,0.0,0.0,0.0,0.0,0.0,0.0,0.0,0.0,0.0,0.0,0.0,0.0,0.0,0.0,0.0,0.0,0.0,0.0,0.0,0.0,0.0,0.0,0.0,0.0,0.0,0.0,0.0,0.0,0.0,0.0,0.0,0.0,0.0,0.0,0.0,0.0,0.0,0.0,0.0,0.0,0.0,0.0,0.0,0.0,0.0,0.0,0.0,0.0,0.0,0.0,0.0,0.0,0.0,0.0,0.0,0.0,0.0,0.0,0.0,0.0,0.0,0.0,0.0,0.0,0.0,0.0,0.0,0.0,0.0,0.0,0.0,0.0,0.0,0.0,0.0,0.0,0.0,0.0,0.0,0.0,0.0,0.0,0.0,-0.7944,-0.8032,-0.8113,0.0,0.0,0.0,0.0,0.0,0.0,0.0,0.0,0.0,0.0,0.0,0.0,0.0,0.0,0.0,0.0,0.0,0.0,0.0,0.0,0.0,0.0,0.0,0.0,0.0,0.0,0.0,0.0,0.0,0.0,0.0,0.0,0.0,0.0,0.0,0.0,0.0,0.0,0.0,0.0,0.0,0.0,0.0,0.0,0.0,0.0,0.0,0.0,0.0,0.0,0.0,0.0,0.0,0.0,0.0,0.0,0.0,0.0,0.0,0.0,0.0,0.0,0.0,0.0,0.0,0.0,0.0,0.0,0.0,0.0,0.0,0.0,0.0,0.0,0.0,0.0,0.0,0.0,0.0,0.0,0.0,0.0,0.0,0.0,0.0,0.0,0.0,0.0,0.0,0.0,0.0,0.0,0.0,0.0,0.0,0.0,0.0,0.0,0.0,0.0,0.0,0.0,0.0,0.0,0.0,0.0,0.0,0.0,0.0,0.0,-0.7503,-0.7503,-0.7584,0.0,-0.7672,0.0,0.0,0.0,0.0,0.0,0.0,0.0,0.0,0.0,0.0,0.0,0.0,0.0,0.0,0.0,0.0,0.0,0.0,0.0,0.0,0.0,0.0,0.0,0.0,0.0,0.0,0.0,0.0,0.0,0.0,0.0,0.0,0.0,0.0,0.0,0.0,0.0,0.0,0.0,0.0,0.0,0.0,0.0,0.0,0.0,0.0,0.0,0.0,0.0,0.0,0.0,0.0,0.0,0.0,0.0,0.0,0.0,0.0,0.0,0.0,0.0,0.0,0.0,0.0,0.0,0.0,0.0,0.0,0.0,0.0,0.0,0.0,0.0,0.0,0.0,0.0,0.0,0.0,0.0,0.0,0.0,0.0,0.0,0.0,0.0,0.0,0.0,0.0,0.0,0.0,0.0,0.0,0.0,0.0,0.0,0.0,0.0,0.0,0.0,0.0,0.0,0.0,0.0,0.0,0.0,0.0,0.0,0.0,0.0,0.0,-0.7152,-0.7055,-0.7218,-0.7346,0.0,0.0,0.0,0.0,0.0,0.0,0.0,0.0,0.0,0.0,0.0,0.0,0.0,0.0,0.0,0.0,0.0,0.0,0.0,0.0,0.0,0.0,0.0,0.0,0.0,0.0,0.0,0.0,0.0,0.0,0.0,0.0,0.0,0.0,0.0,0.0,0.0,0.0,0.0,0.0,0.0,0.0,0.0,0.0,0.0,0.0,0.0,0.0,0.0,0.0,0.0,0.0,0.0,0.0,0.0,0.0,0.0,0.0,0.0,0.0,0.0,0.0,0.0,0.0,0.0,0.0,0.0,0.0,0.0,0.0,0.0,0.0,0.0,0.0,0.0,0.0,0.0,0.0,0.0,0.0,0.0,0.0,0.0,0.0,0.0,0.0,0.0,0.0,0.0,0.0,0.0,0.0,0.0,0.0,0.0,0.0,0.0,0.0,0.0,0.0,0.0,0.0,0.0,0.0,0.0,0.0,0.0,0.0,0.0,0.0,-0.6885,-0.681,-0.6709,-0.6867,-0.7,-0.7112,0.0,0.0,0.0,0.0,0.0,0.0,0.0,0.0,0.0,0.0,0.0,0.0,0.0,0.0,0.0,0.0,0.0,0.0,0.0,0.0,0.0,0.0,0.0,0.0,0.0,0.0,0.0,0.0,0.0,0.0,0.0,0.0,0.0,0.0,0.0,0.0,0.0,0.0,0.0,0.0,0.0,0.0,0.0,0.0,0.0,0.0,0.0,0.0,0.0,0.0,0.0,0.0,0.0,0.0,0.0,0.0,0.0,0.0,0.0,0.0,0.0,0.0,0.0,0.0,0.0,0.0,0.0,0.0,0.0,0.0,0.0,0.0,0.0,0.0,0.0,0.0,0.0,0.0,0.0,0.0,0.0,0.0,0.0,0.0,0.0,0.0,0.0,0.0,0.0,0.0,0.0,0.0,0.0,0.0,0.0,0.0,0.0,0.0,0.0,0.0,0.0,0.0,0.0,0.0,0.0,0.0,0.0,0.0,-0.6926,-0.6783,-0.6709,-0.6695,-0.6702,-0.6702,0.0,0.0,0.0,0.0,0.0,0.0,0.0,0.0,0.0,0.0,0.0,0.0,0.0,0.0,0.0,0.0,0.0,0.0,0.0,0.0,0.0,0.0,0.0,0.0,0.0,0.0,0.0,0.0,0.0,0.0,0.0,0.0,0.0,0.0,0.0,0.0,0.0,0.0,0.0,0.0,0.0,0.0,0.0,0.0,0.0,0.0,0.0,0.0,0.0,0.0,0.0,0.0,0.0,0.0,0.0,0.0,0.0,0.0,0.0,0.0,0.0,0.0,0.0,0.0,0.0,0.0,0.0,0.0,0.0,0.0,0.0,0.0,0.0,0.0,0.0,0.0,0.0,0.0,0.0,0.0,0.0,0.0,0.0,0.0,0.0,0.0,0.0,0.0,0.0,0.0,0.0,0.0,0.0,0.0,0.0,0.0,0.0,0.0,0.0,0.0,0.0,0.0,0.0,0.0,0.0,0.0,0.0,0.0,0.0,-0.6647,-0.658,-0.6552,-0.6552,-0.6552,-0.6552,0.0,0.0,0.0,0.0,0.0,0.0,0.0,0.0,0.0,0.0,0.0,0.0,0.0,0.0,0.0,0.0,0.0,0.0,0.0,0.0,0.0,0.0,0.0,0.0,0.0,0.0,0.0,0.0,0.0,0.0,0.0,0.0,0.0,0.0,0.0,0.0,0.0,0.0,0.0,0.0,0.0,0.0,0.0,0.0,0.0,0.0,0.0,0.0,0.0,0.0,0.0,0.0,0.0,0.0,0.0,0.0,0.0,0.0,0.0,0.0,0.0,0.0,0.0,0.0,0.0,0.0,0.0,0.0,0.0,0.0,0.0,0.0,0.0,0.0,0.0,0.0,0.0,0.0,0.0,0.0,0.0,0.0,0.0,0.0,0.0,0.0,0.0,0.0,0.0,0.0,0.0,0.0,0.0,0.0,0.0,0.0,0.0,0.0,0.0,0.0,0.0,0.0,0.0,0.0,0.0,0.0,0.0,0.0,0.0,-0.6258,0.0,-0.6245,-0.6245,-0.6245,-0.6245,0.0,0.0,0.0,0.0,0.0,0.0,0.0,0.0,0.0,0.0,0.0,0.0,0.0,0.0,0.0,0.0,0.0,0.0,0.0,0.0,0.0,0.0,0.0,0.0,0.0,0.0,0.0,0.0,0.0,0.0,0.0,0.0,0.0,0.0,0.0,0.0,0.0,0.0,0.0,0.0,0.0,0.0,0.0,0.0,0.0,0.0,0.0,0.0,0.0,0.0,0.0,0.0,0.0,0.0,0.0,0.0,0.0,0.0,0.0,0.0,0.0,0.0,0.0,0.0,0.0,0.0,0.0,0.0,0.0,0.0,0.0,0.0,0.0,0.0,0.0,0.0,0.0,0.0,0.0,0.0,0.0,0.0,0.0,0.0,0.0,0.0,0.0,0.0,0.0,0.0,0.0,0.0,0.0,0.0,0.0,0.0,0.0,0.0,0.0,0.0,0.0,0.0,0.0,0.0,0.0,0.0,0.0,0.0,-0.6032,-0.5659,-0.5665,-0.5695,-0.5652,-0.5683,-0.5743,0.0,0.0,0.0,0.0,0.0,0.0,0.0,0.0,0.0,0.0,0.0,0.0,0.0,0.0,0.0,0.0,0.0,0.0,0.0,0.0,0.0,0.0,0.0,0.0,0.0,0.0,0.0,0.0,0.0,0.0,0.0,0.0,0.0,0.0,0.0,0.0,0.0,0.0,0.0,0.0,0.0,0.0,0.0,0.0,0.0,0.0,0.0,0.0,0.0,0.0,0.0,0.0,0.0,0.0,0.0,0.0,0.0,0.0,0.0,0.0,0.0,0.0,0.0,0.0,0.0,0.0,0.0,0.0,0.0,0.0,0.0,0.0,0.0,0.0,0.0,0.0,0.0,0.0,0.0,0.0,0.0,0.0,0.0,0.0,0.0,0.0,0.0,0.0,0.0,0.0,0.0,0.0,0.0,0.0,0.0,0.0,0.0,0.0,0.0,0.0,0.0,0.0,0.0,0.0,0.0,0.0,0.0,0.0,0.0,-0.5978,-0.5878,-0.597,-0.6237,-0.6325,-0.6239,0.0,0.0,0.0,0.0,0.0,0.0,0.0,0.0,0.0,0.0,0.0,0.0,0.0,0.0,0.0,0.0,0.0,0.0,0.0,0.0,0.0,0.0,0.0,0.0,0.0,0.0,0.0,0.0,0.0,0.0,0.0,0.0,0.0,0.0,0.0,0.0,0.0,0.0,0.0,0.0,0.0,0.0,0.0,0.0,0.0,0.0,0.0,0.0,0.0,0.0,0.0,0.0,0.0,0.0,0.0,0.0,0.0,0.0,0.0,0.0,0.0,0.0,0.0,0.0,0.0,0.0,0.0,0.0,0.0,0.0,0.0,0.0,0.0,0.0,0.0,0.0,0.0,0.0,0.0,0.0,0.0,0.0,0.0,0.0,0.0,0.0,0.0,0.0,0.0,0.0,0.0,0.0,0.0,0.0,0.0,0.0,0.0,0.0,0.0,0.0,0.0,0.0,0.0,0.0,0.0,0.0,0.0,0.0,0.0,-0.6392,-0.6166,-0.6149,-0.6432,-0.6385,-0.6286,-0.6222,0.0,0.0,0.0,0.0,0.0,0.0,0.0,0.0,0.0,0.0,0.0,0.0,0.0,0.0,0.0,0.0,0.0,0.0,0.0,0.0,0.0,0.0,0.0,0.0,0.0,0.0,0.0,0.0,0.0,0.0,0.0,0.0,0.0,0.0,0.0,0.0,0.0,0.0,0.0,0.0,0.0,0.0,0.0,0.0,0.0,0.0,0.0,0.0,0.0,0.0,0.0,0.0,0.0,0.0,0.0,0.0,0.0,0.0,0.0,0.0,0.0,0.0,0.0,0.0,0.0,0.0,0.0,0.0,0.0,0.0,0.0,0.0,0.0,0.0,0.0,0.0,0.0,0.0,0.0,0.0,0.0,0.0,0.0,0.0,0.0,0.0,0.0,0.0,0.0,0.0,0.0,0.0,0.0,0.0,0.0,0.0,0.0,0.0,0.0,0.0,0.0,0.0,0.0,0.0,0.0,0.0,0.0,0.0,-0.6828,-0.6504,-0.6283,-0.6165,-0.6051,-0.6056,0.0,0.0,0.0,0.0,0.0,0.0,0.0,0.0,0.0,0.0,0.0,0.0,0.0,0.0,0.0,0.0,0.0,0.0,0.0,0.0,0.0,0.0,0.0,0.0,0.0,0.0,0.0,0.0,0.0,0.0,0.0,0.0,0.0,0.0,0.0,0.0,0.0,0.0,0.0,0.0,0.0,0.0,0.0,0.0,0.0,0.0,0.0,0.0,0.0,0.0,0.0,0.0,0.0,0.0,0.0,0.0,0.0,0.0,0.0,0.0,0.0,0.0,0.0,0.0,0.0,0.0,0.0,0.0,0.0,0.0,0.0,0.0,0.0,0.0,0.0,0.0,0.0,0.0,0.0,0.0,0.0,0.0,0.0,0.0,0.0,0.0,0.0,0.0,0.0,0.0,0.0,0.0,0.0,0.0,0.0,0.0,0.0,0.0,0.0,0.0,0.0,0.0,0.0,0.0,0.0,0.0,0.0,0.0,0.0,-0.7182,-0.7708,-0.765,-0.7018,-0.6888,-0.6807,0.0,0.0,0.0,0.0,0.0,0.0,0.0,0.0,0.0,0.0,0.0,0.0,0.0,0.0,0.0,0.0,0.0,0.0,0.0,0.0,0.0,0.0,0.0,0.0,0.0,0.0,0.0,0.0,0.0,0.0,0.0,0.0,0.0,0.0,0.0,0.0,0.0,0.0,0.0,0.0,0.0,0.0,0.0,0.0,0.0,0.0,0.0,0.0,0.0,0.0,0.0,0.0,0.0,0.0,0.0,0.0,0.0,0.0,0.0,0.0,0.0,0.0,0.0,0.0,0.0,0.0,0.0,0.0,0.0,0.0,0.0,0.0,0.0,0.0,0.0,0.0,0.0,0.0,0.0,0.0,0.0,0.0,0.0,0.0,0.0,0.0,0.0,0.0,0.0,0.0,0.0,0.0,0.0,0.0,0.0,0.0,0.0,0.0,0.0,0.0,0.0,0.0,0.0,0.0,0.0,0.0,0.0,0.0,-0.7048,-0.7633,-0.8255,-0.8312,-0.7796,-0.7426,-0.7089,0.0,0.0,0.0,0.0,0.0,0.0,0.0,0.0,0.0,0.0,0.0,0.0,0.0,0.0,0.0,0.0,0.0,0.0,0.0,0.0,0.0,0.0,0.0,0.0,0.0,0.0,0.0,0.0,0.0,0.0,0.0,0.0,0.0,0.0,0.0,0.0,0.0,0.0,0.0,0.0,0.0,0.0,0.0,0.0,0.0,0.0,0.0,0.0,0.0,0.0,0.0,0.0,0.0,0.0,0.0,0.0,0.0,0.0,0.0,0.0,0.0,0.0,0.0,0.0,0.0,0.0,0.0,0.0,0.0,0.0,0.0,0.0,0.0,0.0,0.0,0.0,0.0,0.0,0.0,0.0,0.0,0.0,0.0,0.0,0.0,0.0,0.0,0.0,0.0,0.0,0.0,0.0,0.0,0.0,0.0,0.0,0.0,0.0,0.0,0.0,0.0,0.0,0.0,0.0,0.0,0.0,0.0,0.0,-0.7687,-0.8046,-0.8425,-0.8552,-0.8399,-0.7763,-0.7296,0.0,0.0,0.0,0.0,0.0,0.0,0.0,0.0,0.0,0.0,0.0,0.0,0.0,0.0,0.0,0.0,0.0,0.0,0.0,0.0,0.0,0.0,0.0,0.0,0.0,0.0,0.0,0.0,0.0,0.0,0.0,0.0,0.0,0.0,0.0,0.0,0.0,0.0,0.0,0.0,0.0,0.0,0.0,0.0,0.0,0.0,0.0,0.0,0.0,0.0,0.0,0.0,0.0,0.0,0.0,0.0,0.0,0.0,0.0,0.0,0.0,0.0,0.0,0.0,0.0,0.0,0.0,0.0,0.0,0.0,0.0,0.0,0.0,0.0,0.0,0.0,0.0,0.0,0.0,0.0,0.0,0.0,0.0,0.0,0.0,0.0,0.0,0.0,0.0,0.0,0.0,0.0,0.0,0.0,0.0,0.0,0.0,0.0,0.0,0.0,0.0,0.0,0.0,0.0,0.0,0.0,0.0,0.0,-0.7693,-0.8046,-0.8425,-0.8552,-0.8416,-0.8084,-0.7747,0.0,0.0,0.0,0.0,0.0,0.0,0.0,0.0,0.0,0.0,0.0,0.0,0.0,0.0,0.0,0.0,0.0,0.0,0.0,0.0,0.0,0.0,0.0,0.0,0.0,0.0,0.0,0.0,0.0,0.0,0.0,0.0,0.0,0.0,0.0,0.0,0.0,0.0,0.0,0.0,0.0,0.0,0.0,0.0,0.0,0.0,0.0,0.0,-1.1221,0.0,0.0,0.0,0.0,0.0,0.0,0.0,0.0,0.0,0.0,0.0,0.0,0.0,0.0,0.0,0.0,0.0,0.0,0.0,0.0,0.0,0.0,0.0,0.0,0.0,0.0,0.0,0.0,0.0,0.0,0.0,0.0,0.0,0.0,0.0,0.0,0.0,0.0,0.0,0.0,0.0,0.0,0.0,0.0,0.0,0.0,0.0,0.0,0.0,0.0,0.0,0.0,0.0,0.0,0.0,0.0,0.0,0.0,0.0,-0.7894,-0.8133,-0.8508,-0.8497,-0.8492,-0.8263,-0.7943,0.0,0.0,0.0,0.0,0.0,0.0,0.0,0.0,0.0,0.0,0.0,0.0,0.0,0.0,0.0,0.0,0.0,0.0,0.0,0.0,0.0,0.0,0.0,0.0,0.0,0.0,0.0,0.0,0.0,0.0,0.0,0.0,0.0,0.0,0.0,0.0,0.0,0.0,0.0,0.0,0.0,0.0,0.0,0.0,0.0,0.0,0.0,0.0,0.0,0.0,0.0,0.0,0.0,0.0,0.0,0.0,0.0,0.0,0.0,0.0,0.0,0.0,0.0,0.0,0.0,0.0,0.0,0.0,0.0,0.0,0.0,0.0,0.0,0.0,0.0,0.0,0.0,0.0,0.0,0.0,0.0,0.0,0.0,0.0,0.0,0.0,0.0,0.0,0.0,0.0,0.0,0.0,0.0,0.0,0.0,0.0,0.0,0.0,0.0,0.0,0.0,0.0,0.0,0.0,0.0,0.0,0.0,-0.7769,-0.8122,-0.8263,-0.8475,-0.859,-0.8584,-0.8356,-0.8024,-0.7589,0.0,0.0,0.0,0.0,0.0,0.0,0.0,0.0,0.0,0.0,0.0,0.0,0.0,0.0,0.0,0.0,0.0,0.0,0.0,0.0,0.0,0.0,0.0,0.0,0.0,0.0,0.0,0.0,0.0,0.0,0.0,0.0,0.0,0.0,0.0,0.0,0.0,0.0,-0.9532,-0.9542,0.0,0.0,0.0,0.0,0.0,0.0,0.0,0.0,-1.0364,0.0,0.0,0.0,0.0,0.0,0.0,0.0,0.0,0.0,0.0,0.0,0.0,0.0,0.0,0.0,0.0,0.0,0.0,0.0,0.0,0.0,0.0,0.0,0.0,0.0,0.0,0.0,0.0,0.0,0.0,0.0,0.0,0.0,0.0,0.0,0.0,0.0,0.0,0.0,0.0,0.0,0.0,0.0,0.0,0.0,0.0,0.0,0.0,0.0,0.0,0.0,0.0,0.0,0.0,0.0,0.0,-0.7459,-0.785,-0.8166,-0.8383,-0.8519,-0.859,-0.8579,-0.8356,-0.81,-0.7812,0.0,0.0,0.0,0.0,0.0,0.0,0.0,0.0,0.0,0.0,0.0,0.0,0.0,0.0,0.0,0.0,0.0,0.0,0.0,0.0,0.0,0.0,0.0,0.0,0.0,0.0,0.0,0.0,0.0,0.0,0.0,0.0,0.0,0.0,0.0,0.0,0.0,0.0,0.0,-0.9771,-0.9861,0.0,0.0,0.0,0.0,0.0,0.0,0.0,0.0,-1.0501,0.0,0.0,0.0,0.0,0.0,0.0,0.0,0.0,0.0,0.0,0.0,0.0,0.0,0.0,0.0,0.0,0.0,0.0,0.0,0.0,0.0,0.0,0.0,0.0,0.0,0.0,0.0,0.0,0.0,0.0,0.0,0.0,0.0,0.0,0.0,0.0,0.0,0.0,0.0,0.0,0.0,0.0,0.0,0.0,0.0,0.0,0.0,0.0,0.0,0.0,0.0,0.0,0.0,0.0,0.0,-0.7524,-0.7932,-0.8236,-0.8416,-0.853,-0.859,-0.8584,-0.8356,-0.8095,0.0,0.0,0.0,0.0,0.0,0.0,0.0,0.0,0.0,0.0,0.0,0.0,0.0,0.0,0.0,0.0,0.0,0.0,0.0,0.0,0.0,0.0,0.0,0.0,0.0,0.0,0.0,0.0,0.0,0.0,0.0,0.0,0.0,0.0,0.0,0.0,0.0,0.0,0.0,0.0,-0.9482,-0.9731,-0.9731,0.0,0.0,0.0,0.0,0.0,0.0,-1.0249,-1.0288,0.0,0.0,0.0,0.0,0.0,0.0,0.0,0.0,0.0,0.0,0.0,0.0,0.0,0.0,0.0,0.0,0.0,0.0,0.0,0.0,0.0,0.0,0.0,0.0,0.0,0.0,0.0,0.0,0.0,0.0,0.0,0.0,0.0,0.0,0.0,0.0,0.0,0.0,0.0,0.0,0.0,0.0,0.0,0.0,0.0,0.0,0.0,0.0,0.0,0.0,0.0,0.0,0.0,0.0,0.0,-0.7627,-0.803,-0.8307,-0.8448,-0.8541,-0.859,-0.8584,-0.8356,-0.8079,0.0,0.0,0.0,0.0,0.0,0.0,0.0,0.0,0.0,0.0,0.0,0.0,0.0,0.0,0.0,0.0,0.0,0.0,0.0,0.0,0.0,0.0,0.0,0.0,0.0,0.0,0.0,0.0,0.0,0.0,0.0,0.0,0.0,0.0,0.0,0.0,0.0,0.0,0.0,0.0,0.0,-0.9449,-0.9392,-0.9591,0.0,0.0,0.0,0.0,-0.9842,-1.0107,0.0,0.0,0.0,0.0,0.0,0.0,0.0,0.0,0.0,0.0,0.0,0.0,0.0,0.0,0.0,0.0,0.0,0.0,0.0,0.0,0.0,0.0,0.0,0.0,0.0,0.0,0.0,0.0,0.0,0.0,0.0,0.0,0.0,0.0,0.0,0.0,0.0,0.0,0.0,0.0,0.0,0.0,0.0,0.0,0.0,0.0,0.0,0.0,0.0,0.0,0.0,0.0,0.0,0.0,0.0,0.0,-0.797,-0.8149,-0.8345,-0.8557,-0.8579,-0.859,-0.8584,-0.8356,-0.8111,0.0,0.0,0.0,0.0,0.0,0.0,0.0,0.0,0.0,0.0,0.0,0.0,0.0,0.0,0.0,0.0,0.0,0.0,0.0,0.0,0.0,0.0,0.0,0.0,0.0,0.0,0.0,0.0,0.0,0.0,0.0,0.0,0.0,0.0,0.0,0.0,0.0,0.0,0.0,0.0,0.0,-0.956,-0.9445,-0.9632,-0.9721,0.0,0.0,-0.9849,-0.9998,-1.0019,0.0,0.0,0.0,0.0,0.0,0.0,0.0,0.0,0.0,0.0,0.0,0.0,0.0,0.0,0.0,0.0,0.0,0.0,0.0,0.0,0.0,0.0,0.0,0.0,0.0,0.0,0.0,0.0,0.0,0.0,0.0,0.0,0.0,0.0,0.0,0.0,0.0,0.0,0.0,0.0,0.0,0.0,0.0,0.0,0.0,0.0,0.0,0.0,0.0,0.0,0.0,0.0,0.0,0.0,0.0,-0.7589,-0.804,-0.8301,-0.8519,-0.8687,-0.8758,-0.8764,-0.8693,-0.8465,-0.816,0.0,0.0,0.0,0.0,0.0,0.0,0.0,0.0,0.0,0.0,0.0,0.0,0.0,0.0,0.0,0.0,0.0,0.0,0.0,0.0,0.0,0.0,0.0,0.0,0.0,0.0,0.0,0.0,0.0,0.0,0.0,0.0,0.0,0.0,0.0,0.0,0.0,0.0,0.0,0.0,0.0,0.0,-0.9268,-0.9318,0.0,0.0,0.0,-0.9526,-0.9748,0.0,0.0,0.0,0.0,0.0,0.0,0.0,0.0,0.0,0.0,0.0,0.0,0.0,0.0,0.0,0.0,0.0,0.0,0.0,0.0,0.0,0.0,0.0,0.0,0.0,0.0,0.0,0.0,0.0,0.0,0.0,0.0,0.0,0.0,0.0,0.0,0.0,0.0,0.0,0.0,0.0,0.0,0.0,0.0,0.0,0.0,0.0,0.0,0.0,0.0,0.0,0.0,0.0,0.0,0.0,0.0,0.0,-0.8138,-0.8437,-0.866,-0.8812,-0.8905,-0.8905,-0.8818,-0.8584,0.0,0.0,0.0,0.0,0.0,0.0,0.0,0.0,0.0,0.0,0.0,0.0,0.0,0.0,0.0,0.0,0.0,0.0,0.0,0.0,0.0,0.0,0.0,0.0,0.0,0.0,0.0,-0.7909,0.0,0.0,0.0,0.0,0.0,0.0,0.0,0.0,0.0,0.0,0.0,0.0,0.0,0.0,-0.9035,-0.8943,-0.9118,-0.9221,0.0,0.0,-0.9472,-0.9673,-0.9639,-0.9716,0.0,0.0,0.0,0.0,0.0,0.0,0.0,0.0,0.0,0.0,0.0,0.0,0.0,0.0,0.0,0.0,0.0,0.0,0.0,0.0,0.0,0.0,0.0,0.0,0.0,0.0,0.0,0.0,0.0,0.0,0.0,0.0,0.0,0.0,0.0,0.0,0.0,0.0,0.0,0.0,0.0,0.0,0.0,0.0,0.0,0.0,0.0,0.0,0.0,0.0,0.0,0.0,0.0,0.0,0.0,-0.8372,-0.8524,-0.8704,-0.8927,-0.8948,-0.8948,-0.8938,-0.8704,-0.8459,0.0,0.0,0.0,0.0,0.0,0.0,0.0,0.0,0.0,0.0,0.0,0.0,0.0,0.0,0.0,0.0,0.0,0.0,0.0,0.0,0.0,0.0,0.0,0.0,0.0,0.0,0.0,0.0,0.0,0.0,0.0,0.0,0.0,0.0,0.0,0.0,0.0,0.0,0.0,0.0,0.0,-0.8934,-0.8695,-0.9205,-0.9498,0.0,0.0,-0.982,-0.9832,-0.9722,-0.9545,-0.9294,0.0,0.0,0.0,0.0,0.0,0.0,0.0,0.0,0.0,0.0,0.0,0.0,0.0,0.0,0.0,0.0,0.0,0.0,0.0,0.0,0.0,0.0,0.0,0.0,0.0,0.0,0.0,0.0,0.0,0.0,0.0,0.0,0.0,0.0,0.0,0.0,0.0,0.0,0.0,0.0,0.0,0.0,0.0,0.0,0.0,0.0,0.0,0.0,0.0,0.0,0.0,0.0,0.0,-0.7341,-0.736,-0.7733,-0.7788,-0.7645,-0.7709,-0.7856,-0.7931,-0.7788,-0.7853,0.0,0.0,0.0,0.0,0.0,0.0,0.0,0.0,0.0,0.0,0.0,0.0,0.0,0.0,0.0,0.0,0.0,0.0,0.0,0.0,0.0,0.0,0.0,0.0,0.0,0.0,0.0,0.0,-0.8408,-0.8654,-0.8567,0.0,0.0,0.0,0.0,0.0,0.0,0.0,0.0,0.0,0.0,-0.869,-0.8677,-0.8929,0.0,0.0,-0.9064,-0.92,-0.928,-0.9255,-0.9221,-0.9127,-0.904,0.0,0.0,0.0,0.0,0.0,0.0,0.0,0.0,0.0,0.0,0.0,0.0,0.0,0.0,0.0,0.0,0.0,0.0,0.0,0.0,0.0,0.0,0.0,0.0,0.0,0.0,0.0,0.0,0.0,0.0,0.0,0.0,0.0,0.0,0.0,0.0,0.0,0.0,0.0,0.0,0.0,0.0,0.0,0.0,0.0,0.0,0.0,0.0,0.0,0.0,0.0,0.0,-0.6809,-0.6481,-0.6731,-0.6633,-0.6459,-0.6665,-0.6665,-0.6888,-0.6948,-0.707,0.0,0.0,0.0,0.0,0.0,0.0,0.0,0.0,0.0,0.0,0.0,0.0,0.0,0.0,0.0,0.0,0.0,0.0,0.0,0.0,0.0,0.0,0.0,0.0,0.0,0.0,0.0,0.0,-0.8184,-0.8443,-0.8347,0.0,0.0,0.0,0.0,0.0,0.0,0.0,0.0,0.0,0.0,-0.8621,-0.8557,-0.8796,-0.8938,-0.8905,-0.8856,-0.8856,-0.8938,-0.8916,-0.9035,-0.9001,0.0,0.0,0.0,0.0,0.0,0.0,0.0,0.0,0.0,0.0,0.0,0.0,0.0,0.0,0.0,0.0,0.0,0.0,0.0,0.0,0.0,0.0,0.0,0.0,0.0,0.0,0.0,0.0,0.0,0.0,-0.5337,0.0,0.0,0.0,0.0,0.0,0.0,0.0,0.0,0.0,0.0,0.0,0.0,0.0,0.0,0.0,0.0,0.0,0.0,0.0,0.0,0.0,0.0,-0.5831,-0.5904,-0.5797,-0.5672,-0.5808,-0.5818,-0.5818,-0.5815,-0.6033,-0.6379,-0.6565,0.0,0.0,0.0,0.0,0.0,0.0,0.0,0.0,0.0,0.0,0.0,0.0,0.0,0.0,0.0,0.0,0.0,0.0,0.0,0.0,0.0,0.0,0.0,0.0,0.0,0.0,-0.766,-0.8051,-0.8143,0.0,0.0,0.0,0.0,0.0,0.0,0.0,0.0,0.0,0.0,-0.8458,-0.8459,-0.8579,-0.8796,-0.891,-0.8796,-0.8872,-0.8943,-0.8948,-0.884,-0.8725,0.0,0.0,0.0,0.0,0.0,0.0,0.0,0.0,0.0,0.0,0.0,0.0,0.0,0.0,0.0,0.0,0.0,0.0,0.0,0.0,0.0,0.0,0.0,0.0,0.0,0.0,0.0,-0.3975,-0.4176,0.0,0.0,0.0,0.0,0.0,0.0,0.0,0.0,0.0,0.0,0.0,-0.1314,-0.1314,0.0,0.0,0.0,0.0,0.0,0.0,0.0,0.0,0.0,0.0,0.0,0.0,-0.4996,-0.4839,-0.4881,-0.4726,-0.4223,-0.426,-0.4278,-0.4128,-0.4145,-0.4681,-0.582,0.0,0.0,0.0,0.0,0.0,0.0,0.0,0.0,0.0,0.0,0.0,0.0,0.0,0.0,0.0,0.0,0.0,0.0,0.0,0.0,0.0,0.0,0.0,0.0,0.0,-0.7611,0.0,0.0,0.0,0.0,0.0,0.0,0.0,0.0,0.0,0.0,0.0,-0.8364,-0.8441,-0.8459,-0.86,-0.8802,-0.8899,-0.8938,0.0,0.0,0.0,0.0,0.0,0.0,0.0,0.0,0.0,0.0,0.0,0.0,0.0,0.0,-0.8256,-0.8051,-0.8106,-0.8343,-0.8225,0.0,0.0,0.0,0.0,0.0,0.0,0.0,0.0,0.0,0.0,0.0,0.0,0.0,0.0,-0.2752,0.0,-0.3342,0.0,0.0,0.0,0.0,0.0,0.0,0.0,0.0,-0.0486,0.0123,0.0626,0.0629,0.0126,0.0,-0.1142,-0.187,0.0,0.0,0.0,0.0,0.0,0.0,0.0,0.0,-0.4166,-0.3823,-0.3537,-0.305,-0.2658,-0.2682,-0.2693,-0.2542,-0.2862,-0.3582,-0.4635,-0.5504,-0.5884,0.0,0.0,0.0,0.0,0.0,0.0,0.0,0.0,0.0,0.0,0.0,0.0,0.0,0.0,0.0,0.0,0.0,0.0,0.0,0.0,0.0,0.0,0.0,-0.7774,0.0,0.0,0.0,0.0,0.0,0.0,0.0,0.0,0.0,-0.801,-0.829,-0.8582,-0.8573,-0.8666,-0.8774,-0.8932,0.0,0.0,0.0,0.0,0.0,0.0,0.0,-0.8742,-0.8823,-0.8807,-0.8818,-0.8932,-0.8889,-0.8834,-0.884,0.0,0.0,-0.8209,-0.8248,-0.8374,-0.838,-0.838,-0.8374,-0.838,-0.8314,-0.8274,0.0,0.0,0.0,0.0,0.0,0.0,0.0,0.0,-0.1199,-0.1437,0.0,-0.2005,0.0,0.0,0.0,0.0,0.0,-0.2341,0.0,0.0,0.0377,0.1274,0.22,0.2101,0.1453,0.0264,0.0134,-0.0269,-0.1073,-0.2417,0.0,0.0,0.0,0.0,0.0,0.0,-0.3058,-0.2945,-0.1731,-0.1035,-0.1058,-0.106,-0.1061,-0.1213,-0.197,-0.2711,-0.327,-0.4358,-0.5097,-0.5237,-0.609,0.0,0.0,0.0,0.0,0.0,0.0,0.0,0.0,0.0,0.0,0.0,0.0,0.0,0.0,0.0,0.0,0.0,0.0,0.0,0.0,-0.7986,0.0,0.0,0.0,0.0,0.0,0.0,0.0,0.0,0.0,0.0,-0.8231,-0.8443,-0.8682,-0.8921,0.0,0.0,0.0,0.0,-0.8948,-0.8948,-0.8948,-0.8954,-0.8954,-0.8954,-0.8959,-0.897,0.0,0.0,-0.9296,-0.9313,-0.9307,-0.9313,-0.9302,-0.9166,-0.8715,-0.8622,-0.8611,-0.8611,-0.8611,-0.8611,-0.8611,-0.8628,-0.8666,0.123,0.0,0.0,0.0,0.0,-0.0605,-0.0493,-0.0371,-0.0251,-0.0379,-0.0502,-0.0745,0.0,0.0,0.0,0.0,0.0,0.0,-0.0379,0.0657,0.1452,0.2009,0.2193,0.2202,0.193,0.1654,0.1107,0.0277,-0.097,-0.0409,-0.0926,-0.2407,0.0,0.0,0.0,0.0,-0.11,-0.0711,-0.0442,0.0,0.0605,0.0611,0.0308,-0.0311,-0.1243,-0.2009,-0.2748,-0.3029,-0.3729,-0.4802,-0.5789,0.0,0.0,0.0,0.0,0.0,0.0,0.0,0.0,0.0,0.0,0.0,0.0,0.0,0.0,0.0,0.0,0.0,0.0,0.0,-0.8117,-0.8084,-0.7975,0.0,0.0,0.0,0.0,0.0,0.0,0.0,0.0,0.0,-0.859,-0.8677,-0.8807,0.0,0.0,-0.8981,-0.9068,-0.9008,-0.8948,-0.8948,-0.8948,0.0,0.0,-0.9079,-0.9139,-0.9307,-0.9438,-0.953,-0.9563,-0.9568,-0.9563,-0.9563,-0.9563,-0.9514,-0.9394,-0.9215,-0.9106,-0.9101,-0.9101,-0.9101,-0.9101,-0.9166,-0.9231,0.1824,0.137,0.1254,0.1119,0.0982,0.1013,0.0898,0.09,0.0913,0.0916,0.091,0.0778,0.0258,-0.0385,-0.0887,0.0,0.0,0.0,0.0662,0.163,0.2049,0.2211,0.2245,0.2258,0.2263,0.2264,0.1563,0.0855,-0.0143,0.086,0.0705,-0.0272,0.0,0.0,-0.1192,-0.0549,0.0283,0.1162,0.105,0.1224,0.1845,0.1858,0.1403,0.0471,-0.0314,-0.0939,-0.1554,-0.2164,-0.2909,-0.3771,-0.5002,-0.5998,0.0,0.0,0.0,0.0,0.0,0.0,0.0,0.0,0.0,0.0,0.0,-0.7225,0.0,0.0,0.0,0.0,-0.8057,-0.8247,-0.8361,-0.8269,0.0,0.0,0.0,0.0,0.0,0.0,0.0,-0.8307,-0.8508,-0.872,-0.8948,-0.9024,-0.9073,-0.9128,-0.9111,-0.9117,-0.9193,0.0,-0.9182,-0.9231,-0.9237,-0.9264,-0.9334,-0.9345,-0.941,-0.9595,-0.9688,-0.9758,-0.9802,-0.9807,-0.9807,-0.9807,-0.9807,-0.9807,-0.9813,-0.9682,-0.9552,-0.947,-0.9449,-0.9449,-0.9449,-0.9508,-0.9557,0.2188,0.2157,0.2101,0.2078,0.2207,0.2239,0.2254,0.2255,0.215,0.2146,0.2255,0.2148,0.1744,0.0928,0.0537,0.0,0.027,0.0958,0.1653,0.2346,0.2237,0.2251,0.2253,0.2281,0.2294,0.2294,0.1888,0.1607,0.1316,0.1331,0.1776,0.2341,0.0988,0.0277,0.0277,0.0283,0.1017,0.2529,0.2439,0.2484,0.2512,0.2514,0.22,0.1413,0.0628,0.0157,0.0,-0.1395,-0.2311,-0.2461,-0.4063,-0.529,-0.6012,0.0,0.0,0.0,0.0,0.0,0.0,0.0,0.0,0.0,0.0,0.0,0.0,0.0,0.0,0.0,-0.8318,0.0,-0.8606,-0.8513,0.0,0.0,0.0,-0.8144,-0.8263,-0.8285,-0.8421,-0.8764,0.0,0.0,-0.9291,-0.9427,-0.9421,-0.9204,-0.9269,-0.9334,-0.9334,-0.9427,-0.9541,-0.9622,-0.9661,-0.9666,-0.9655,-0.9677,-0.972,-0.9824,-0.9851,-0.9889,-0.9981,-1.0008,-1.0014,-1.0003,-1.0019,-1.0014,-1.0014,-0.9992,-0.9954,-0.9731,-0.9699,-0.9699,-0.9699,-0.9704,-0.9709,0.223,0.2223,0.2208,0.2189,0.217,0.22,0.2213,0.2214,0.2221,0.2219,0.2214,0.2221,0.2081,0.1936,0.1804,0.1807,0.1807,0.1953,0.2106,0.2268,0.2277,0.2292,0.2312,0.232,0.2323,0.2324,0.2206,0.222,0.2073,0.2248,0.2258,0.2402,0.2083,0.1761,0.173,0.1901,0.2078,0.2564,0.245,0.2484,0.2512,0.2514,0.2357,0.22,0.2024,0.1394,0.062,-0.0153,-0.1065,-0.1976,-0.2719,-0.3869,-0.537,-0.5901,0.0,0.0,0.0,0.0,0.0,0.0,0.0,0.0,0.0,-0.7807,-0.7959,0.0,-0.8459,0.0,-0.8682,-0.8834,-0.8861,-0.8758,0.0,0.0,-0.8519,-0.8508,-0.8628,-0.8725,-0.8851,-0.9024,-0.9231,-0.9383,-0.9438,-0.9552,-0.9606,-0.9552,-0.9563,-0.9584,-0.9584,-0.9606,-0.9633,-0.9666,-0.9677,-0.9699,-0.9786,-0.9878,-0.9938,-0.997,-0.9976,-0.9987,-1.0014,-1.0019,-1.0019,-1.0019,-1.0019,-1.0019,-1.0019,-1.0019,-1.0003,-0.9949,-0.9938,-0.9938,-0.9938,-0.9932,-0.9932,0.2266,0.2267,0.2279,0.2274,0.2259,0.2249,0.2245,0.2245,0.2245,0.2245,0.2247,0.226,0.2273,0.2285,0.2285,0.2285,0.2283,0.2285,0.2293,0.2309,0.2309,0.2326,0.2353,0.2353,0.236,0.2373,0.239,0.2398,0.2401,0.2429,0.2444,0.2444,0.2457,0.2433,0.2378,0.2391,0.2401,0.2403,0.2447,0.2484,0.2512,0.25,0.2493,0.2493,0.2465,0.2142,0.153,0.076,-0.0151,-0.106,-0.1816,-0.2701,-0.3971,-0.4875,-0.567,0.0,0.0,0.0,0.0,0.0,0.0,0.0,0.0,0.0,0.0,0.0,-0.8715,-0.8823,-0.8905,-0.8976,-0.903,-0.8927,-0.8872,-0.8927,-0.8872,-0.8899,-0.9068,-0.915,-0.9237,-0.9356,-0.953,-0.9644,-0.9644,-0.9753,-0.9829,-0.9824,-0.9829,-0.9807,-0.9764,-0.9791,-0.9824,-0.9824,-0.9824,-0.9845,-0.9911,-0.9976,-1.0019,-1.0019,-1.0019,-1.0019,-1.0019,-1.0019,-1.0019,-1.0019,-1.0019,-1.0019,-1.0019,-1.0019,-1.0019,-1.0019,-1.0019,-1.0019,-1.0019,-1.0019,-1.0019,0.2303,0.2304,0.2324,0.2333,0.2328,0.2278,0.2256,0.2256,0.2256,0.2256,0.2259,0.2285,0.2309,0.2333,0.2333,0.2335,0.2338,0.2339,0.2341,0.2343,0.2345,0.2358,0.2383,0.2383,0.2398,0.2423,0.2427,0.2429,0.2431,0.2461,0.2474,0.2476,0.2502,0.2485,0.2432,0.2429,0.2414,0.2386,0.2444,0.2488,0.2512,0.2485,0.2469,0.2467,0.2436,0.2416,0.2412,0.1507,0.0602,0.0,-0.0905,-0.1803,-0.2373,-0.3774,-0.465,0.0,-0.5803,0.0,0.0,0.0,0.0,0.0,0.0,0.0,0.0,-0.8611,-0.8799,-0.904,-0.8965,-0.8949,-0.905,-0.9106,-0.9084,-0.9188,-0.9204,-0.9285,-0.9481,-0.9525,-0.9574,-0.9682,-0.9791,-0.9862,-0.9862,-0.9954,-1.0019,-1.0003,-0.9998,-0.9965,-0.9894,-0.9943,-1.0003,-1.0019,-1.0019,-0.9992,-1.0008,-1.0014,-1.0019,-1.0019,-1.0019,-1.0019,-1.0019,-1.0019,-1.0019,-1.0019,-1.0019,-1.0019,-1.0019,-1.0019,-1.0019,-1.0019,-1.0019,-1.0019,-1.0019,-1.0019,-1.0019,0.2361,0.236,0.2341,0.2333,0.2331,0.2322,0.2316,0.2316,0.2316,0.2316,0.2316,0.2322,0.2327,0.2333,0.2333,0.2346,0.2369,0.2369,0.2383,0.2406,0.2406,0.2409,0.2414,0.2414,0.2418,0.2425,0.2448,0.2461,0.2461,0.2491,0.2506,0.2506,0.2511,0.2496,0.2462,0.0,0.0,0.0,0.2474,0.2508,0.2512,0.2485,0.2469,0.2467,0.2414,0.0,0.2352,0.2057,0.1608,0.0579,-0.0,0.0,0.0,0.0,0.0,0.0,0.0,0.0,0.0,0.0,0.0,0.0,-0.6898,-0.7318,-0.781,-0.8043,-0.8295,-0.8498,-0.8805,-0.8953,-0.8974,-0.9398,-0.9541,-0.9563,-0.9568,-0.959,-0.9639,-0.9715,-0.978,-0.9802,-0.9911,-0.9981,-0.9981,-1.0008,-1.0019,-1.0019,-1.0019,-1.0014,-0.9987,-1.0003,-1.0019,-1.0019,-1.0019,-1.0019,-1.0019,-1.0019,-1.0019,-1.0019,-1.0019,-1.0019,-1.0019,-1.0019,-1.0019,-1.0019,-1.0019,-1.0019,-1.0019,-1.0019,-1.0019,-1.0019,-1.0019,-1.0019,-1.0019,-1.0019,-1.0019,0.2401,0.0,0.2384,0.2378,0.0,0.2378,0.2378,0.2376,0.2361,0.2364,0.2378,0.2378,0.2378,0.2378,0.2378,0.2386,0.2401,0.2401,0.2409,0.2423,0.2424,0.2432,0.2446,0.2446,0.2454,0.2469,0.2484,0.2491,0.2492,0.2507,0.2514,0.2514,0.2514,0.2499,0.247,0.2469,0.2462,0.2447,0.2477,0.2499,0.2512,0.2485,0.2462,0.2446,0.0,0.0,0.0,0.0,0.0,0.0,0.0,0.0,0.0,0.0,0.0,-0.2601,-0.3725,-0.4269,-0.4529,-0.5152,-0.5637,-0.567,-0.5743,-0.6308,-0.7287,-0.7451,-0.7752,-0.7845,-0.8163,-0.8464,-0.8765,-0.9065,-0.9543,-0.9742,-0.9753,-0.9775,-0.9835,-0.9894,-0.9927,-0.9932,-0.9981,-1.0019,-1.0019,-1.0019,-1.0019,-1.0019,-1.0019,-1.0019,-1.0019,-1.0019,-1.0019,-1.0019,-1.0019,-1.0019,-1.0019,-1.0019,-1.0019,-1.0019,-1.0019,-1.0019,-1.0019,-1.0019,-1.0019,-1.0019,-1.0019,-1.0019,-1.0019,-1.0019,-1.0019,-1.0019,-1.0019,-1.0019,-1.0019,-1.0019,-1.0019,0.2432,0.2431,0.2425,0.2424,0.2424,0.2424,0.2427,0.2429,0.0,0.0,0.0,0.2424,0.2424,0.2424,0.2424,0.2427,0.2432,0.2432,0.2433,0.2439,0.244,0.2453,0.2477,0.2477,0.2489,0.2514,0.2514,0.2514,0.2514,0.2514,0.2514,0.2514,0.2514,0.2502,0.2478,0.2477,0.2477,0.2477,0.2477,0.2489,0.2512,0.2485,0.2457,0.2432,0.2402,0.2372,0.2342,0.2346,0.2346,0.2341,0.1906,0.1475,0.1043,-0.0149,-0.0894,-0.1043,-0.2235,-0.298,-0.3427,-0.4034,-0.4359,-0.4563,-0.472,-0.5298,-0.6578,-0.6785,-0.6827,-0.6846,-0.7301,-0.7911,-0.8365,-0.8824,-0.9314,-0.9709,-0.9873,-0.9911,-1.0003,-1.0019,-1.0014,-1.0019,-1.0019,-1.0019,-1.0019,-1.0019,-1.0019,-1.0019,-1.0019,-1.0019,-1.0019,-1.0019,-1.0019,-1.0019,-1.0019,-1.0019,-1.0019,-1.0019,-1.0019,-1.0019,-1.0019,-1.0019,-1.0019,-1.0019,-1.0019,-1.0019,-1.0019,-1.0019,-1.0019,-1.0019,-1.0019,-1.0019,-1.0019,-1.0019,-1.0019,-1.0019,-1.0019,0.2462,0.2461,0.2435,0.2424,0.2424,0.2424,0.2438,0.2459,0.2429,0.242,0.2424,0.2424,0.2424,0.2424,0.2424,0.2438,0.2462,0.2462,0.2477,0.2502,0.2502,0.2504,0.2508,0.2508,0.251,0.2514,0.2514,0.2514,0.2514,0.2514,0.2514,0.2514,0.2514,0.2511,0.2508,0.2508,0.2508,0.2508,0.2508,0.251,0.2514,0.2484,0.2467,0.2462,0.2433,0.2403,0.2373,0.2397,0.2399,0.2373,0.2247,0.2262,0.2114,0.1208,0.0604,0.0453,-0.0906,-0.1812,-0.1812,-0.2744,-0.3546,-0.3899,-0.4218,-0.4505,-0.5066,-0.5217,-0.5402,-0.5767,-0.6544,-0.7329,-0.8106,-0.8876,-0.9501,-0.9832,-0.9992,-1.0003,-1.0019,-1.0019,-1.0019,-1.0019,-1.0019,-1.0019,-1.0019,-1.0019,-1.0019,-1.0019,-1.0019,-1.0019,-1.0019,-1.0019,-1.0019,-1.0019,-1.0019,-1.0019,-1.0019,-1.0019,-1.0025,-1.0019,-1.0025,-1.0041,-1.0052,-1.0052,-1.0052,-1.003,-1.0047,-1.0041,-1.0036,-1.0019,-1.0041,-1.0047,-1.0052,-1.0041,-1.0047,-1.0047,-1.0036,0.2493,0.2492,0.2478,0.2473,0.2473,0.2473,0.2481,0.2492,0.2478,0.2473,0.2473,0.2473,0.2473,0.2473,0.2473,0.248,0.2493,0.2493,0.25,0.2514,0.2514,0.2514,0.2514,0.2514,0.2514,0.2514,0.2514,0.2514,0.2514,0.2514,0.2514,0.2514,0.2514,0.2514,0.2514,0.2514,0.2514,0.2514,0.2514,0.2514,0.2514,0.25,0.2485,0.2469,0.2455,0.2435,0.2403,0.2416,0.2417,0.2403,0.2416,0.2431,0.2447,0.1988,0.1688,0.1698,0.0464,-0.0309,-0.0309,-0.1242,-0.2185,-0.2983,-0.3142,-0.3133,-0.2959,-0.358,-0.4213,-0.4393,-0.5332,-0.6271,-0.7053,-0.815,-0.8929,-0.9553,-0.9864,-1.0019,-1.0019,-1.0019,-1.0019,-1.0019,-1.0019,-1.0019,-1.0019,-1.0019,-1.0019,-1.0019,-1.0019,-1.0019,-1.0025,-1.0079,-1.009,-1.0036,-1.0019,-1.0019,-1.0019,-1.0019,-1.0047,-1.0106,-1.0117,-1.015,-1.0199,-1.0215,-1.0215,-1.0215,-1.0215,-1.0221,-1.0215,-1.0221,-1.0221,-1.0221,-1.0221,-1.0221,-1.0215,-1.0215,-1.0172,0.2514,0.2514,0.2514,0.2514,0.2514,0.2514,0.2514,0.2514,0.2514,0.2514,0.2514,0.2514,0.2514,0.2514,0.2514,0.2514,0.2514,0.2514,0.2514,0.2514,0.2514,0.2514,0.2514,0.2514,0.2514,0.2514,0.2514,0.2514,0.2514,0.2514,0.2514,0.2514,0.2514,0.2514,0.2514,0.2514,0.2514,0.2514,0.2514,0.2514,0.2514,0.2514,0.2503,0.2481,0.248,0.2467,0.2446,0.2444,0.2444,0.2443,0.2444,0.2455,0.2477,0.248,0.2489,0.2354,0.1728,0.1099,0.0785,-0.0,-0.1099,-0.2043,-0.2357,-0.22,-0.1728,-0.2356,-0.2983,-0.3297,-0.4081,-0.5019,-0.6271,-0.7365,-0.8462,-0.9241,-0.9708,-1.0019,-1.0019,-1.0019,-1.0019,-0.9864,-0.9864,-0.9864,-0.9864,-0.9864,-0.9864,-1.0019,-1.0041,-1.0063,-1.0074,-1.0166,-1.0193,-1.0139,-1.0101,-1.0117,-1.0101,-1.0112,-1.015,-1.0231,-1.0242,-1.028,-1.0346,-1.0378,-1.0378,-1.0367,-1.0373,-1.0362,-1.0378,-1.0378,-1.0367,-1.0362,-1.0356,-1.0367,-1.0362,-1.0362,-1.0329,0.2514,0.2514,0.2514,0.2514,0.2514,0.2514,0.2514,0.2514,0.2514,0.2514,0.2514,0.2514,0.2514,0.2514,0.2514,0.2514,0.2514,0.2514,0.2514,0.2514,0.2514,0.2514,0.2514,0.2514,0.2514,0.2514,0.2514,0.2514,0.2514,0.2514,0.2514,0.2514,0.2514,0.2514,0.2514,0.2514,0.2514,0.2514,0.2514,0.2514,0.2514,0.2514,0.2512,0.251,0.251,0.251,0.2503,0.2507,0.2506,0.2506,0.2504,0.2506,0.251,0.251,0.2511,0.2514,0.2357,0.1886,0.0942,0.0314,-0.0314,-0.0942,-0.1886,-0.2357,-0.2357,-0.1885,-0.1886,-0.2514,-0.3142,-0.4393,-0.6115,-0.7365,-0.8306,-0.9085,-0.9708,-1.0019,-1.0019,-1.0019,-0.9869,-0.9553,-0.9397,-0.9397,-0.9402,-0.9397,-0.9558,-0.9885,-0.9955,-1.0172,-1.0199,-1.0291,-1.0367,-1.0351,-1.0351,-1.0346,-1.0335,-1.0346,-1.0335,-1.0362,-1.0367,-1.0389,-1.0411,-1.0416,-1.0389,-1.0454,-1.0416,-1.0422,-1.0411,-1.0384,-1.0405,-1.0438,-1.0427,-1.04,-1.0389,-1.0405,-1.0389,0.2514,0.2514,0.2514,0.2514,0.2514,0.2514,0.2514,0.2514,0.2514,0.2514,0.2514,0.2514,0.2514,0.2514,0.2514,0.2514,0.2514,0.2514,0.2514,0.2514,0.2514,0.2514,0.2514,0.2514,0.2514,0.2514,0.2514,0.2514,0.2514,0.2514,0.2514,0.2514,0.2514,0.2514,0.2514,0.2514,0.2514,0.2514,0.2514,0.2514,0.2514,0.2514,0.2514,0.2514,0.2514,0.2514,0.2514,0.2514,0.2514,0.2514,0.2514,0.2514,0.2514,0.2514,0.2514,0.2514,0.2514,0.2357,0.1886,0.157,0.1256,0.0471,-0.0471,-0.1413,-0.2357,-0.1256,-0.0942,-0.1728,-0.2512,-0.3454,-0.5022,-0.6275,-0.7365,-0.815,-0.8934,-0.9246,-0.9246,-0.9085,-0.8774,-0.8618,-0.8462,-0.8306,-0.8306,-0.8462,-0.8959,-0.9478,-0.9866,-0.9919,-1.0302,-1.0411,-1.0476,-1.0492,-1.0541,-1.052,-1.0433,-1.0384,-1.0416,-1.0465,-1.0487,-1.0498,-1.0568,-1.059,-1.0596,-1.059,-1.0579,-1.0579,-1.0606,-1.059,-1.0596,-1.0579,-1.059,-1.059,-1.0596,-1.0596,-1.0596,0.2514,0.2514,0.2514,0.2514,0.2514,0.2514,0.2514,0.2514,0.2514,0.2514,0.2514,0.2514,0.2514,0.2514,0.2514,0.2514,0.2514,0.2514,0.2514,0.2514,0.2514,0.2514,0.2514,0.2514,0.2514,0.2514,0.2514,0.2514,0.2514,0.2514,0.2514,0.2514,0.2514,0.2514,0.2514,0.2514,0.2514,0.2514,0.2514,0.2518,0.2526,0.2526,0.2522,0.2515,0.2514,0.2514,0.2514,0.2514,0.2514,0.2514,0.2514,0.2514,0.2514,0.2514,0.2514,0.2514,0.2514,0.2514,0.2514,0.2514,0.22,0.1728,0.0942,-0.0,-0.1256,-0.0628,-0.0471,-0.1256,-0.2043,-0.2985,-0.4084,-0.5335,-0.6427,-0.7056,-0.7994,-0.8466,-0.8306,-0.7994,-0.7677,-0.7521,-0.7209,-0.7068,-0.7083,-0.7409,-0.8067,-0.8791,-0.9167,-0.9522,-0.9936,-1.0203,-1.0442,-1.0442,-1.0517,-1.0661,-1.0514,-1.0503,-1.053,-1.0563,-1.0606,-1.0634,-1.0721,-1.0726,-1.0732,-1.0666,-1.0721,-1.0726,-1.0688,-1.071,-1.0726,-1.0732,-1.0726,-1.0721,-1.0704,-1.0726,-1.0732,0.2514,0.2514,0.2514,0.2514,0.2514,0.2514,0.2514,0.2514,0.2514,0.2514,0.2514,0.2514,0.2514,0.2514,0.2514,0.2514,0.2514,0.2514,0.2514,0.2514,0.2514,0.2514,0.2514,0.2514,0.2514,0.2514,0.2514,0.2514,0.2514,0.2514,0.2514,0.2514,0.2514,0.2514,0.2514,0.2514,0.2515,0.2517,0.2518,0.2529,0.2555,0.2557,0.2544,0.2522,0.2517,0.2519,0.2517,0.2515,0.2517,0.2515,0.2518,0.2517,0.2517,0.2515,0.2517,0.2515,0.2514,0.2514,0.2514,0.2514,0.2514,0.2357,0.22,0.1571,0.0157,-0.0,-0.0314,-0.1256,-0.2043,-0.2828,-0.377,-0.4863,-0.5645,-0.6275,-0.7056,-0.7213,-0.7049,-0.6896,-0.658,-0.5958,-0.5808,-0.5682,-0.589,-0.6536,-0.705,-0.777,-0.8182,-0.8734,-0.9081,-0.9657,-1.0039,-1.0216,-1.0393,-1.0726,-1.0715,-1.0666,-1.0683,-1.0699,-1.0688,-1.0721,-1.0726,-1.0737,-1.0737,-1.0737,-1.0737,-1.0737,-1.0737,-1.0737,-1.0732,-1.0737,-1.0737,-1.0737,-1.0737,-1.0737,-1.0737,0.2514,0.2514,0.2514,0.2514,0.2514,0.2514,0.2514,0.2514,0.2514,0.2514,0.2514,0.2514,0.2514,0.2514,0.2514,0.2514,0.2514,0.2514,0.2514,0.2514,0.2514,0.2514,0.2514,0.2514,0.2514,0.2514,0.2514,0.2514,0.2514,0.2514,0.2514,0.2514,0.2514,0.2514,0.2514,0.2514,0.2523,0.2541,0.2544,0.2557,0.2583,0.2586,0.2581,0.2571,0.257,0.257,0.257,0.257,0.2571,0.257,0.257,0.257,0.2568,0.2553,0.2534,0.2517,0.2514,0.2514,0.2514,0.2514,0.2514,0.2514,0.2514,0.2357,0.157,0.0628,-0.0157,-0.0628,-0.1728,-0.2671,-0.2985,-0.3925,-0.4549,-0.5022,-0.5492,-0.5958,-0.5645,-0.5492,-0.5179,-0.487,-0.4579,-0.4623,-0.4826,-0.5166,-0.5677,-0.639,-0.692,-0.7451,-0.7999,-0.8711,-0.923,-0.9397,-0.9903,-1.0237,-1.0237,-1.0565,-1.0732,-1.0732,-1.0732,-1.0732,-1.0737,-1.0737,-1.0737,-1.0737,-1.0737,-1.0737,-1.0737,-1.0737,-1.0737,-1.0737,-1.0737,-1.0737,-1.0737,-1.0759,-1.0753,0.2537,0.2529,0.2529,0.2523,0.2514,0.2514,0.2514,0.2514,0.2514,0.2514,0.2514,0.2514,0.2514,0.2514,0.2514,0.2514,0.2514,0.2514,0.2514,0.2514,0.2514,0.2514,0.2514,0.2514,0.2514,0.2514,0.2514,0.2514,0.2514,0.2514,0.2514,0.2514,0.2514,0.2519,0.2527,0.2529,0.2544,0.2568,0.2574,0.2587,0.2612,0.2616,0.2622,0.263,0.2631,0.262,0.2604,0.2601,0.2601,0.2601,0.2601,0.2601,0.26,0.2583,0.2564,0.2545,0.2544,0.2542,0.2542,0.2542,0.2538,0.253,0.2529,0.2526,0.2359,0.1413,0.063,-0.0,-0.0948,-0.174,-0.2382,-0.2862,-0.3168,-0.3778,-0.4238,-0.4559,-0.4576,-0.4424,-0.4117,-0.3819,-0.3522,-0.3553,-0.375,-0.3921,-0.4108,-0.4811,-0.5316,-0.5835,-0.6703,-0.7554,-0.8227,-0.8395,-0.9063,-0.9736,-1.007,-1.0237,-1.057,-1.057,-1.0737,-1.0737,-1.0742,-1.0737,-1.0742,-1.0742,-1.0742,-1.0737,-1.0737,-1.0737,-1.0742,-1.0748,-1.0742,-1.0748,-1.077,-1.0802,-1.0829,0.2583,0.2562,0.256,0.2545,0.2523,0.2519,0.2517,0.2518,0.2515,0.2514,0.2514,0.2514,0.2514,0.2514,0.2514,0.2514,0.2514,0.2514,0.2514,0.2514,0.2514,0.2514,0.2514,0.2514,0.2514,0.2514,0.2514,0.2514,0.2514,0.2518,0.2519,0.2517,0.2522,0.2537,0.256,0.256,0.2574,0.2596,0.2602,0.2617,0.2643,0.2647,0.266,0.2683,0.2686,0.2661,0.2609,0.2607,0.2611,0.2608,0.2608,0.2604,0.2607,0.2602,0.2601,0.2596,0.2597,0.2598,0.2597,0.2596,0.2581,0.2564,0.256,0.2549,0.253,0.2367,0.1742,0.0638,0.0,-0.0642,-0.1944,-0.1947,-0.1772,-0.237,-0.3156,-0.3644,-0.3672,-0.3681,-0.3376,-0.2758,-0.2605,-0.2617,-0.2641,-0.2649,-0.2823,-0.301,-0.3523,-0.4195,-0.5206,-0.6047,-0.6721,-0.7391,-0.806,-0.8729,-0.9402,-1.007,-1.0409,-1.0576,-1.0737,-1.0737,-1.0748,-1.0753,-1.0786,-1.0797,-1.084,-1.0846,-1.0851,-1.0851,-1.0829,-1.0829,-1.0802,-1.0819,-1.0873,-1.0927,-1.0971,0.2597,0.2589,0.2589,0.2583,0.2572,0.2555,0.2545,0.2542,0.2525,0.2514,0.2514,0.2514,0.2514,0.2514,0.2514,0.2515,0.2514,0.2514,0.2514,0.2515,0.2515,0.2514,0.2514,0.2514,0.2514,0.2514,0.2514,0.2514,0.2519,0.2536,0.2545,0.2548,0.2564,0.2578,0.2587,0.259,0.2604,0.263,0.2632,0.2647,0.2675,0.2677,0.2683,0.2691,0.2692,0.2682,0.2665,0.2664,0.2664,0.2662,0.2664,0.2656,0.2638,0.2634,0.2623,0.2604,0.2601,0.2601,0.2602,0.2602,0.2601,0.259,0.2589,0.2585,0.2577,0.2574,0.2418,0.1618,0.1295,0.0324,-0.0488,-0.1139,-0.1298,-0.1611,-0.1932,-0.2092,-0.2102,-0.2106,-0.1954,-0.1807,-0.1647,-0.1656,-0.1668,-0.1673,-0.1674,-0.1847,-0.2355,-0.3197,-0.3532,-0.4204,-0.4875,-0.5547,-0.6553,-0.7566,-0.8248,-0.895,-0.9478,-0.9978,-1.0299,-1.064,-1.0808,-1.0824,-1.0851,-1.0878,-1.0922,-1.0949,-1.096,-1.096,-1.0938,-1.096,-1.0982,-1.1003,-1.1036,-1.1063,-1.109,0.2628,0.2619,0.2619,0.2612,0.2601,0.2582,0.2575,0.2572,0.2556,0.2547,0.2547,0.2547,0.2547,0.2547,0.2547,0.2547,0.2547,0.2547,0.2547,0.2541,0.2521,0.2515,0.2517,0.2527,0.2532,0.2534,0.2542,0.2547,0.2548,0.2564,0.2575,0.2579,0.2593,0.2608,0.2617,0.2619,0.2632,0.266,0.2664,0.2673,0.2688,0.2692,0.2692,0.2692,0.2692,0.2692,0.2692,0.2692,0.2692,0.2692,0.2692,0.2683,0.2665,0.2664,0.2656,0.2641,0.2637,0.2637,0.2635,0.2638,0.263,0.2622,0.2619,0.2612,0.2605,0.2604,0.2607,0.2455,0.2129,0.164,0.0988,0.0165,-0.033,-0.0824,-0.0817,-0.0816,-0.0818,-0.0822,-0.0826,-0.0832,-0.0833,-0.0836,-0.0839,-0.0842,-0.0842,-0.0842,-0.1346,-0.1851,-0.2187,-0.2859,-0.3365,-0.4212,-0.5071,-0.609,-0.6768,-0.7638,-0.8357,-0.9206,-1.0043,-1.0567,-1.0747,-1.0954,-1.0987,-1.0992,-1.1025,-1.1031,-1.1041,-1.1058,-1.1052,-1.1101,-1.1128,-1.1123,-1.1123,-1.1156,-1.1194,0.2675,0.265,0.265,0.2635,0.2612,0.2607,0.2605,0.2604,0.2598,0.2596,0.2597,0.2593,0.2596,0.2598,0.2592,0.2592,0.26,0.2594,0.2592,0.2581,0.2551,0.2529,0.2532,0.2552,0.2562,0.2564,0.2585,0.2596,0.2592,0.26,0.2604,0.2605,0.2612,0.2622,0.2645,0.2649,0.2662,0.2684,0.269,0.2691,0.2692,0.2692,0.2692,0.2692,0.2692,0.2692,0.2692,0.2692,0.2692,0.2692,0.2692,0.2691,0.2691,0.2692,0.2688,0.2684,0.269,0.2687,0.2688,0.2682,0.2675,0.2653,0.2649,0.2638,0.262,0.262,0.2627,0.2647,0.2485,0.2494,0.2345,0.1846,0.1007,0.0168,-0.0,0.0,0.0,0.0,0.0,0.0,0.0,0.0,0.0,0.0,0.0,0.0,0.0,-0.0673,-0.1179,-0.1853,-0.2358,-0.3213,-0.4083,-0.4611,-0.5303,-0.6173,-0.7063,-0.8473,-0.9316,-0.9826,-1.0693,-1.0897,-1.1139,-1.1145,-1.1134,-1.1134,-1.115,-1.1188,-1.1194,-1.1204,-1.1215,-1.1199,-1.1221,-1.1264,-1.1291,0.2688,0.268,0.268,0.2676,0.2665,0.2645,0.2635,0.2632,0.2612,0.2607,0.2602,0.2601,0.2605,0.2602,0.2604,0.2601,0.2605,0.2604,0.2601,0.26,0.2589,0.2579,0.2579,0.2586,0.259,0.2593,0.2602,0.2601,0.2604,0.2626,0.2635,0.2637,0.2654,0.2669,0.268,0.2679,0.2684,0.2691,0.2692,0.2692,0.2692,0.2692,0.2692,0.2692,0.2692,0.2692,0.2692,0.2692,0.2692,0.2692,0.2692,0.2692,0.2692,0.2692,0.2692,0.2692,0.2692,0.2692,0.2692,0.2692,0.2687,0.2682,0.2677,0.2677,0.2669,0.2668,0.2672,0.268,0.268,0.2683,0.2691,0.2523,0.1851,0.1009,0.0501,0.0,0.0,0.0,0.0,0.0,0.0,0.0,0.0,0.0,0.0,0.0,0.0,0.0,0.0,-0.0679,-0.1192,-0.2392,-0.3092,-0.3278,-0.3808,-0.4682,-0.5917,-0.753,-0.8403,-0.9074,-1.0121,-1.0998,-1.1264,-1.134,-1.1308,-1.1297,-1.134,-1.1378,-1.1362,-1.1313,-1.1335,-1.134,-1.1368,-1.1406,-1.1395,0.2692,0.2692,0.2692,0.2692,0.269,0.2673,0.2665,0.2662,0.2649,0.2639,0.2639,0.2639,0.2639,0.2639,0.2641,0.2641,0.2639,0.2639,0.2641,0.2641,0.2641,0.2626,0.2611,0.2612,0.2622,0.2623,0.2634,0.2641,0.2643,0.2658,0.2665,0.2668,0.2684,0.2691,0.269,0.2692,0.2692,0.2692,0.2692,0.2692,0.2692,0.2692,0.2692,0.2692,0.2692,0.2692,0.2692,0.2692,0.2692,0.2692,0.2692,0.2692,0.2692,0.2692,0.2692,0.2692,0.2692,0.2692,0.2692,0.2692,0.2692,0.2691,0.2692,0.2692,0.269,0.2692,0.2692,0.2691,0.2692,0.2692,0.2692,0.2692,0.2523,0.2018,0.1346,0.0842,0.0168,0.0,0.0,0.0,0.0,0.0,0.0,0.0,0.0,0.0,0.0,0.0,0.0,0.0,0.0,0.0,0.0,-0.2445,-0.2982,-0.3866,-0.4753,-0.6372,-0.7964,-0.8653,-0.9703,-1.093,-1.117,-1.1422,-1.1444,-1.1455,-1.1455,-1.1455,-1.1433,-1.1411,-1.1455,-1.1455,-1.1455,-1.1455,-1.1455,0.2692,0.2692,0.2692,0.2692,0.2692,0.2691,0.2688,0.2691,0.2687,0.2687,0.2687,0.269,0.2683,0.2692,0.268,0.2688,0.2688,0.2683,0.2686,0.2684,0.268,0.2661,0.2627,0.2642,0.2652,0.2654,0.268,0.2686,0.2683,0.2688,0.2691,0.2688,0.2691,0.2692,0.2692,0.2692,0.2692,0.2692,0.2692,0.2692,0.2692,0.2692,0.2692,0.2692,0.2692,0.2692,0.2692,0.2692,0.2692,0.2692,0.2692,0.2692,0.2692,0.2692,0.2692,0.2692,0.2692,0.2692,0.2692,0.2692,0.2692,0.2692,0.2692,0.2692,0.2692,0.2692,0.2692,0.2692,0.2692,0.2692,0.2692,0.2692,0.2692,0.2525,0.2527,0.1855,0.0675,0.0168,0.0168,0.0,0.0,0.0,0.0,0.0,0.0,0.0,0.0,0.0,0.0,0.0,0.0,0.0,0.0,-0.1592,-0.2308,-0.3029,-0.3924,-0.5186,-0.7321,-0.8554,-0.9619,-1.0692,-1.1245,-1.1455,-1.1455,-1.1455,-1.1455,-1.1455,-1.1455,-1.1455,-1.1455,-1.1455,-1.1455,-1.1455,-1.1455,0.2692,0.2692,0.2692,0.2692,0.2692,0.2692,0.2692,0.2692,0.2692,0.2692,0.2692,0.2692,0.2692,0.2692,0.2692,0.2692,0.2692,0.2692,0.2692,0.2692,0.2692,0.2687,0.2672,0.2677,0.268,0.2683,0.2688,0.2692,0.2692,0.2692,0.2692,0.2692,0.2692,0.2692,0.2692,0.2692,0.2692,0.2692,0.2692,0.2692,0.2692,0.2692,0.2692,0.2692,0.2692,0.2692,0.2692,0.2692,0.2692,0.2692,0.2692,0.2692,0.2692,0.2692,0.2692,0.2692,0.2692,0.2692,0.2692,0.2692,0.2692,0.2692,0.2692,0.2692,0.2692,0.2692,0.2692,0.2692,0.2692,0.2695,0.2699,0.2694,0.2698,0.2703,0.2717,0.2557,0.2213,0.1523,0.1012,0.0844,0.0,0.0,0.0,0.0,0.0,0.0,0.0,0.0,0.0,0.0,0.0,0.0,0.0,0.0,-0.1784,-0.2505,-0.3403,-0.4485,-0.6273,-0.8242,-0.9313,-1.0382,-1.0738,-1.1099,-1.1455,-1.1455,-1.1455,-1.1455,-1.1455,-1.1455,-1.1455,-1.1455,-1.1455,-1.1455,-1.1455,0.2692,0.2692,0.2692,0.2692,0.2692,0.2692,0.2692,0.2692,0.2692,0.2692,0.2692,0.2692,0.2692,0.2692,0.2692,0.2692,0.2692,0.2692,0.2692,0.2692,0.2692,0.2692,0.2692,0.2692,0.2692,0.2692,0.2692,0.2692,0.2692,0.2692,0.2692,0.2692,0.2692,0.2692,0.2692,0.2692,0.2692,0.2692,0.2692,0.2692,0.2692,0.2692,0.2692,0.2692,0.2692,0.2692,0.2692,0.2692,0.2692,0.2692,0.2692,0.2692,0.2692,0.2692,0.2692,0.2692,0.2692,0.2692,0.2692,0.2692,0.2692,0.2694,0.2692,0.2692,0.2692,0.2692,0.2692,0.2695,0.2705,0.2718,0.2732,0.2736,0.2735,0.2737,0.2748,0.2758,0.2757,0.223,0.2051,0.1881,0.0,0.0,0.0,0.0695,0.0,0.0,0.0,0.0,0.0,0.0,0.0,0.0,0.0,0.0,0.0,-0.2152,-0.3049,-0.4126,-0.538,-0.6991,-0.8421,-0.9313,-1.0382,-1.0916,-1.1455,-1.1455,-1.1455,-1.1455,-1.1455,-1.1455,-1.1455,-1.1455,-1.1455,-1.1455,-1.1455,0.2692,0.2692,0.2692,0.2692,0.2692,0.2692,0.2692,0.2692,0.2692,0.2692,0.2692,0.2692,0.2692,0.2692,0.2692,0.2692,0.2692,0.2692,0.2692,0.2692,0.2692,0.2692,0.2692,0.2692,0.2692,0.2692,0.2692,0.2692,0.2692,0.2692,0.2692,0.2692,0.2692,0.2692,0.2692,0.2692,0.2692,0.2692,0.2692,0.2692,0.2692,0.2692,0.2692,0.2692,0.2692,0.2692,0.2692,0.2692,0.2692,0.2692,0.2697,0.2699,0.2698,0.2694,0.2692,0.2692,0.2692,0.2697,0.2703,0.2703,0.2705,0.2703,0.2707,0.2709,0.271,0.2714,0.2716,0.272,0.2732,0.2752,0.2778,0.2776,0.2777,0.2781,0.2784,0.2789,0.2791,0.2793,0.2793,0.2605,0.2434,0.2092,0.1746,0.1577,0.1584,0.1591,0.1593,0.1598,0.161,0.1616,0.1254,0.0896,0.0,0.0,0.0,-0.1077,-0.1974,-0.3409,-0.4485,-0.5918,-0.7349,-0.8778,-0.9843,-1.0916,-1.1277,-1.1455,-1.1455,-1.1455,-1.1455,-1.1455,-1.1455,-1.1455,-1.1455,-1.1455,-1.1455,0.2692,0.2692,0.2692,0.2692,0.2692,0.2692,0.2692,0.2692,0.2692,0.2692,0.2692,0.2692,0.2692,0.2692,0.2692,0.2692,0.2692,0.2692,0.2692,0.2692,0.2692,0.2692,0.2692,0.2692,0.2692,0.2692,0.2692,0.2692,0.2692,0.2692,0.2692,0.2692,0.2692,0.2692,0.2692,0.2692,0.2692,0.2692,0.2692,0.2692,0.2692,0.2692,0.2692,0.2692,0.2695,0.2697,0.2695,0.2694,0.2692,0.2694,0.2717,0.2728,0.2727,0.271,0.2701,0.2701,0.2702,0.2712,0.2727,0.2731,0.2744,0.2761,0.2762,0.2763,0.2765,0.2765,0.2758,0.2765,0.2769,0.278,0.2782,0.2793,0.2787,0.2791,0.2807,0.2821,0.2825,0.2834,0.2833,0.2804,0.2811,0.2822,0.2472,0.23,0.231,0.2316,0.2318,0.2321,0.233,0.2335,0.2334,0.1974,0.0,0.0,0.0,-0.018,-0.0897,-0.2332,-0.3587,-0.4841,-0.6448,-0.8238,-0.9487,-1.0382,-1.1099,-1.1455,-1.1455,-1.1455,-1.1455,-1.1455,-1.1455,-1.1455,-1.1455,-1.1455,-1.1455,0.2692,0.2692,0.2692,0.2692,0.2692,0.2692,0.2692,0.2692,0.2692,0.2692,0.2692,0.2692,0.2692,0.2692,0.2692,0.2692,0.2692,0.2692,0.2692,0.2692,0.2692,0.2692,0.2692,0.2692,0.2692,0.2692,0.2692,0.2692,0.2692,0.2692,0.2692,0.2692,0.2692,0.2692,0.2692,0.2692,0.2692,0.2692,0.2692,0.2694,0.2694,0.2694,0.2694,0.2695,0.2709,0.2716,0.2718,0.2735,0.2739,0.2743,0.2754,0.2761,0.2758,0.2751,0.274,0.2739,0.2737,0.2743,0.2758,0.2762,0.2769,0.2778,0.2785,0.2784,0.2784,0.2782,0.2792,0.2803,0.2807,0.2814,0.283,0.2827,0.283,0.2831,0.2842,0.2849,0.2855,0.2866,0.2851,0.283,0.2841,0.2851,0.2853,0.2681,0.287,0.2874,0.2874,0.2874,0.2874,0.2874,0.2874,0.2694,0.2335,0.1976,0.1077,0.0718,0.0539,-0.0897,-0.269,-0.3943,-0.5375,-0.7163,-0.8595,-0.9669,-1.0382,-1.1099,-1.1455,-1.1455,-1.1455,-1.1455,-1.1455,-1.1455,-1.1455,-1.1455,-1.1455,0.2692,0.2692,0.2692,0.2692,0.2692,0.2692,0.2692,0.2692,0.2692,0.2692,0.2692,0.2692,0.2692,0.2692,0.2692,0.2692,0.2692,0.2692,0.2692,0.2692,0.2692,0.2692,0.2692,0.2692,0.2692,0.2692,0.2692,0.2692,0.2692,0.2692,0.2692,0.2692,0.2692,0.2692,0.2692,0.2692,0.2692,0.2694,0.2701,0.2702,0.2709,0.271,0.271,0.271,0.2735,0.2747,0.275,0.2765,0.2776,0.2778,0.2787,0.2792,0.2793,0.2799,0.2801,0.28,0.2791,0.2787,0.2792,0.2792,0.2797,0.2811,0.2804,0.2803,0.2806,0.2814,0.2815,0.2833,0.2838,0.2845,0.2861,0.2871,0.2871,0.287,0.287,0.2874,0.2871,0.2872,0.2872,0.2866,0.2874,0.2872,0.2868,0.2868,0.2874,0.2874,0.2874,0.2874,0.2874,0.2874,0.2874,0.2874,0.2694,0.2694,0.2335,0.1796,0.1436,0.0898,-0.1076,-0.2868,-0.4301,-0.5736,-0.7167,-0.8773,-0.9847,-1.056,-1.1099,-1.1455,-1.1455,-1.1455,-1.1455,-1.1455,-1.1455,-1.1455,-1.1455,0.2692,0.2692,0.2692,0.2692,0.2692,0.2692,0.2692,0.2692,0.2692,0.2692,0.2692,0.2692,0.2692,0.2692,0.2692,0.2692,0.2692,0.2692,0.2692,0.2692,0.2695,0.2698,0.2695,0.2692,0.2702,0.2705,0.2701,0.2692,0.2699,0.2699,0.2697,0.2699,0.2702,0.2695,0.2706,0.2706,0.2692,0.2699,0.272,0.2744,0.2763,0.2767,0.2766,0.2769,0.2774,0.2778,0.278,0.2789,0.2792,0.2793,0.2812,0.2822,0.2827,0.2849,0.286,0.2848,0.2822,0.2795,0.2818,0.2823,0.2831,0.2846,0.2855,0.2861,0.2855,0.2853,0.2856,0.2866,0.2867,0.2867,0.2872,0.2874,0.2874,0.2874,0.2874,0.2874,0.2874,0.2874,0.2874,0.2874,0.2874,0.2874,0.2872,0.2874,0.2874,0.2874,0.2874,0.2874,0.2874,0.2874,0.2874,0.2874,0.2874,0.2874,0.2874,0.2515,0.2335,0.2156,0.0359,-0.1614,-0.3047,-0.448,-0.6094,-0.7524,-0.8773,-1.0026,-1.0738,-1.1099,-1.1277,-1.1465,-1.1482,-1.1471,-1.1455,-1.146,-1.1504,0.2692,0.2692,0.2692,0.2692,0.2692,0.2692,0.2692,0.2692,0.2692,0.2692,0.2692,0.2692,0.2692,0.2692,0.2692,0.2692,0.2692,0.2694,0.2692,0.2701,0.2709,0.2718,0.2724,0.2735,0.2743,0.274,0.2744,0.2748,0.274,0.2728,0.2724,0.274,0.2743,0.2747,0.2737,0.2743,0.2744,0.275,0.2758,0.277,0.278,0.2784,0.2785,0.2785,0.28,0.2807,0.2812,0.2829,0.2833,0.2837,0.2851,0.2853,0.2856,0.2866,0.2874,0.2871,0.2852,0.2844,0.2852,0.2853,0.2861,0.2868,0.2874,0.2871,0.2874,0.2874,0.2874,0.2874,0.2874,0.2874,0.2874,0.2874,0.2874,0.2874,0.2874,0.2874,0.2874,0.2874,0.2874,0.2874,0.2874,0.2874,0.2874,0.2874,0.2874,0.2874,0.2874,0.2874,0.2874,0.2874,0.2874,0.2874,0.2874,0.2874,0.2874,0.2694,0.2694,0.2335,0.1616,-0.0359,-0.1794,-0.3406,-0.4838,-0.6273,-0.7706,-0.8778,-1.0026,-1.0748,-1.112,-1.1314,-1.1509,-1.1536,-1.1569,-1.1645,-1.1677,0.2692,0.2692,0.2692,0.2692,0.2692,0.2692,0.2692,0.2692,0.2692,0.2692,0.2692,0.2692,0.2692,0.2695,0.2701,0.2707,0.2706,0.2712,0.2714,0.2724,0.2735,0.2747,0.2754,0.2772,0.278,0.2784,0.2774,0.2781,0.2784,0.2776,0.2772,0.2784,0.2774,0.2778,0.2781,0.2778,0.2778,0.2791,0.2793,0.28,0.2808,0.2811,0.281,0.2815,0.2826,0.284,0.2844,0.2857,0.287,0.2871,0.287,0.287,0.2871,0.2872,0.2874,0.2874,0.2866,0.2867,0.287,0.287,0.2874,0.2874,0.2874,0.2874,0.2874,0.2874,0.2874,0.2874,0.2874,0.2874,0.2874,0.2874,0.2874,0.2874,0.2874,0.2874,0.2874,0.2874,0.2874,0.2874,0.2874,0.2874,0.2874,0.2874,0.2874,0.2874,0.2874,0.2874,0.2874,0.2874,0.2874,0.2874,0.2874,0.2874,0.2874,0.2874,0.2874,0.2694,0.1976,0.1078,-0.0359,-0.1795,-0.3228,-0.4841,-0.6287,-0.7743,-0.8844,-0.9904,-1.0789,-1.1194,-1.1421,-1.1656,-1.171,-1.1786,-1.1835,0.2692,0.2692,0.2692,0.2692,0.2692,0.2692,0.2692,0.2697,0.2694,0.2697,0.2702,0.2695,0.2701,0.2703,0.2724,0.2735,0.2736,0.2765,0.2766,0.277,0.278,0.278,0.2785,0.2788,0.2792,0.2792,0.2797,0.281,0.2819,0.2821,0.2804,0.2788,0.2799,0.2789,0.2791,0.28,0.2808,0.2821,0.2825,0.2838,0.2852,0.2859,0.286,0.2861,0.2867,0.2871,0.2871,0.2872,0.2874,0.2874,0.2874,0.2874,0.2874,0.2874,0.2874,0.2874,0.2874,0.2874,0.2874,0.2874,0.2874,0.2874,0.2874,0.2874,0.2874,0.2874,0.2874,0.2874,0.2874,0.2874,0.2874,0.2874,0.2874,0.2874,0.2874,0.2874,0.2874,0.2874,0.2874,0.2874,0.2874,0.2874,0.2874,0.2874,0.2874,0.2874,0.2874,0.2874,0.2874,0.2874,0.2874,0.2874,0.2874,0.2874,0.2874,0.2874,0.2874,0.2874,0.2515,0.1978,0.1259,-0.018,-0.1801,-0.3253,-0.4715,-0.6356,-0.7827,-0.9113,-1.0216,-1.076,-1.1154,-1.1598,-1.1835,-1.1895,-1.1938,0.2692,0.2694,0.2713,0.271,0.2692,0.2692,0.2703,0.2718,0.272,0.2732,0.2747,0.2748,0.2748,0.2751,0.2757,0.2766,0.2766,0.2776,0.2785,0.2791,0.2799,0.281,0.2815,0.2827,0.284,0.2837,0.2838,0.2842,0.2855,0.2853,0.2852,0.2841,0.2833,0.284,0.284,0.2833,0.2844,0.2849,0.2856,0.2864,0.2868,0.2874,0.2874,0.2874,0.2874,0.2874,0.2874,0.2874,0.2874,0.2874,0.2874,0.2874,0.2874,0.2874,0.2874,0.2874,0.2874,0.2874,0.2874,0.2874,0.2874,0.2874,0.2874,0.2874,0.2874,0.2874,0.2874,0.2874,0.2874,0.2874,0.2874,0.2874,0.2874,0.2874,0.2874,0.2874,0.2874,0.2874,0.2874,0.2874,0.2874,0.2874,0.2874,0.2874,0.2874,0.2874,0.2874,0.2874,0.2874,0.2874,0.2874,0.2874,0.2874,0.2874,0.2874,0.2874,0.2875,0.2876,0.2879,0.2528,0.1993,0.1269,-0.0363,-0.1824,-0.3296,-0.4772,-0.6629,-0.8504,-0.9618,-1.0321,-1.0921,-1.1573,-1.1796,-1.2004,-1.2031,0.2698,0.2707,0.2729,0.2725,0.2707,0.2716,0.2731,0.2748,0.2751,0.2762,0.2784,0.2784,0.2784,0.2785,0.2795,0.2797,0.28,0.2808,0.2811,0.2821,0.2833,0.2841,0.2849,0.2857,0.2866,0.2874,0.2874,0.2872,0.2871,0.2874,0.287,0.2868,0.2874,0.2871,0.2871,0.2874,0.2874,0.2874,0.2874,0.2874,0.2874,0.2874,0.2874,0.2874,0.2874,0.2874,0.2874,0.2874,0.2874,0.2874,0.2874,0.2874,0.2874,0.2874,0.2874,0.2874,0.2874,0.2874,0.2874,0.2874,0.2874,0.2874,0.2874,0.2874,0.2874,0.2874,0.2874,0.2874,0.2874,0.2874,0.2874,0.2874,0.2874,0.2874,0.2874,0.2874,0.2874,0.2874,0.2874,0.2874,0.2874,0.2875,0.2876,0.2876,0.2879,0.2878,0.2874,0.2874,0.2874,0.2874,0.2874,0.2874,0.2874,0.2874,0.2874,0.2886,0.2897,0.2901,0.2905,0.2919,0.256,0.183,0.11,-0.0184,-0.166,-0.3337,-0.5215,-0.7107,-0.8397,-0.9666,-1.0478,-1.1121,-1.1517,-1.172,-1.193,0.2709,0.2736,0.2739,0.2739,0.2743,0.2769,0.278,0.2784,0.2785,0.2788,0.2793,0.2792,0.2792,0.2797,0.2819,0.2827,0.2833,0.2852,0.2861,0.2861,0.286,0.2868,0.287,0.2874,0.2874,0.2874,0.2874,0.2874,0.2874,0.2874,0.2874,0.2874,0.2874,0.2874,0.2874,0.2874,0.2874,0.2874,0.2874,0.2874,0.2874,0.2874,0.2874,0.2874,0.2874,0.2874,0.2874,0.2874,0.2874,0.2874,0.2874,0.2874,0.2874,0.2874,0.2874,0.2874,0.2874,0.2874,0.2874,0.2874,0.2874,0.2874,0.2874,0.2874,0.2874,0.2874,0.2874,0.2874,0.2874,0.2874,0.2874,0.2874,0.2874,0.2874,0.2874,0.2874,0.2874,0.2874,0.2874,0.2878,0.2876,0.2875,0.2878,0.2879,0.2883,0.2882,0.2876,0.2876,0.2879,0.2883,0.2887,0.2898,0.29,0.29,0.2905,0.2911,0.2917,0.2923,0.2931,0.2943,0.2954,0.259,0.1852,0.1298,-0.0186,-0.2251,-0.3956,-0.5674,-0.7346,-0.9016,-1.0009,-1.0824,-1.1222,-1.1416,-1.1605,0.271,0.274,0.2759,0.278,0.2795,0.2787,0.2795,0.2815,0.2833,0.2844,0.2844,0.2844,0.2844,0.2848,0.2849,0.2857,0.286,0.2863,0.2874,0.2874,0.2874,0.2874,0.2874,0.2874,0.2874,0.2874,0.2874,0.2874,0.2874,0.2874,0.2874,0.2874,0.2874,0.2874,0.2874,0.2874,0.2874,0.2874,0.2874,0.2874,0.2874,0.2874,0.2874,0.2874,0.2874,0.2874,0.2874,0.2874,0.2874,0.2874,0.2874,0.2874,0.2874,0.2874,0.2874,0.2874,0.2874,0.2874,0.2874,0.2874,0.2874,0.2874,0.2874,0.2874,0.2874,0.2874,0.2874,0.2874,0.2874,0.2874,0.2874,0.2874,0.2874,0.2874,0.2874,0.2874,0.2874,0.2874,0.2875,0.2882,0.2883,0.2909,0.292,0.2913,0.2913,0.2906,0.2902,0.29,0.2902,0.2908,0.2912,0.2931,0.2939,0.2936,0.2936,0.2941,0.2945,0.295,0.2956,0.2964,0.2975,0.299,0.2813,0.2257,0.0567,-0.0949,-0.3036,-0.4936,-0.6838,-0.836,-0.9324,-1.028,-1.0659,-1.1037,-1.1227,0.2717,0.2754,0.2774,0.2807,0.2837,0.2823,0.2826,0.2846,0.2866,0.2874,0.2874,0.2874,0.2872,0.2872,0.2874,0.2874,0.2874,0.2874,0.2874,0.2874,0.2874,0.2874,0.2874,0.2874,0.2874,0.2874,0.2874,0.2874,0.2874,0.2874,0.2874,0.2874,0.2874,0.2874,0.2874,0.2874,0.2874,0.2874,0.2874,0.2874,0.2874,0.2874,0.2874,0.2874,0.2874,0.2874,0.2874,0.2874,0.2874,0.2874,0.2874,0.2874,0.2874,0.2874,0.2874,0.2874,0.2874,0.2874,0.2874,0.2874,0.2874,0.2874,0.2874,0.2874,0.2874,0.2874,0.2874,0.2874,0.2875,0.2876,0.2878,0.2878,0.2882,0.2882,0.289,0.289,0.2904,0.2905,0.2905,0.2909,0.2916,0.2942,0.296,0.2954,0.2949,0.2939,0.293,0.293,0.293,0.2932,0.2939,0.2956,0.2965,0.2958,0.296,0.2969,0.2973,0.2977,0.2986,0.2995,0.3007,0.3024,0.3037,0.3046,0.1903,0.019,-0.2284,-0.4381,-0.628,-0.7609,-0.8375,-0.9328,-1.028,-1.0469,-1.0469,0.2728,0.278,0.2784,0.2818,0.2867,0.2868,0.2871,0.2872,0.2874,0.2874,0.2874,0.2874,0.2874,0.2874,0.2874,0.2874,0.2874,0.2874,0.2874,0.2874,0.2874,0.2874,0.2874,0.2874,0.2874,0.2874,0.2874,0.2874,0.2874,0.2874,0.2874,0.2874,0.2874,0.2874,0.2874,0.2874,0.2874,0.2874,0.2874,0.2874,0.2874,0.2874,0.2874,0.2874,0.2874,0.2874,0.2874,0.2874,0.2874,0.2874,0.2874,0.2874,0.2874,0.2874,0.2874,0.2874,0.2874,0.2874,0.2874,0.2874,0.2874,0.2875,0.2878,0.2876,0.2874,0.2875,0.2878,0.2882,0.2885,0.2885,0.2885,0.2891,0.2898,0.2906,0.2916,0.2928,0.2946,0.2951,0.2951,0.2953,0.2957,0.2971,0.298,0.298,0.2986,0.2983,0.2977,0.2976,0.2973,0.2962,0.2969,0.2977,0.2981,0.2975,0.2981,0.2998,0.3003,0.3009,0.3022,0.3033,0.3046,0.3047,0.3048,0.305,0.3051,0.1334,-0.1525,-0.3812,-0.5715,-0.6666,-0.7429,-0.8379,-0.9328,-0.9707,-0.9901,0.2728,0.2782,0.2784,0.2818,0.287,0.2874,0.2874,0.2874,0.2874,0.2874,0.2874,0.2874,0.2874,0.2874,0.2874,0.2874,0.2874,0.2874,0.2874,0.2874,0.2874,0.2874,0.2874,0.2874,0.2874,0.2874,0.2874,0.2874,0.2874,0.2874,0.2874,0.2874,0.2874,0.2874,0.2874,0.2874,0.2874,0.2874,0.2874,0.2874,0.2874,0.2874,0.2874,0.2874,0.2874,0.2874,0.2874,0.2874,0.2874,0.2874,0.2874,0.2874,0.2874,0.2874,0.2874,0.2874,0.2874,0.2874,0.2874,0.2875,0.2876,0.2883,0.2893,0.2889,0.2882,0.2882,0.2889,0.2898,0.2905,0.2908,0.2916,0.2924,0.2931,0.2941,0.2949,0.2958,0.2973,0.2979,0.2979,0.2981,0.2986,0.2999,0.3009,0.3017,0.3021,0.3024,0.3024,0.302,0.3013,0.3001,0.2998,0.3006,0.301,0.3006,0.3017,0.3033,0.3036,0.3041,0.305,0.3052,0.3051,0.305,0.3052,0.3052,0.2862,0.1144,-0.1334,-0.305,-0.4573,-0.5905,-0.6856,-0.7616,-0.8379,-0.8759,-0.9138,0.2721,0.2765,0.2778,0.2818,0.2868,0.2874,0.2874,0.2874,0.2874,0.2874,0.2874,0.2874,0.2874,0.2874,0.2874,0.2874,0.2874,0.2874,0.2874,0.2874,0.2874,0.2874,0.2874,0.2874,0.2874,0.2874,0.2874,0.2874,0.2874,0.2874,0.2874,0.2874,0.2874,0.2874,0.2874,0.2874,0.2874,0.2874,0.2874,0.2874,0.2874,0.2874,0.2874,0.2874,0.2874,0.2874,0.2874,0.2874,0.2874,0.2874,0.2874,0.2874,0.2874,0.2874,0.2874,0.2874,0.2874,0.2874,0.2876,0.2887,0.2889,0.2898,0.2917,0.2923,0.292,0.2919,0.2924,0.2931,0.2935,0.2939,0.2951,0.2962,0.2971,0.2977,0.2981,0.2986,0.2992,0.2999,0.3002,0.3003,0.3014,0.3031,0.3041,0.305,0.3051,0.3044,0.3041,0.304,0.3037,0.3031,0.3029,0.3033,0.304,0.3043,0.3052,0.3052,0.305,0.3048,0.305,0.3052,0.3052,0.3052,0.3052,0.2862,0.2671,0.1144,-0.0191,-0.1525,-0.305,-0.4383,-0.5715,-0.6669,-0.7429,-0.8189,-0.8569,0.271,0.2743,0.2773,0.2822,0.287,0.2874,0.2874,0.2874,0.2874,0.2874,0.2874,0.2874,0.2874,0.2874,0.2874,0.2874,0.2874,0.2874,0.2874,0.2874,0.2874,0.2874,0.2874,0.2874,0.2874,0.2874,0.2874,0.2874,0.2874,0.2874,0.2874,0.2874,0.2874,0.2874,0.2874,0.2874,0.2874,0.2874,0.2874,0.2874,0.2874,0.2874,0.2874,0.2874,0.2874,0.2874,0.2874,0.2874,0.2874,0.2874,0.2874,0.2874,0.2874,0.2874,0.2874,0.2881,0.2883,0.289,0.2897,0.2911,0.2917,0.293,0.2946,0.2958,0.2958,0.2946,0.2947,0.2961,0.2966,0.2976,0.2987,0.2994,0.3001,0.3007,0.3011,0.3017,0.3022,0.3026,0.3028,0.3029,0.3033,0.3047,0.3047,0.3052,0.3052,0.3052,0.3052,0.3052,0.3051,0.3048,0.305,0.3051,0.3052,0.3052,0.3052,0.3052,0.3052,0.3052,0.3052,0.3052,0.3052,0.3052,0.3052,0.3052,0.2862,0.2479,0.1526,0.0,-0.1334,-0.267,-0.4004,-0.553,-0.6482,-0.7239,-0.7999,0.271,0.2743,0.2796,0.284,0.2872,0.2874,0.2874,0.2874,0.2874,0.2874,0.2874,0.2874,0.2874,0.2874,0.2874,0.2874,0.2874,0.2874,0.2874,0.2874,0.2874,0.2874,0.2874,0.2874,0.2874,0.2874,0.2874,0.2874,0.2874,0.2874,0.2874,0.2874,0.2874,0.2874,0.2874,0.2874,0.2874,0.2874,0.2874,0.2874,0.2874,0.2874,0.2874,0.2874,0.2874,0.2874,0.2874,0.2874,0.2874,0.2874,0.2874,0.2874,0.2874,0.2875,0.2887,0.2901,0.2906,0.2916,0.293,0.2942,0.2949,0.296,0.2975,0.2988,0.299,0.2972,0.2971,0.2987,0.3001,0.301,0.3018,0.3024,0.3028,0.3033,0.3039,0.3046,0.3051,0.3052,0.3052,0.3052,0.3052,0.3052,0.3052,0.3052,0.3052,0.3052,0.3052,0.3052,0.3052,0.3051,0.3051,0.3052,0.3052,0.3052,0.3052,0.3052,0.3052,0.3052,0.3052,0.3052,0.3052,0.3052,0.3052,0.3052,0.3052,0.2671,0.2479,0.1716,0.0381,-0.1144,-0.2288,-0.3623,-0.5149,-0.6098,-0.7239,0.2702,0.2725,0.2782,0.2834,0.287,0.2874,0.2874,0.2874,0.2874,0.2874,0.2874,0.2874,0.2874,0.2874,0.2874,0.2874,0.2874,0.2874,0.2874,0.2874,0.2874,0.2874,0.2874,0.2874,0.2874,0.2874,0.2874,0.2874,0.2874,0.2874,0.2874,0.2874,0.2874,0.2874,0.2874,0.2874,0.2874,0.2874,0.2874,0.2874,0.2874,0.2874,0.2874,0.2874,0.2874,0.2875,0.2874,0.2874,0.2874,0.2881,0.2886,0.2906,0.2912,0.2919,0.2923,0.2931,0.2938,0.2943,0.2961,0.2973,0.298,0.2991,0.3009,0.3024,0.3026,0.3013,0.3013,0.3026,0.3026,0.3036,0.3037,0.3041,0.3041,0.3046,0.3047,0.305,0.3052,0.3052,0.3052,0.3052,0.3052,0.3052,0.3052,0.3052,0.3052,0.3052,0.3052,0.3052,0.3052,0.3052,0.3052,0.3052,0.3052,0.3052,0.3052,0.3052,0.3052,0.3052,0.3052,0.3052,0.3052,0.3052,0.3052,0.3052,0.3052,0.3052,0.2671,0.2288,0.1716,0.0381,-0.0763,-0.1907,-0.3432,-0.4766,-0.5715,0.2695,0.2706,0.2761,0.2816,0.2864,0.2872,0.2874,0.2874,0.2874,0.2874,0.2874,0.2874,0.2874,0.2874,0.2874,0.2874,0.2874,0.2874,0.2874,0.2874,0.2874,0.2874,0.2874,0.2874,0.2874,0.2874,0.2874,0.2874,0.2874,0.2874,0.2874,0.2874,0.2874,0.2874,0.2874,0.2874,0.2874,0.2874,0.2874,0.2874,0.2874,0.2874,0.2874,0.2874,0.2878,0.2879,0.2879,0.2885,0.2885,0.2896,0.2912,0.2928,0.2942,0.2949,0.2958,0.2964,0.2968,0.2973,0.2984,0.3002,0.3009,0.302,0.3041,0.305,0.305,0.305,0.3048,0.3048,0.305,0.305,0.3051,0.3052,0.3052,0.3052,0.3052,0.3052,0.3052,0.3052,0.3052,0.3052,0.3052,0.3052,0.3052,0.3052,0.3052,0.3052,0.3052,0.3052,0.3052,0.3052,0.3052,0.3052,0.3052,0.3052,0.3052,0.3052,0.3052,0.3052,0.3052,0.3052,0.3052,0.3052,0.3052,0.3052,0.3052,0.3052,0.3052,0.2862,0.2288,0.1526,0.0572,-0.0572,-0.1526,-0.305,-0.4002,0.2706,0.2732,0.2769,0.2804,0.284,0.2863,0.2874,0.2874,0.2874,0.2874,0.2874,0.2874,0.2874,0.2874,0.2874,0.2874,0.2874,0.2874,0.2874,0.2874,0.2874,0.2874,0.2874,0.2874,0.2874,0.2874,0.2874,0.2874,0.2874,0.2874,0.2874,0.2874,0.2874,0.2874,0.2874,0.2874,0.2874,0.2875,0.2878,0.2879,0.2878,0.2876,0.2875,0.2882,0.2896,0.2902,0.2913,0.2932,0.2942,0.2947,0.295,0.2958,0.2968,0.2975,0.2981,0.2994,0.2998,0.3007,0.302,0.3029,0.3036,0.3037,0.3051,0.3051,0.3051,0.3051,0.3051,0.3051,0.3051,0.3051,0.3052,0.3052,0.3052,0.3052,0.3052,0.3052,0.3052,0.3052,0.3052,0.3052,0.3052,0.3052,0.3052,0.3052,0.3052,0.3052,0.3052,0.3052,0.3052,0.3052,0.3052,0.3052,0.3052,0.3052,0.3052,0.3052,0.3052,0.3052,0.3052,0.3052,0.3052,0.3052,0.3052,0.3052,0.3052,0.3052,0.3052,0.3052,0.3052,0.2288,0.1716,0.0763,-0.0191,-0.1144,-0.2287]}]]